ECMWFNIL_925_spd_000.txt.gz
Wind_Speed
15 15 15 14 13 11 10 9 9 9 8 7 6 7 7 8 9 9 7 7 8 8 8 8 8 8 7 7 6 6 6 6 6 6 6 5 5 5 5 4 4 3
15 14 14 14 14 12 11 11 10 10 10 9 7 7 8 9 10 10 10 9 8 8 8 8 7 7 6 6 6 5 5 5 5 5 5 4 4 4 4 3 3 3
17 16 16 15 14 14 14 13 12 11 11 11 10 9 10 11 12 11 11 11 10 9 9 8 8 7 6 6 6 6 5 5 5 4 4 4 3 3 3 2 3 3
23 23 21 19 16 15 16 16 15 13 12 13 13 12 12 13 13 13 13 12 11 11 10 9 8 8 7 7 6 6 6 5 5 4 4 3 3 3 2 2 2 2
25 26 22 19 16 15 16 17 18 16 14 14 15 15 15 15 15 15 14 14 13 12 11 10 9 8 7 7 7 6 6 6 5 5 4 3 3 2 2 2 2 2
21 22 20 19 17 15 16 17 19 18 17 16 15 16 17 17 16 16 16 16 15 14 13 12 10 9 8 7 6 6 6 6 6 6 5 4 3 2 2 1 1 2
18 18 18 18 18 17 18 18 18 18 19 18 16 17 18 18 18 17 18 17 16 16 15 14 12 11 9 8 7 7 7 6 6 6 6 5 4 3 3 1 0 1
18 18 18 18 18 19 19 19 18 17 18 18 18 18 19 20 19 19 19 18 18 17 16 15 14 12 11 10 9 9 8 7 7 6 6 5 4 3 3 2 1 1
15 17 17 18 19 20 21 20 19 18 18 19 19 19 19 20 20 20 20 19 19 18 18 17 15 14 13 11 11 11 9 9 8 7 6 5 4 3 2 2 1 2
11 12 14 16 17 18 19 18 16 16 17 18 18 17 19 21 21 22 22 21 20 19 19 18 17 16 14 13 13 12 11 10 9 8 7 6 5 4 3 2 2 2
9 10 13 16 16 16 15 15 15 16 16 17 18 18 20 22 23 23 24 23 22 22 21 19 19 18 16 15 14 13 12 11 10 9 8 7 5 4 3 3 3 3
7 9 12 15 16 16 16 17 17 18 18 20 21 21 21 22 24 25 25 25 24 23 22 21 20 19 18 17 15 14 13 11 10 9 8 7 5 4 4 4 4 4
7 9 12 14 15 15 17 17 18 18 20 20 20 20 21 23 24 24 25 25 24 23 23 22 21 20 18 17 16 15 13 12 11 9 8 7 6 5 5 4 4 4
6 7 9 11 13 14 16 17 18 19 20 20 19 20 22 22 23 23 23 24 25 25 24 22 22 21 19 18 17 15 14 12 11 9 8 7 6 6 5 5 5 5
6 7 7 8 10 12 14 16 17 18 19 19 19 19 20 21 22 23 23 23 25 25 24 23 22 20 20 19 17 15 13 12 10 9 8 7 6 5 5 5 4 4
6 7 7 8 9 10 11 13 15 17 18 19 19 19 19 19 19 21 22 21 21 23 24 23 21 20 21 20 18 15 12 10 9 8 7 6 6 5 5 4 4 5
7 7 8 8 9 10 10 11 13 14 16 17 17 18 16 16 21 24 25 24 22 23 23 21 20 22 23 21 17 14 11 9 8 7 7 6 6 5 4 4 5 6
8 8 9 9 9 10 10 10 11 12 14 14 14 15 16 18 22 25 26 26 24 21 18 16 17 21 20 16 13 11 9 8 7 7 7 6 6 5 5 5 6 7
10 10 10 10 10 10 9 9 9 10 11 11 12 15 17 18 21 23 24 23 22 21 19 17 16 17 15 12 10 8 7 7 7 7 6 6 6 5 6 7 8 8
10 10 10 11 11 11 10 9 9 9 10 11 12 14 17 18 19 21 20 20 21 22 21 18 17 15 14 11 9 7 7 7 7 6 5 5 6 6 7 8 9 9
10 10 11 11 12 11 10 9 9 9 10 11 12 13 16 17 17 19 19 19 20 20 18 15 14 14 13 11 9 8 7 7 6 6 5 6 7 8 9 9 10 10
11 11 11 11 12 11 11 10 9 10 10 11 12 13 15 16 17 18 19 18 17 16 15 14 14 14 12 10 9 9 7 5 5 5 6 7 8 8 10 10 11 11
13 13 12 12 11 11 11 11 10 11 12 13 14 14 16 16 16 17 17 16 16 15 14 12 13 13 11 9 9 8 6 4 4 6 7 8 8 9 10 11 12 13
14 14 13 12 12 12 11 11 11 12 13 14 16 16 16 17 17 17 17 17 18 18 14 11 11 11 9 8 8 7 4 4 5 7 8 9 9 10 11 12 13 14
13 14 13 12 12 12 12 12 12 13 14 16 17 17 17 17 16 17 18 18 18 18 16 12 10 9 7 7 6 5 4 4 6 8 8 9 11 11 12 13 13 15
13 14 13 13 13 13 13 13 13 14 15 17 18 17 17 17 16 19 21 18 16 16 14 11 10 8 6 5 4 4 4 5 7 8 10 11 12 12 13 14 15 15

ECMWFNIL_925_spd_003.txt.gz
Wind_Speed
15 15 14 14 13 13 13 13 13 13 11 10 10 10 10 11 11 10 9 9 9 8 8 7 7 7 7 6 6 7 7 7 7 6 6 6 6 6 6 7 7 6
15 15 14 14 14 12 13 13 13 13 13 11 10 11 11 12 12 11 10 10 9 9 9 8 8 7 6 6 6 6 6 6 6 5 5 5 5 5 5 5 6 5
16 15 14 14 14 13 13 13 13 13 13 13 12 12 13 14 13 12 11 11 10 10 10 9 9 8 7 7 6 6 6 5 5 5 5 5 4 4 4 3 3 4
17 16 15 14 14 13 13 13 13 13 13 13 13 13 14 15 14 14 13 12 11 11 10 10 9 9 8 8 7 6 6 5 5 5 5 5 4 4 3 3 2 2
17 16 16 15 14 13 13 13 14 13 13 13 14 14 14 15 15 15 15 14 13 12 11 11 10 10 9 9 8 7 7 6 6 5 5 5 5 4 4 3 3 2
15 15 15 15 13 12 12 13 14 13 13 13 14 14 15 16 17 16 17 16 15 14 13 12 12 11 10 9 9 8 8 7 6 6 6 6 5 4 4 4 3 3
11 12 12 11 12 12 12 12 11 11 12 13 13 14 15 17 17 17 18 17 16 16 15 14 14 13 12 11 10 9 8 8 7 7 7 7 6 5 5 4 3 3
8 9 9 8 12 15 13 10 9 9 11 13 14 15 16 17 18 18 19 19 18 17 17 16 15 15 14 13 11 11 10 9 9 9 8 7 7 6 6 5 4 4
7 9 9 9 13 15 12 11 14 14 13 13 14 15 16 18 19 19 19 20 19 19 18 17 17 16 16 15 14 14 13 11 11 10 9 9 8 8 7 6 5 5
6 7 9 11 13 13 11 12 16 19 19 17 16 17 17 18 19 20 20 20 20 20 19 19 19 18 18 17 16 16 14 13 12 12 11 10 9 8 8 7 6 5
4 6 7 9 10 10 11 11 13 16 18 18 18 20 20 19 19 20 21 21 21 21 22 22 22 21 20 18 17 16 15 14 13 12 12 11 10 9 8 7 6 6
1 2 6 8 10 10 10 11 12 13 14 15 15 17 19 20 21 21 21 21 23 23 23 23 22 21 20 19 18 17 16 15 14 13 12 11 10 9 8 7 7 6
7 4 4 5 5 5 6 8 11 13 13 14 14 15 17 19 21 21 22 23 24 23 23 23 22 21 20 19 18 18 17 16 15 13 12 11 10 9 8 8 7 6
6 6 5 5 4 3 3 4 7 11 12 14 15 15 17 19 19 20 23 25 25 24 23 22 21 21 20 19 18 17 17 16 15 14 12 11 10 9 9 8 8 7
4 4 4 5 5 4 4 4 6 8 11 14 15 16 18 19 19 18 20 23 24 24 23 22 22 22 22 21 20 18 16 15 13 13 12 11 10 9 9 8 8 8
4 3 3 4 5 5 5 5 6 7 9 11 13 15 17 19 19 18 19 21 22 24 24 23 22 22 22 24 22 19 16 14 13 11 11 10 9 9 9 9 8 8
5 5 5 5 6 6 6 7 7 9 9 10 11 12 14 16 17 17 20 23 23 25 25 23 20 20 22 25 24 20 16 14 12 11 10 10 9 9 9 9 9 8
4 5 5 6 6 7 7 8 9 10 10 11 11 9 10 12 13 14 17 19 20 21 20 18 17 19 23 25 25 22 18 14 11 11 10 10 10 10 9 8 9 8
3 4 5 6 6 7 8 9 10 10 11 10 10 9 9 9 10 12 11 13 15 15 15 14 14 19 24 25 25 23 19 13 10 10 10 10 10 10 9 8 8 8
3 4 5 6 7 8 9 10 10 10 10 10 10 9 9 9 11 13 13 15 17 15 14 14 17 21 25 26 24 19 14 10 8 9 10 9 10 10 9 9 8 8
3 5 6 7 8 9 10 10 11 11 11 11 10 10 10 11 11 13 16 19 17 15 16 17 20 23 25 24 20 15 13 12 9 9 9 9 9 10 10 10 9 9
4 6 7 8 9 9 10 11 11 11 11 11 11 11 11 11 12 13 16 16 13 15 17 19 22 24 23 20 16 14 15 13 9 9 9 9 9 10 10 10 10 10
6 7 8 8 9 10 11 11 11 10 11 11 11 11 11 11 12 12 12 12 14 15 16 22 25 23 20 18 16 16 16 11 8 8 9 9 9 10 11 11 11 11
7 8 9 9 10 10 10 11 11 10 11 11 11 11 11 11 11 10 8 11 14 14 17 24 26 21 18 18 17 17 15 11 8 7 8 9 9 10 11 10 11 12
8 9 9 9 9 9 10 10 11 11 11 11 11 11 11 10 11 10 10 12 15 14 17 23 23 20 18 18 17 16 14 12 8 6 8 9 9 10 10 9 10 11
10 10 10 9 9 9 9 10 11 11 11 11 12 12 11 9 8 10 13 14 14 13 14 18 20 19 17 16 16 14 12 12 9 7 8 9 8 8 8 9 9 9

ECMWFNIL_925_spd_006.txt.gz
Wind_Speed
21 21 21 19 18 18 16 16 16 15 14 15 15 14 14 12 10 9 8 8 8 8 8 8 9 10 10 9 9 9 9 9 9 8 9 10 10 10 9 8 10 10
22 21 21 19 18 19 17 15 16 15 13 13 15 15 15 14 12 12 11 9 8 8 8 8 9 9 9 9 8 7 8 8 8 8 8 7 7 8 8 7 9 8
23 22 21 20 17 19 19 15 15 16 12 11 14 15 16 15 13 12 11 10 10 9 9 8 9 8 8 9 8 7 7 7 7 6 6 6 5 5 5 5 6 5
23 21 21 20 17 17 19 16 14 15 14 11 12 14 16 15 14 13 12 11 10 10 9 9 9 9 9 10 9 8 8 7 7 6 6 6 6 4 4 4 3 4
21 19 18 18 16 15 18 18 15 14 15 14 12 13 15 16 15 14 13 13 12 11 11 10 10 10 10 10 10 9 9 8 8 7 6 6 5 5 4 3 2 3
18 17 15 15 13 13 16 18 17 14 14 16 15 14 15 16 16 16 15 15 14 13 12 12 11 11 11 11 11 11 10 9 8 8 7 7 6 4 4 3 2 2
14 13 13 13 12 11 12 14 17 17 15 15 16 16 16 17 17 17 17 16 16 15 15 14 14 13 13 12 12 11 11 10 10 9 9 8 7 6 5 5 3 3
13 11 10 13 14 13 14 15 16 17 15 14 16 16 16 18 17 17 16 16 16 16 17 16 16 16 15 14 13 12 12 12 11 11 10 10 10 8 7 7 5 4
11 10 8 10 12 12 15 17 17 17 16 15 15 14 14 16 17 18 17 17 17 17 18 18 17 17 16 15 15 14 14 14 13 12 12 11 11 10 9 9 7 5
7 6 5 6 8 8 10 12 12 13 14 13 12 13 13 13 16 18 18 17 19 19 18 18 18 18 18 17 17 16 16 16 15 14 13 13 12 10 10 9 9 7
4 4 3 4 5 6 8 9 7 5 6 8 10 11 10 10 12 15 16 17 20 20 19 18 18 18 19 19 18 18 18 17 15 14 14 13 12 11 10 10 9 8
6 3 3 5 5 5 7 10 10 7 5 7 10 11 13 16 18 17 17 16 17 19 19 19 19 19 19 20 19 19 19 18 16 15 14 13 12 11 10 10 9 8
9 5 2 2 3 4 5 8 10 11 10 10 12 13 15 21 24 21 18 17 17 18 19 19 19 18 19 20 19 20 20 19 17 16 14 13 12 11 10 10 10 8
9 8 5 4 3 3 3 4 6 6 8 10 14 16 17 20 20 18 16 18 20 21 20 20 20 19 19 19 20 21 21 20 18 17 15 14 13 12 11 10 10 9
7 7 6 4 3 3 3 4 4 3 4 7 11 16 20 21 20 19 20 21 22 22 24 24 24 24 24 23 22 22 21 20 19 18 17 16 15 13 12 12 12 11
7 6 5 3 3 3 3 3 3 4 4 7 11 15 17 18 17 18 20 21 21 23 25 25 26 28 29 26 24 23 22 21 20 18 17 16 15 14 13 12 12 11
5 5 5 3 2 2 1 2 3 4 5 8 11 12 11 10 10 12 15 17 20 22 22 23 25 28 28 25 23 23 23 22 20 18 16 15 14 13 13 12 11 10
3 3 3 3 2 1 0 1 2 3 5 6 7 8 8 7 7 9 10 12 15 18 20 20 23 26 26 25 24 24 23 21 19 18 16 14 13 12 11 11 11 11
3 2 3 3 2 1 1 2 4 5 5 6 7 7 7 8 8 8 10 11 12 14 17 18 20 23 25 26 26 25 24 21 20 19 17 14 12 11 11 11 11 11
4 3 2 1 1 1 2 3 5 6 7 7 7 8 8 8 9 10 12 12 10 11 13 14 16 19 21 25 26 26 25 22 19 18 16 13 11 11 12 12 10 8
5 4 2 1 1 2 3 4 5 7 8 8 8 9 9 10 10 12 13 13 11 11 11 11 13 16 18 22 24 24 24 21 17 14 13 12 11 11 11 11 10 9
5 3 2 2 2 2 3 5 6 7 8 8 9 9 9 10 10 11 12 12 12 13 12 12 13 14 16 19 21 23 22 19 14 12 14 13 12 12 12 12 12 11
4 4 3 3 3 3 4 4 5 6 7 8 9 9 10 11 11 10 10 10 12 13 14 14 15 16 17 19 20 21 19 15 12 12 13 11 10 10 10 12 13 12
5 5 4 4 4 5 5 4 5 6 8 9 9 10 11 10 10 10 8 6 10 13 14 15 17 18 18 18 18 18 16 15 13 10 9 9 9 10 12 12 13 14
6 5 5 6 6 6 5 5 6 7 8 9 10 11 11 11 12 10 5 6 10 11 11 13 16 18 18 18 18 16 15 15 13 9 7 8 10 13 14 13 12 12
7 7 8 8 7 7 6 6 7 7 9 10 10 11 11 11 11 8 10 10 8 9 10 12 15 16 17 17 16 15 14 14 12 7 4 6 8 9 9 8 7 7

ECMWFNIL_925_spd_009.txt.gz
Wind_Speed
28 28 29 26 26 25 23 25 23 20 18 16 15 14 12 12 13 12 10 9 9 12 13 13 12 10 9 10 10 10 10 10 11 11 11 11 11 11 11 11 9 7
29 28 29 26 25 25 23 24 23 19 18 17 15 14 13 12 12 11 9 8 8 10 11 12 12 11 10 8 8 8 8 9 10 9 8 9 10 10 10 10 9 6
29 28 28 26 25 25 24 23 23 20 19 19 17 16 14 14 13 11 9 7 8 9 9 11 12 11 10 7 6 7 8 8 8 6 5 6 7 8 8 8 8 5
27 27 26 26 24 24 24 25 23 21 21 21 19 18 16 15 14 12 10 8 9 9 9 11 11 9 9 8 6 6 7 7 6 5 5 4 4 4 5 5 6 6
26 24 23 24 24 24 24 25 24 21 21 22 21 20 18 16 16 14 11 10 9 9 10 11 11 8 8 9 7 6 7 7 6 6 6 5 3 2 2 3 4 6
24 22 22 22 23 25 23 24 25 22 21 21 22 21 19 17 16 14 13 11 10 10 10 11 12 10 10 10 9 8 8 8 7 7 7 5 4 3 2 2 3 3
23 21 23 22 22 25 24 23 24 23 21 20 21 21 20 18 16 14 13 12 12 12 11 11 13 13 12 13 12 11 11 11 9 8 8 7 5 4 4 3 1 0
22 20 19 18 19 24 24 22 22 22 22 21 22 23 21 18 16 15 13 12 12 13 12 12 12 14 15 15 14 13 13 13 12 11 11 10 8 7 7 6 4 4
18 20 17 15 17 20 21 19 19 20 22 23 23 22 21 19 17 15 14 14 14 15 15 14 13 14 15 16 16 16 15 15 14 13 13 13 12 11 10 8 7 6
17 16 15 13 14 16 17 16 16 17 19 22 22 20 17 16 16 16 16 16 17 18 18 17 16 17 17 17 17 18 17 17 17 16 15 15 15 15 13 11 10 9
20 18 16 14 13 12 12 13 14 14 16 19 21 19 16 13 14 17 17 17 17 18 20 21 20 19 20 20 19 20 20 19 19 19 17 16 16 16 14 13 13 13
17 18 17 17 16 15 13 11 10 10 12 15 18 20 17 13 13 16 17 15 14 13 16 21 23 22 22 22 22 22 22 21 21 22 19 17 17 16 14 13 13 12
6 7 8 10 12 14 14 14 12 9 9 13 16 19 19 16 15 15 15 14 14 13 14 18 22 24 24 25 25 24 24 23 24 23 20 19 18 17 15 14 13 12
4 4 4 5 6 8 9 11 13 11 11 13 16 18 20 20 19 19 19 19 19 21 21 20 20 23 25 27 27 27 26 25 25 24 21 20 19 18 16 15 14 13
10 10 10 8 8 8 8 9 10 11 12 14 15 17 18 19 19 19 20 21 21 22 25 24 23 22 23 25 27 27 28 27 26 25 23 21 20 18 16 15 14 13
12 12 11 10 10 10 10 10 10 10 10 11 12 13 14 15 15 16 18 19 19 20 22 24 25 25 24 24 24 25 26 26 26 26 24 23 22 20 18 16 14 14
11 10 10 10 10 9 9 10 10 9 8 8 9 10 11 12 13 14 16 18 19 20 22 23 24 25 25 25 25 24 23 24 25 26 26 25 24 22 21 19 17 15
11 10 9 10 10 8 8 9 9 8 8 8 8 9 9 10 11 13 13 13 14 16 18 19 20 21 22 23 24 24 24 24 24 26 26 26 25 24 23 21 19 16
11 10 9 9 8 8 8 7 6 7 7 8 9 9 9 11 12 11 10 9 10 12 13 15 17 19 20 20 22 23 24 24 24 26 28 27 26 25 23 20 17 15
9 9 10 10 8 7 6 6 5 4 4 6 7 8 9 11 13 12 10 9 10 12 12 12 14 16 17 18 19 19 19 22 24 26 27 24 22 20 18 16 15 13
9 9 9 8 7 6 6 5 4 4 3 3 5 6 7 8 9 11 12 13 13 12 11 12 13 12 12 13 14 15 16 19 21 22 22 20 18 16 13 13 13 11
12 11 9 7 6 7 6 5 4 4 3 3 4 6 8 8 8 8 10 14 16 13 12 12 12 10 8 8 10 13 16 18 18 18 17 15 14 12 10 11 12 11
14 11 9 8 7 6 5 4 4 4 4 4 4 5 7 9 9 9 9 11 14 15 14 13 10 7 6 7 11 14 16 16 15 15 13 11 10 11 11 10 10 10
12 9 7 8 7 6 4 3 4 4 4 5 5 6 7 7 8 9 10 10 11 13 13 12 9 9 10 11 14 15 15 14 13 12 11 9 8 8 8 7 8 10
6 6 8 7 5 5 5 5 5 5 5 6 6 7 8 9 9 10 11 11 11 12 12 10 9 11 13 14 15 14 13 14 13 12 11 8 6 5 5 6 10 12
1 2 5 6 7 8 8 8 8 7 7 7 8 8 9 10 11 12 12 12 13 13 11 10 11 13 15 15 15 14 14 14 13 12 11 8 6 4 2 4 8 10

ECMWFNIL_925_spd_012.txt.gz
Wind_Speed
29 29 28 27 27 27 25 23 23 23 21 20 19 18 17 18 17 16 16 14 14 13 11 10 10 9 9 9 10 11 11 11 11 9 9 10 11 11 10 10 9 7
29 28 28 27 27 28 25 23 23 23 21 20 19 19 18 17 16 15 14 14 15 14 12 10 9 9 8 8 9 11 12 11 11 10 10 11 11 10 10 10 9 9
29 28 28 28 28 29 27 24 24 22 21 21 20 19 19 18 17 15 14 14 15 15 13 11 10 9 7 6 7 9 10 10 11 10 10 11 10 10 10 8 8 8
28 29 30 31 29 29 28 27 26 24 23 23 22 20 20 19 18 15 13 13 14 14 14 12 11 9 8 6 6 8 8 8 9 9 9 10 10 9 9 7 6 6
28 29 31 33 31 29 30 30 29 27 25 24 23 22 20 19 18 16 13 13 13 13 14 14 12 9 7 6 6 7 7 6 7 6 6 8 8 7 8 8 7 6
29 28 31 35 34 31 31 32 32 31 28 26 25 24 22 21 19 17 15 14 14 13 13 14 12 10 8 7 6 5 5 6 6 6 6 6 6 5 6 7 7 5
32 29 30 36 36 33 33 33 33 33 30 28 27 26 24 22 21 19 17 15 15 14 13 13 12 11 10 10 9 7 7 7 6 6 7 6 5 4 4 6 6 4
29 26 29 36 38 34 33 34 35 35 32 30 29 27 25 23 21 19 18 16 15 14 13 12 12 12 11 11 12 11 10 9 9 9 9 8 7 6 5 5 5 4
22 19 21 32 38 37 35 36 35 35 34 33 31 29 27 24 21 19 18 17 15 14 13 12 12 12 12 12 13 13 13 12 12 12 11 11 10 9 8 7 6 5
18 17 14 16 23 29 33 36 36 35 33 33 33 31 29 26 23 20 19 17 16 15 14 13 12 12 13 13 13 13 14 14 14 14 13 13 13 12 11 10 9 7
15 18 16 12 11 14 18 25 31 33 34 34 34 33 31 28 26 23 21 20 19 18 17 16 15 14 14 14 14 14 15 15 16 16 15 15 15 14 14 14 12 10
13 13 15 18 19 18 17 18 22 24 28 32 33 33 32 29 27 25 23 22 21 19 19 18 17 16 16 16 16 16 16 17 17 17 18 17 17 17 16 16 15 13
15 12 11 13 18 21 22 23 21 16 16 20 25 28 30 30 28 26 25 24 23 22 22 21 20 19 19 19 19 19 19 20 20 20 20 20 19 19 18 17 16 15
15 13 10 8 11 17 19 19 20 18 15 16 18 20 23 25 25 24 24 23 23 23 21 19 19 19 19 21 23 23 23 23 23 23 23 22 22 21 20 18 18 17
12 13 11 10 12 15 16 15 17 20 20 21 21 20 22 22 20 20 20 20 20 20 20 19 18 19 19 19 21 24 26 27 27 26 26 25 25 24 22 20 20 19
16 14 16 18 15 14 16 18 21 21 21 22 23 25 26 23 20 18 18 18 18 17 18 18 19 20 20 19 19 21 24 27 29 29 28 27 27 26 24 22 22 21
17 16 18 18 13 10 11 13 15 16 17 18 19 20 20 19 18 18 17 16 15 14 14 15 16 17 17 18 19 19 20 22 26 29 30 29 29 29 27 25 24 23
16 16 16 14 11 9 9 9 10 10 11 11 11 11 11 12 12 13 12 11 10 10 11 12 12 13 13 14 16 18 19 20 23 26 29 31 31 30 29 28 26 24
16 14 14 13 10 9 8 8 8 7 7 7 7 7 8 9 10 9 8 8 8 8 8 9 9 10 11 11 13 15 17 19 20 23 26 29 30 30 29 29 27 24
13 12 12 11 10 9 8 7 6 5 5 6 7 7 8 9 10 10 10 9 8 8 8 9 10 11 12 11 11 12 14 15 17 20 23 25 26 27 26 24 23 20
9 10 11 11 9 9 8 7 6 5 5 5 5 5 5 6 6 8 9 10 10 8 8 10 10 11 10 9 9 9 10 12 14 17 19 19 20 20 19 17 16 15
9 10 11 10 8 7 7 6 6 5 5 5 5 5 5 5 4 4 5 7 9 9 10 12 11 10 10 9 8 7 7 8 10 12 14 14 14 14 13 13 11 10
11 12 12 10 8 7 6 5 5 4 4 5 5 6 6 6 7 6 6 6 7 9 11 13 13 12 10 9 8 7 5 6 8 11 11 12 12 11 11 11 9 8
16 15 14 13 11 9 8 6 6 6 6 6 6 6 5 5 7 8 9 9 9 8 9 12 13 12 10 8 6 6 5 7 10 12 12 12 12 11 10 10 10 9
14 17 16 14 13 12 10 9 8 8 8 7 7 6 6 6 7 8 10 10 10 9 10 11 12 12 9 7 6 7 8 10 11 13 12 12 12 13 12 11 10 9
6 11 13 13 12 12 10 9 9 10 10 9 8 7 7 7 8 9 10 11 10 10 11 12 12 11 9 9 9 9 10 11 11 12 12 12 12 12 11 10 8 8

ECMWFNIL_925_spd_015.txt.gz
Wind_Speed
26 24 22 19 17 18 19 19 18 16 15 14 14 14 14 13 12 10 9 10 11 11 11 11 10 10 9 8 8 8 8 8 8 6 6 7 7 7 7 7 6 6
27 24 22 19 18 18 18 18 18 16 16 15 13 14 15 15 13 12 12 12 11 11 11 10 10 10 10 10 9 9 9 8 8 7 6 7 7 7 7 8 8 7
27 25 24 21 18 19 18 18 17 15 15 15 14 14 16 16 15 14 13 13 12 12 11 10 11 11 10 10 9 9 9 9 9 8 7 7 7 7 8 8 9 9
27 25 25 20 18 19 19 18 18 17 16 17 15 15 16 17 17 16 15 14 14 13 12 11 11 11 10 10 10 9 9 9 10 9 8 9 8 7 8 8 8 9
25 25 23 16 15 20 21 19 19 18 18 18 17 16 17 17 17 17 16 16 15 13 12 11 11 10 9 8 9 10 10 10 10 9 9 9 8 6 7 7 8 9
20 24 22 15 16 23 24 22 19 17 18 19 18 18 18 18 17 16 17 18 18 16 14 13 12 11 9 8 9 9 8 9 9 8 8 8 8 6 6 5 6 7
22 25 24 17 20 26 26 25 22 18 18 18 19 20 20 19 19 18 17 17 19 18 17 16 15 13 12 11 10 9 8 7 7 7 6 6 6 6 6 5 5 5
23 27 26 22 23 27 28 28 25 21 19 20 21 21 21 21 20 20 18 18 19 20 19 18 16 15 14 13 12 11 9 9 8 8 7 7 6 5 5 6 5 4
21 25 26 25 25 26 27 27 27 25 23 23 24 23 23 22 21 21 19 18 19 19 20 19 17 16 15 14 13 12 12 11 10 10 9 8 8 7 6 6 6 4
19 21 23 23 24 23 23 24 25 26 26 25 25 26 25 24 23 22 21 20 20 19 20 20 19 18 17 15 14 13 12 12 12 11 11 10 9 9 8 7 7 6
17 17 18 19 21 21 22 22 21 21 24 27 28 28 26 24 21 19 18 19 20 20 20 19 19 19 17 16 15 14 13 12 12 12 11 11 11 10 10 9 9 8
14 15 16 17 19 20 21 21 19 16 18 22 26 28 28 26 24 20 18 18 20 21 22 20 18 18 17 15 14 14 14 13 13 13 13 13 12 12 12 12 12 11
14 15 15 15 15 16 17 19 21 19 19 20 22 23 23 24 26 24 22 22 22 23 24 24 21 19 17 16 15 15 16 15 15 15 16 16 15 14 14 14 13 13
15 14 13 11 11 11 13 18 23 24 24 24 25 25 22 23 26 27 27 28 26 24 24 27 25 21 19 18 17 17 18 18 17 17 18 18 18 17 17 17 16 16
15 13 12 11 10 12 14 18 23 25 24 24 27 28 27 27 30 30 30 29 26 24 24 27 27 24 21 20 20 21 21 21 21 21 21 21 20 20 20 19 19 19
14 14 14 12 13 16 17 19 22 23 23 25 27 30 30 30 30 30 29 27 24 24 24 25 26 25 21 20 20 20 20 20 21 22 22 22 22 23 23 23 22 22
14 15 15 14 15 17 18 19 22 23 23 24 26 29 29 26 24 25 25 23 20 19 20 22 25 24 20 17 16 16 16 17 18 19 20 20 22 23 25 26 25 24
15 16 15 15 16 17 18 20 22 24 24 25 25 26 25 23 23 24 23 20 19 19 19 20 19 16 13 11 11 10 12 13 15 17 18 19 20 21 23 25 26 25
11 15 15 15 16 16 16 17 19 21 22 24 24 23 21 22 24 23 20 18 18 19 17 13 9 7 6 6 7 8 9 10 12 14 15 17 18 19 20 22 23 23
8 10 12 14 14 13 12 11 12 13 15 16 16 16 15 16 17 16 14 14 14 14 12 9 6 5 4 5 6 7 7 9 10 11 12 14 15 17 18 19 20 20
8 8 10 12 11 11 11 10 9 9 10 10 10 10 10 9 9 9 9 9 9 10 9 8 6 4 5 5 5 5 5 7 9 9 10 11 13 14 14 15 15 15
10 10 10 11 11 10 11 9 8 8 7 7 6 6 6 5 4 4 4 4 6 8 8 8 7 6 6 6 6 5 5 5 6 7 7 7 7 7 7 8 8 10
11 12 12 12 11 10 9 8 7 6 5 4 4 3 3 2 2 2 1 2 4 5 6 7 8 7 7 7 6 6 6 5 3 3 3 3 3 3 5 7 8 10
11 14 15 14 12 10 8 8 7 5 4 3 2 1 1 0 1 1 2 3 4 5 6 7 8 8 7 7 6 5 5 4 1 2 4 6 7 8 9 9 9 8
11 14 16 15 13 11 9 7 6 4 2 2 2 1 1 1 2 2 3 4 5 6 7 8 8 9 8 6 5 4 4 2 2 4 7 9 9 9 9 8 7 7
6 12 17 16 14 11 10 9 7 4 3 4 4 3 3 3 3 3 4 5 7 8 9 9 9 8 7 5 4 4 3 3 4 7 9 10 10 9 9 8 7 6

ECMWFNIL_925_spd_021.txt.gz
Wind_Speed
8 5 6 7 7 5 3 5 7 7 6 5 7 8 8 7 5 5 4 5 5 4 4 4 3 4 5 7 7 8 9 10 12 13 13 14 14 14 13 12 11 12
10 8 7 5 3 3 5 7 8 7 6 6 8 9 8 6 5 5 6 6 5 4 4 3 2 3 4 6 6 6 8 9 11 12 12 12 13 13 13 12 13 14
15 13 8 6 7 8 8 8 7 6 7 7 9 9 8 7 5 5 6 6 6 5 5 5 4 3 3 4 5 5 7 9 10 10 10 11 12 13 14 14 15 16
18 13 8 7 10 10 8 7 7 7 8 8 8 9 8 7 5 5 5 5 6 6 6 7 7 6 5 4 4 6 7 9 9 10 10 12 13 14 15 16 16 17
18 12 10 10 12 12 10 9 8 9 10 9 8 8 7 7 6 5 5 5 5 5 6 7 8 7 7 7 6 7 8 9 9 9 11 12 13 13 14 15 16 17
18 13 14 15 13 12 11 11 10 10 12 11 9 8 7 7 7 6 6 6 5 5 5 5 6 6 7 7 7 7 8 8 8 8 10 11 12 12 12 13 13 13
19 16 17 16 13 12 13 14 12 11 13 12 9 8 8 7 7 7 7 6 6 6 5 4 4 4 5 5 6 6 7 8 8 8 8 10 11 10 10 10 10 11
17 16 17 16 14 14 16 16 13 11 13 12 10 9 9 9 8 7 7 7 6 6 5 5 4 3 4 4 4 4 5 5 6 6 6 7 9 9 9 9 9 9
15 16 17 15 14 15 18 17 13 10 10 11 10 10 10 10 9 8 7 6 6 5 5 4 4 4 4 4 4 3 3 3 4 4 4 5 6 7 7 7 6 6
14 15 16 16 15 16 18 17 13 10 9 9 11 11 11 11 10 10 9 8 7 5 4 4 3 4 4 4 4 3 3 3 4 4 4 4 5 5 5 5 5 5
14 14 16 18 17 16 17 16 13 11 10 9 11 12 11 11 11 11 10 8 7 6 5 3 3 3 3 4 4 4 4 5 5 5 6 6 6 6 6 6 6 6
17 16 16 17 17 16 17 15 13 12 11 10 11 12 12 11 10 10 8 7 6 5 5 4 3 3 3 3 3 4 4 5 5 6 7 7 8 8 8 8 8 8
18 17 16 17 16 16 16 16 15 13 13 12 12 12 12 11 10 9 8 6 5 5 5 4 3 2 3 3 3 4 5 5 6 7 8 9 9 9 10 10 11 12
16 16 15 15 14 15 16 16 16 15 15 15 14 14 13 13 12 10 10 8 6 5 6 6 5 5 4 4 5 7 7 8 9 9 10 11 12 12 12 12 13 14
15 14 13 13 13 14 15 15 15 16 17 18 17 17 18 18 17 16 15 13 11 9 9 8 8 8 7 7 9 10 11 11 13 13 14 15 15 15 15 14 14 16
13 12 12 13 13 13 14 15 15 17 18 20 20 21 22 21 20 19 18 16 15 14 13 10 9 10 9 9 12 14 14 14 15 16 15 15 16 16 16 15 15 17
12 12 13 14 14 15 15 16 17 19 20 21 22 22 22 21 20 20 19 19 19 19 18 15 11 10 9 10 12 14 15 14 15 15 15 15 16 16 16 15 14 15
12 12 13 15 15 15 15 15 17 17 17 19 22 22 21 20 20 20 20 21 21 22 22 21 16 12 12 14 15 16 15 15 15 16 16 16 16 16 15 13 12 13
11 11 12 14 13 12 11 11 12 12 12 14 18 19 18 17 19 22 21 21 22 24 25 24 21 19 17 16 16 15 14 13 13 13 13 14 15 15 14 12 12 11
9 10 11 13 13 12 11 10 9 9 10 12 14 14 14 13 15 19 20 20 21 21 21 21 19 16 14 14 13 12 10 10 9 9 10 11 12 12 12 11 10 9
7 8 9 10 12 13 14 14 12 11 12 14 14 13 12 12 13 15 17 18 17 17 17 15 12 10 11 12 11 10 8 6 6 7 8 9 9 9 8 7 6 6
6 5 6 7 8 10 13 14 13 13 13 14 15 13 12 13 14 14 15 15 16 16 15 12 10 11 13 13 12 11 8 5 5 6 6 6 5 4 3 3 2 3
8 5 5 5 5 6 9 10 10 10 10 10 11 11 11 12 13 14 14 14 14 14 12 11 13 15 15 14 13 11 8 5 5 5 5 5 4 5 5 5 5 4
10 7 5 6 6 7 8 9 9 9 9 9 10 10 10 11 11 11 11 10 10 9 10 12 15 15 14 13 13 11 8 6 6 6 7 7 7 7 7 6 7 6
11 9 7 6 7 8 9 11 11 10 10 9 10 11 11 11 11 12 13 12 11 11 11 12 14 14 13 12 12 11 9 8 8 9 9 9 9 10 10 9 9 9
13 11 10 9 8 9 11 13 12 11 11 11 11 13 13 13 14 14 15 14 13 12 11 11 11 11 12 12 12 11 10 9 10 11 12 12 13 13 13 13 12 11

ECMWFNIL_925_spd_024.txt.gz
Wind_Speed
10 9 9 9 9 10 10 9 9 8 8 8 7 7 7 6 5 6 7 8 7 7 7 6 6 6 6 6 5 5 6 6 7 7 7 8 8 8 7 6 5 5
11 9 9 9 9 10 10 9 9 8 8 8 8 9 8 7 6 7 8 9 8 8 7 7 7 6 6 6 5 6 6 6 6 6 6 6 6 7 6 6 6 6
13 12 11 11 10 10 10 10 9 8 9 9 9 10 9 8 8 8 9 9 9 9 8 8 7 6 6 6 5 6 6 6 6 5 6 6 5 6 6 7 7 7
15 14 12 11 11 12 11 10 10 9 9 9 9 10 10 9 9 9 10 9 9 9 9 10 9 8 7 6 6 6 7 6 6 5 6 6 6 7 7 7 8 8
17 15 12 11 11 12 11 11 10 11 10 10 10 11 11 10 9 9 10 9 9 9 10 10 10 9 8 7 7 8 8 7 7 7 7 7 7 7 7 7 8 8
17 14 12 11 11 11 11 11 10 11 12 11 11 11 11 11 10 10 10 10 10 9 10 10 10 9 9 8 8 8 8 9 8 8 9 9 8 8 7 8 8 8
15 13 12 11 10 10 10 11 11 12 12 11 10 11 11 11 11 10 10 10 10 10 9 9 9 9 9 8 8 8 8 9 9 9 9 9 9 8 8 7 7 7
12 12 10 9 10 10 10 11 12 12 13 11 10 10 11 11 11 11 11 10 10 10 10 9 9 9 8 8 8 8 7 7 7 7 7 7 7 7 7 6 6 6
10 9 9 9 9 9 9 11 12 13 13 12 10 9 10 10 11 12 12 11 11 10 10 10 9 9 9 8 8 8 7 6 6 5 6 6 6 6 6 5 5 4
8 7 7 8 8 8 8 10 12 12 12 12 11 10 10 10 11 12 12 12 12 11 11 10 10 9 9 8 8 8 7 7 6 5 5 5 4 5 5 5 4 4
6 6 6 7 8 8 9 10 11 12 12 12 12 12 11 11 11 11 12 12 12 12 12 11 10 10 9 9 8 7 7 7 6 6 5 5 4 4 4 4 4 4
6 6 6 7 8 9 10 10 11 11 11 11 11 12 12 12 11 11 11 12 12 12 12 12 11 11 10 9 9 8 7 7 7 6 6 6 5 5 5 5 5 4
5 6 7 7 9 10 10 10 10 11 11 11 11 12 13 13 12 12 12 12 13 13 13 13 12 11 11 10 9 9 8 7 6 6 6 6 6 6 6 7 7 7
3 3 5 6 8 9 10 10 10 11 11 12 12 12 12 13 13 14 13 13 13 13 13 13 12 12 11 11 9 8 7 6 6 6 6 6 6 7 7 8 9 9
0 1 3 5 6 8 10 11 11 11 12 13 13 13 13 13 14 15 15 15 15 14 14 13 12 12 12 13 11 9 7 6 5 5 6 6 7 7 8 9 9 9
1 1 3 4 5 7 8 9 10 11 12 13 14 13 13 12 13 15 16 16 16 16 16 14 14 14 15 15 15 12 8 5 5 5 6 7 7 8 8 8 9 9
1 1 2 4 5 6 7 7 8 9 11 12 12 12 12 12 13 14 15 15 15 16 17 17 15 15 16 17 16 13 9 6 4 5 5 6 7 8 8 9 9 9
2 2 2 3 4 5 7 7 8 9 9 11 11 12 12 12 13 15 15 15 15 15 17 18 19 18 17 17 17 15 11 8 6 7 7 8 9 9 9 10 10 9
1 2 2 3 4 5 6 7 8 9 9 10 11 12 13 14 15 16 16 17 17 17 17 18 21 21 20 19 18 17 14 12 10 10 9 9 10 10 10 10 10 7
2 2 2 3 4 5 6 7 8 8 8 9 10 11 13 14 16 17 18 18 18 18 18 18 20 22 23 21 19 18 16 13 10 8 6 7 9 9 8 9 7 5
4 3 3 3 3 5 6 8 9 9 9 9 9 10 11 12 14 15 15 16 16 16 16 17 20 23 25 23 21 20 17 13 9 7 6 8 10 9 7 7 6 5
5 5 5 4 4 5 6 7 9 10 11 10 10 11 11 11 12 12 13 13 13 14 14 14 16 20 23 22 20 19 17 13 11 11 10 9 8 7 5 5 5 5
6 6 5 6 6 6 6 6 7 8 9 9 9 10 11 12 13 13 12 12 11 12 13 12 13 17 20 19 19 19 17 14 13 13 12 10 8 6 5 6 7 7
7 7 6 6 7 7 8 8 8 8 8 8 8 8 9 10 12 12 11 11 11 12 13 12 13 17 19 18 19 20 17 13 13 13 12 10 9 8 7 8 10 10
8 8 8 8 8 8 8 9 10 9 8 8 9 8 8 8 9 10 10 10 10 12 14 13 13 17 19 19 20 20 16 12 10 11 12 11 11 10 9 9 10 10
9 9 9 9 9 8 8 9 10 10 10 10 10 9 8 9 9 8 9 9 10 12 13 13 14 19 21 20 19 18 15 11 10 11 11 11 11 11 11 11 11 10

ECMWFNIL_925_spd_027.txt.gz
Wind_Speed
9 9 10 10 9 9 8 7 6 6 5 5 6 7 6 5 5 5 6 6 5 6 5 5 7 7 7 7 8 8 8 8 9 8 8 8 8 8 8 7 6 5
10 9 10 10 10 9 8 7 7 6 6 6 7 8 8 7 7 6 7 7 6 7 6 7 7 6 7 7 7 8 8 8 8 8 8 8 8 8 8 7 6 6
8 9 10 10 11 10 9 9 8 8 8 7 7 9 8 8 8 8 8 7 7 8 7 7 7 6 7 7 7 8 8 8 8 8 8 8 8 8 8 8 7 7
7 8 9 10 11 11 10 10 9 9 9 8 8 9 9 9 9 9 8 8 8 8 8 8 7 7 7 7 7 8 8 8 8 8 8 8 8 8 8 8 8 8
7 7 9 10 11 11 10 9 10 10 10 9 9 9 10 10 10 9 9 8 8 8 8 8 8 7 7 7 8 8 8 8 8 7 8 8 8 8 8 8 9 9
8 8 8 10 10 10 9 10 10 11 11 10 10 10 10 10 10 9 9 8 8 8 8 9 8 8 8 8 8 8 8 8 8 8 8 8 8 8 8 8 9 9
12 13 10 9 9 9 9 10 11 11 11 11 10 10 10 10 10 10 9 9 9 9 9 9 9 9 9 9 8 9 9 9 9 9 9 9 8 8 8 8 8 8
15 14 11 9 9 9 9 10 12 12 12 11 10 10 10 10 10 10 10 10 9 9 9 9 10 10 10 9 9 10 10 9 9 9 10 9 8 8 8 7 7 7
12 12 11 10 9 10 10 11 12 12 12 11 10 10 10 10 10 10 10 10 10 9 10 10 10 10 9 10 10 11 10 9 9 9 9 9 8 8 7 7 6 6
11 11 12 11 10 10 10 11 12 12 12 11 10 10 10 10 10 11 11 11 11 10 10 10 10 10 10 10 11 10 10 9 9 9 9 8 8 8 8 8 7 6
10 11 12 12 11 10 10 10 11 11 12 12 11 11 10 10 10 11 11 11 12 11 11 11 11 11 11 11 10 10 10 10 9 9 9 8 7 7 7 8 7 7
9 10 11 11 11 10 10 10 10 11 12 12 12 12 11 10 11 11 11 12 12 12 13 13 12 12 11 11 11 11 10 10 10 9 9 8 7 7 7 7 7 7
9 10 10 10 10 9 9 10 11 12 13 13 12 12 12 12 12 11 12 12 13 13 14 14 14 14 13 13 12 12 11 11 10 10 9 9 8 8 8 8 8 8
8 8 8 8 9 8 8 9 11 12 13 13 12 12 13 13 13 12 12 13 13 14 14 14 15 15 14 14 14 13 13 12 11 11 10 10 9 9 9 9 9 9
7 6 6 6 7 7 9 10 11 11 12 12 12 12 13 13 13 14 13 14 14 14 14 15 15 15 15 16 15 15 14 13 12 12 12 11 11 11 10 10 10 10
6 5 5 6 6 6 8 11 11 11 11 12 13 13 13 13 14 15 15 16 16 16 16 16 15 15 16 18 17 16 15 14 13 12 12 12 12 12 12 12 12 11
5 4 4 5 6 6 7 9 10 9 10 11 11 12 13 13 14 15 16 16 17 17 17 17 15 16 19 21 20 18 16 15 14 14 13 12 12 12 12 13 14 10
3 3 3 4 5 5 6 6 6 7 7 9 10 11 12 14 14 15 15 14 15 16 16 15 15 17 21 23 22 21 18 15 14 13 13 12 11 12 10 10 11 8
2 2 1 2 3 4 5 5 6 6 6 7 9 10 11 13 14 15 15 14 15 16 17 16 16 18 20 22 23 24 22 18 14 12 13 12 11 11 10 9 8 6
3 2 1 1 1 2 4 5 6 6 6 7 8 10 12 13 15 15 15 14 15 17 17 16 14 15 17 20 23 24 24 21 15 11 12 12 10 10 11 11 10 8
5 4 3 3 2 2 3 5 6 7 8 8 8 10 12 13 15 16 16 17 18 19 20 19 16 15 18 21 23 23 24 22 17 12 11 11 9 10 11 10 9 9
5 4 4 4 4 4 4 5 6 7 9 9 10 11 12 14 16 16 17 21 22 22 22 22 21 20 21 23 24 24 24 22 17 13 12 12 10 10 9 8 8 8
6 6 5 5 5 5 6 6 6 7 8 9 10 12 13 14 15 16 18 20 20 20 20 22 23 23 24 25 25 25 25 22 18 15 13 13 13 12 10 9 8 8
8 8 7 7 7 7 7 7 8 8 8 9 10 11 13 14 14 16 18 17 17 18 19 19 19 19 22 25 25 26 26 22 17 15 14 13 12 11 10 10 11 11
10 10 9 9 9 8 8 8 9 10 10 10 11 11 12 13 13 15 16 16 16 17 19 19 18 16 18 21 22 23 24 21 16 14 13 11 10 10 9 10 13 15
11 10 10 10 10 10 10 10 10 11 11 12 13 13 13 13 13 14 15 15 14 15 16 17 17 18 19 19 18 19 21 20 17 14 12 11 13 13 12 12 13 15

ECMWFNIL_925_spd_030.txt.gz
Wind_Speed
20 17 15 13 11 9 8 7 6 5 5 7 8 8 8 7 6 7 8 10 10 8 9 9 8 9 10 10 12 13 13 14 15 16 16 15 15 14 13 11 11 11
21 18 17 15 13 11 8 7 6 5 5 7 9 9 8 7 7 8 8 9 10 9 9 9 8 8 9 11 12 12 12 13 14 15 15 15 15 14 13 12 12 13
20 19 17 16 15 13 9 8 7 6 7 8 9 9 8 8 8 9 9 9 10 10 10 9 9 9 9 10 12 11 12 13 13 15 15 15 15 14 13 13 13 14
21 20 17 16 16 14 10 9 8 8 9 9 9 10 9 9 9 9 9 9 10 10 10 9 9 10 9 9 11 11 12 13 14 15 15 15 14 13 13 14 15 16
23 21 17 16 17 14 11 10 9 9 9 9 10 10 9 10 9 9 9 9 10 10 9 9 9 9 9 9 10 11 11 13 13 14 15 15 15 14 14 15 17 17
22 20 17 16 16 14 12 11 10 10 10 10 10 10 9 10 9 9 9 9 9 8 8 9 8 8 8 9 9 10 10 12 12 13 15 15 15 15 15 16 16 16
20 19 16 16 15 14 11 11 11 11 10 10 10 10 9 9 8 8 8 8 7 7 7 7 8 8 8 8 8 9 10 11 11 12 14 14 15 14 15 15 15 14
19 18 16 15 14 13 11 11 12 12 11 11 10 10 9 8 8 8 8 7 7 7 7 7 7 7 7 7 8 10 10 10 11 12 13 14 14 14 14 14 14 13
18 17 16 15 13 12 12 12 13 12 12 11 10 10 9 8 9 8 8 8 8 8 8 7 7 7 7 7 9 9 9 9 11 13 12 12 12 13 12 12 12 11
17 17 17 15 13 12 12 13 13 12 12 11 10 10 9 8 9 9 8 8 8 8 8 8 8 7 7 8 8 8 7 9 11 11 11 10 11 11 10 10 10 10
17 16 16 15 12 11 12 12 13 13 12 11 10 10 9 8 9 9 8 9 9 9 9 9 9 8 8 8 8 7 7 8 9 9 9 9 9 10 10 9 9 9
14 14 14 14 12 12 12 12 12 12 12 12 11 10 9 8 9 9 9 9 9 9 10 10 10 9 9 8 8 8 7 7 8 8 8 7 7 9 9 9 8 8
13 13 14 14 13 12 13 13 12 12 12 12 12 11 9 8 8 8 8 9 9 9 10 10 10 11 10 10 9 8 8 8 8 8 7 7 7 8 8 8 8 8
11 11 12 13 12 12 12 12 13 13 12 12 11 11 10 9 8 8 8 8 9 9 9 10 11 11 11 11 10 10 10 9 9 9 8 8 8 8 8 9 8 7
8 8 9 10 11 11 10 11 12 12 12 11 10 10 10 9 9 9 9 9 9 8 9 9 10 11 11 12 12 12 12 12 11 11 11 10 10 10 10 10 10 10
6 6 7 8 9 9 9 10 10 9 10 9 7 8 9 10 11 11 10 10 10 9 9 9 9 10 11 12 13 13 14 14 14 14 13 13 13 13 12 12 13 14
5 5 6 7 7 6 7 8 8 8 9 8 7 9 11 11 10 10 10 11 10 8 6 5 6 8 10 13 14 14 14 15 15 15 15 15 15 15 15 14 14 14
4 4 6 5 4 4 5 6 7 7 8 8 9 12 13 12 10 10 11 12 12 11 7 5 7 11 12 13 15 16 16 15 15 15 16 16 16 16 16 15 14 13
4 4 5 5 4 4 3 4 5 6 6 7 8 9 12 13 13 13 14 14 16 16 11 7 9 14 17 16 15 17 19 19 17 17 17 17 18 18 16 15 14 12
7 6 5 4 3 3 3 3 5 5 6 6 7 8 11 14 15 15 16 17 18 17 15 12 11 16 21 23 21 20 22 23 21 18 17 19 19 15 10 9 12 15
12 10 9 7 4 2 1 3 4 6 7 8 8 10 12 14 15 16 17 18 19 17 15 15 16 16 20 25 26 25 25 25 25 22 17 16 15 9 5 7 11 16
17 15 13 11 9 7 5 5 4 5 6 7 8 10 12 14 15 16 16 17 19 18 16 16 18 19 21 25 27 26 26 27 29 27 21 17 15 11 9 10 12 16
18 18 17 15 13 11 10 9 7 6 6 6 7 9 11 13 14 15 16 17 19 20 18 18 21 23 25 28 28 27 26 27 30 29 25 20 18 14 13 14 15 17
16 16 17 16 15 14 14 12 11 10 10 9 8 9 10 12 13 14 16 17 19 20 20 20 22 23 24 27 29 29 28 27 29 28 23 19 18 17 15 15 16 17
14 14 14 14 14 14 14 14 13 12 12 13 12 12 12 12 13 14 16 17 18 19 19 20 20 21 22 24 28 31 30 28 28 25 21 19 18 17 16 15 15 17
14 15 15 14 13 14 14 14 14 14 14 15 15 16 15 15 15 15 15 15 16 16 18 20 20 20 22 24 26 27 27 28 28 24 20 18 17 16 16 15 15 15

ECMWFNIL_925_spd_033.txt.gz
Wind_Speed
24 23 22 20 18 17 17 15 13 12 13 14 15 16 14 12 9 9 11 11 9 8 10 11 11 10 12 13 11 11 12 14 15 16 14 14 14 14 13 12 12 14
22 21 20 20 19 17 17 15 12 12 15 17 18 16 14 13 11 10 12 11 9 10 10 9 10 12 14 13 12 14 15 15 16 15 14 13 12 12 12 11 10 12
19 20 20 20 20 18 17 15 13 14 17 18 17 15 13 13 12 11 12 11 11 11 9 9 11 12 12 12 12 14 15 15 15 15 15 15 13 14 16 16 15 14
19 19 20 20 20 18 17 16 15 15 17 17 15 13 13 14 13 12 12 12 13 12 11 12 13 12 12 11 10 12 14 15 15 15 15 14 13 15 18 19 20 19
19 19 20 21 20 18 17 17 16 16 17 16 14 14 15 16 15 14 13 14 15 13 12 13 12 12 12 10 10 12 14 14 14 15 15 14 14 15 16 17 19 19
18 17 20 21 21 19 17 17 16 16 16 15 15 16 17 17 15 15 15 15 15 13 14 15 13 12 12 11 12 12 12 13 14 14 15 16 17 16 16 16 17 17
17 17 20 21 20 18 17 17 16 16 16 15 16 17 17 17 16 15 15 15 14 14 15 16 14 12 13 13 14 13 12 13 14 15 16 17 17 17 17 16 16 16
17 17 19 19 18 17 17 17 16 16 15 15 17 17 17 17 15 14 15 14 14 14 14 15 14 14 14 14 15 15 14 15 15 16 17 17 18 18 18 17 17 17
19 18 18 18 17 17 17 17 17 16 15 16 16 15 16 16 14 13 13 13 14 14 13 14 14 13 13 15 15 14 15 16 16 15 17 18 19 18 17 17 17 16
20 20 18 18 17 15 16 18 17 16 15 15 15 14 14 14 14 12 12 13 15 14 13 14 14 12 14 16 14 12 17 20 18 16 18 19 19 17 16 15 16 15
21 19 17 17 16 13 15 17 15 15 15 14 13 13 12 12 14 12 11 14 15 13 14 15 14 12 15 16 13 13 19 21 19 18 19 19 17 16 15 15 15 15
12 12 11 13 14 12 14 16 14 14 15 13 12 12 10 11 13 12 11 13 13 13 15 15 14 13 16 17 15 14 18 20 19 17 17 18 18 16 15 14 13 14
6 10 11 11 11 13 15 15 14 14 14 12 11 11 10 10 12 11 11 12 12 13 15 14 13 14 16 17 17 16 17 18 18 16 14 16 18 16 15 14 13 14
11 15 14 9 8 11 13 13 13 13 13 12 11 12 10 9 11 10 10 11 10 11 15 15 14 15 17 17 17 17 17 18 18 16 14 15 17 16 15 14 13 12
12 14 14 10 8 10 11 11 11 11 12 11 10 12 12 9 10 10 8 9 9 9 13 16 15 16 18 17 16 17 17 17 18 18 16 16 16 16 16 15 14 14
12 12 13 10 8 8 8 8 9 9 11 10 8 10 12 11 10 10 9 9 10 8 10 16 18 17 18 18 16 17 18 17 17 18 17 17 16 17 17 17 17 16
8 7 7 5 5 6 6 5 6 7 10 11 9 7 10 11 11 10 9 10 12 11 9 13 18 20 19 19 18 18 19 19 18 17 17 16 16 17 18 19 19 18
9 8 6 3 2 2 2 2 4 6 7 10 10 7 6 8 10 11 10 10 12 14 12 12 15 18 19 19 20 20 19 20 19 18 17 17 17 17 18 20 21 21
11 10 7 5 3 3 3 1 4 6 5 7 9 8 7 7 9 11 12 11 11 13 14 14 14 15 16 16 19 20 19 19 19 18 18 19 18 18 19 21 22 21
20 16 13 8 6 5 5 5 7 6 5 5 6 8 9 10 10 12 14 14 14 14 15 17 17 17 16 16 18 19 19 18 17 15 16 19 20 18 19 20 21 20
24 23 21 19 15 12 8 4 1 3 4 5 5 6 7 9 10 11 13 15 17 17 18 20 21 21 21 20 20 20 20 20 18 15 13 16 19 20 19 18 19 21
22 21 20 20 19 19 18 16 13 9 5 4 6 6 7 8 9 10 12 14 15 17 18 20 22 22 23 23 23 24 24 24 23 20 17 16 16 18 20 21 20 21
18 19 19 19 18 18 18 17 16 14 13 11 9 8 8 9 10 12 13 13 14 16 17 19 21 22 23 23 24 24 26 26 27 26 23 19 16 16 19 20 21 21
15 16 17 18 17 17 17 17 16 15 14 14 13 13 12 11 12 13 15 15 16 18 18 19 20 20 20 22 23 24 26 27 28 28 25 21 18 18 18 19 20 22
15 15 17 18 19 19 18 18 17 17 16 16 16 16 15 15 16 15 15 17 18 20 21 21 20 19 19 21 22 23 25 27 28 29 27 23 20 20 19 18 18 21
17 17 18 19 20 20 20 19 19 19 19 20 19 20 20 20 20 19 19 19 19 20 22 24 23 22 20 21 22 23 25 27 28 28 29 28 24 22 21 21 22 22

ECMWFNIL_925_spd_036.txt.gz
Wind_Speed
22 22 21 19 19 19 18 15 14 13 13 13 12 11 9 9 9 9 10 10 10 9 9 10 10 8 7 8 7 8 7 8 8 8 7 7 8 9 9 11 13 16
19 20 20 18 18 18 16 14 13 13 14 14 13 12 12 11 10 11 11 10 9 9 9 10 11 9 8 8 8 9 9 10 10 9 9 8 8 8 8 9 10 13
17 20 19 17 17 17 16 14 12 13 14 15 15 14 13 13 12 12 12 11 10 9 9 11 12 10 8 9 10 11 11 11 11 9 8 8 7 7 7 7 8 9
17 20 19 16 17 16 15 14 12 13 16 17 16 15 14 13 12 13 12 11 11 10 11 13 13 11 10 10 12 13 13 12 10 9 8 7 6 7 7 7 7 8
17 21 18 16 16 16 16 14 12 14 17 18 16 14 13 12 13 13 12 11 12 12 13 14 13 11 11 12 12 13 13 12 11 10 10 9 9 10 10 10 10 9
18 21 19 18 17 16 15 13 12 15 17 16 14 12 12 12 13 13 12 12 14 14 13 13 12 11 12 12 13 13 13 13 11 11 12 13 14 15 15 14 14 13
18 19 18 18 17 15 14 13 13 15 15 13 12 11 12 13 12 12 12 13 15 13 12 12 12 11 11 12 14 14 14 13 12 13 15 17 17 16 16 16 17 18
16 19 20 19 18 15 14 14 14 14 14 11 11 12 12 12 11 11 13 14 14 13 12 11 11 11 11 12 14 14 14 13 13 15 16 17 17 16 16 16 17 19
5 10 16 18 19 16 14 14 14 14 13 11 11 13 13 12 11 11 12 12 12 14 14 12 11 11 12 13 14 13 14 14 14 15 16 16 16 17 18 18 18 18
6 7 11 13 15 15 15 14 13 14 12 11 13 15 15 15 13 12 12 12 12 13 14 13 12 12 12 13 12 12 13 15 17 17 16 17 18 18 18 18 19 18
11 13 13 10 8 11 14 13 12 13 12 12 14 16 17 16 14 14 13 13 13 12 12 13 12 11 11 12 12 12 13 15 17 17 16 17 17 16 17 18 18 17
12 13 11 8 7 10 12 12 13 13 13 13 14 15 16 16 15 15 15 14 14 12 12 13 12 10 12 13 12 13 15 15 15 16 16 17 17 16 16 16 15 16
12 12 9 8 10 11 12 13 13 13 13 14 14 13 13 14 16 16 15 15 15 14 13 14 13 12 13 14 12 13 17 17 15 16 18 18 18 17 16 15 14 15
12 14 12 11 11 12 14 15 13 12 13 12 13 14 13 13 16 16 13 15 16 15 15 16 15 13 14 14 13 15 19 19 17 18 19 19 18 18 17 15 15 16
11 14 15 13 11 11 13 13 12 11 11 12 13 13 11 12 16 15 12 14 17 17 16 18 16 14 14 16 15 16 19 20 19 18 18 19 19 18 18 17 16 17
9 11 10 8 6 7 8 11 12 9 7 11 14 14 12 11 13 13 10 12 16 17 18 20 19 16 16 17 17 18 18 19 21 19 17 19 21 20 19 18 17 17
6 7 6 4 4 6 9 11 13 11 8 7 8 11 14 13 12 12 11 11 12 13 14 19 22 20 19 19 19 19 19 20 21 21 18 18 21 22 21 20 19 19
7 6 4 2 2 4 7 6 7 11 11 9 5 5 9 11 11 11 12 11 11 11 10 14 19 22 22 22 21 21 20 20 22 22 21 20 21 22 21 21 21 21
14 13 10 7 6 3 1 2 5 9 11 9 5 2 2 4 6 8 9 10 10 10 10 10 13 19 21 22 24 24 24 23 23 24 24 24 24 23 23 23 24 23
22 21 19 16 14 13 12 9 6 2 2 4 3 3 5 5 5 5 7 9 10 11 11 10 10 13 16 18 21 24 25 26 26 27 27 27 27 26 26 26 26 27
22 21 20 19 18 17 17 17 15 13 12 9 5 3 6 6 6 6 8 9 11 12 14 16 15 13 13 14 16 19 22 24 24 26 27 29 29 29 29 28 29 30
20 20 19 19 18 17 17 17 17 16 15 13 10 7 6 5 5 5 7 10 11 12 13 16 18 18 17 17 17 18 20 21 22 22 23 25 27 29 29 30 31 32
20 20 20 19 19 19 19 19 18 17 16 15 13 12 11 10 10 9 8 9 11 13 14 15 15 16 17 18 18 20 21 22 23 23 23 24 25 25 27 29 32 32
20 20 21 21 21 21 21 21 20 19 18 17 16 16 15 14 13 12 11 10 11 12 14 17 18 17 17 17 18 19 21 22 23 25 25 25 25 25 25 27 29 30
20 20 20 20 20 21 21 21 21 20 19 18 18 18 17 17 16 15 14 13 13 13 14 15 18 19 20 20 20 20 21 22 23 24 25 26 26 27 27 27 27 28
18 18 18 18 19 18 18 19 19 19 20 20 20 20 20 19 18 18 18 17 16 16 17 17 18 19 20 21 22 23 24 25 25 25 26 27 28 28 27 28 29 30

ECMWFNIL_925_spd_039.txt.gz
Wind_Speed
24 24 23 23 21 18 16 15 13 12 11 9 8 8 7 6 6 7 7 7 7 7 8 8 6 3 3 5 6 6 6 6 7 7 7 8 8 10 13 15 16 17
24 24 23 22 20 17 15 14 12 11 10 8 8 8 7 6 6 6 7 6 6 6 7 8 5 2 2 5 6 7 6 6 7 7 7 7 8 9 10 13 15 17
24 23 22 20 18 16 14 13 12 10 10 10 10 8 6 5 6 7 7 5 4 5 7 8 5 2 2 4 6 7 7 7 8 7 7 7 7 7 7 9 12 15
22 21 19 17 15 15 14 13 12 11 11 12 11 9 7 5 6 8 7 6 5 4 6 8 6 2 1 3 5 7 8 8 8 7 7 7 7 7 7 8 10 13
17 17 15 14 15 16 15 13 12 11 12 13 12 10 8 7 7 8 8 7 6 5 7 9 7 4 2 3 4 6 7 8 7 6 7 7 8 8 8 9 10 12
13 13 12 13 15 16 15 13 11 11 12 12 12 10 8 7 7 8 8 7 6 6 8 10 8 4 4 4 5 5 6 6 6 5 6 7 8 8 9 10 11 13
16 16 15 14 15 15 14 12 10 9 11 12 11 9 7 7 7 7 7 6 6 7 8 9 6 4 5 5 6 6 6 5 5 6 6 8 9 10 10 10 11 14
20 20 17 14 14 14 13 11 9 9 10 11 10 8 7 7 6 6 6 6 7 7 6 7 5 5 5 5 6 7 6 6 6 7 8 10 11 11 11 10 11 14
20 20 16 14 14 14 12 11 10 10 10 9 7 6 6 6 5 5 5 6 8 6 5 6 6 6 6 6 7 8 8 7 7 9 11 12 12 12 12 10 11 14
21 21 18 15 15 15 13 13 11 10 9 7 5 6 7 6 5 5 4 5 7 7 7 6 6 7 7 7 8 8 9 8 8 10 11 12 12 12 12 12 14 16
21 22 19 17 17 16 13 13 12 10 8 5 6 7 9 8 7 7 5 4 5 7 8 8 7 7 8 8 9 9 9 9 9 10 11 10 11 12 13 14 15 18
20 21 19 16 16 15 13 12 12 11 8 6 6 8 9 8 7 7 6 5 4 6 8 9 9 8 8 9 9 9 8 9 11 12 10 9 10 10 11 12 13 15
19 18 17 14 13 13 13 12 13 13 11 9 8 9 9 8 8 7 7 6 6 7 7 8 9 9 9 8 9 9 8 9 11 12 11 9 9 9 9 10 11 12
17 16 16 15 14 15 15 14 13 13 11 10 10 10 9 9 8 8 9 9 10 10 9 9 10 10 10 10 9 10 10 10 11 12 11 11 11 11 10 10 9 10
15 14 15 15 14 14 13 11 10 10 8 7 8 9 10 9 9 9 11 12 13 13 13 12 12 12 12 12 12 11 11 12 12 12 12 12 13 14 13 12 11 10
13 13 14 14 13 11 9 8 8 7 5 3 2 4 7 8 8 9 11 12 12 14 16 16 15 14 14 13 13 13 12 12 14 13 13 13 14 15 15 15 14 13
14 13 13 12 11 11 10 9 8 5 4 3 1 1 2 3 4 7 10 10 9 10 14 17 17 17 15 14 14 15 15 14 15 15 15 14 15 16 16 17 17 16
19 17 15 14 12 10 9 7 4 3 3 4 3 1 1 2 3 3 6 8 9 9 11 13 15 17 18 17 15 15 17 17 17 18 18 18 17 17 17 18 18 18
27 26 24 22 19 15 13 11 9 5 3 2 1 2 2 1 2 4 6 7 7 8 8 9 10 12 16 19 19 18 18 19 19 19 20 20 21 20 19 19 19 20
30 30 28 27 25 22 20 18 17 14 11 8 6 3 1 1 2 5 8 9 8 8 8 8 7 8 10 15 18 20 21 22 23 23 22 22 22 23 23 22 22 22
28 27 27 25 24 24 22 21 20 19 17 15 13 10 6 3 2 5 8 8 9 9 9 9 8 8 8 10 12 15 17 19 22 24 25 25 25 25 26 25 25 25
26 25 25 24 23 22 22 21 20 19 17 16 14 12 10 7 6 6 7 7 8 8 9 10 9 9 11 11 12 13 15 16 18 20 22 24 26 27 28 29 29 29
27 26 25 23 22 22 22 21 19 18 17 15 13 12 11 9 8 8 9 10 9 9 10 10 9 9 11 13 13 14 15 17 18 20 21 22 23 25 26 28 30 31
26 26 25 24 23 22 21 19 18 17 16 15 14 13 12 11 11 10 10 10 10 10 11 12 11 11 11 12 13 14 15 16 17 19 22 23 24 25 25 26 27 29
23 23 23 23 22 21 20 18 17 16 15 14 14 13 13 13 12 12 12 11 12 12 12 13 14 14 13 13 14 14 16 17 17 18 20 22 24 25 26 26 26 27
21 21 20 20 19 18 17 16 15 14 14 14 14 13 13 13 13 14 13 13 13 13 13 13 15 16 16 15 16 16 17 18 18 18 19 21 23 24 26 26 26 26

ECMWFNIL_925_spd_042.txt.gz
Wind_Speed
18 19 20 20 20 19 18 18 17 16 15 13 12 11 10 8 6 6 5 4 4 3 3 4 2 0 1 2 3 4 5 6 7 8 9 9 8 7 7 10 13 13
20 20 20 20 20 19 18 17 16 14 13 11 10 9 8 7 5 5 5 4 4 3 3 4 2 1 2 2 1 2 3 5 6 7 7 7 6 6 6 8 11 12
21 21 20 19 19 19 18 17 15 14 12 11 10 8 7 6 5 5 5 4 2 1 2 3 2 1 3 3 2 2 2 3 5 5 5 5 5 4 5 7 10 11
20 20 19 18 18 18 17 16 16 14 11 10 10 8 6 5 4 5 5 3 1 0 2 4 3 1 3 4 3 2 2 2 2 2 2 4 4 4 5 6 8 10
20 20 19 18 17 17 16 15 15 13 11 10 9 8 7 5 5 5 6 4 1 0 2 5 4 1 3 4 3 2 1 1 0 0 1 3 3 4 4 5 6 9
19 20 19 18 16 16 15 14 12 11 10 10 9 8 7 6 6 6 6 5 2 1 3 5 4 1 3 3 3 3 1 1 1 1 1 2 4 4 5 4 5 7
19 19 19 17 16 15 14 12 11 9 10 10 9 8 7 6 6 7 7 5 2 2 4 6 4 1 3 3 2 2 2 2 2 3 2 2 3 4 4 4 4 5
18 19 18 16 15 15 13 11 10 10 10 11 9 8 7 6 6 7 6 5 4 4 6 6 3 0 2 3 2 2 2 2 3 3 2 1 2 3 4 4 4 5
18 19 18 16 15 14 13 11 10 10 11 10 8 7 6 6 6 6 5 5 5 5 6 5 3 1 2 2 3 2 1 2 2 2 2 1 2 3 3 1 3 5
19 19 18 16 15 13 12 11 11 11 10 9 7 6 7 6 5 5 5 5 6 6 6 4 2 2 2 2 2 2 1 1 1 1 2 3 3 2 1 1 1 4
19 18 17 16 15 13 12 12 12 11 9 7 7 8 8 7 6 6 5 5 5 5 6 5 3 2 2 2 2 1 1 1 1 2 3 4 3 2 1 1 2 3
18 17 16 16 15 14 14 13 12 11 9 7 7 9 9 8 7 7 5 4 4 4 5 5 4 3 3 2 2 2 3 2 2 4 4 4 4 3 3 3 3 4
16 15 15 16 16 16 15 12 10 8 7 7 7 8 9 7 6 5 4 3 3 2 3 3 4 4 3 3 3 2 2 2 3 5 6 5 4 4 5 6 5 5
13 14 15 16 16 14 12 10 8 6 4 4 6 7 8 7 5 4 3 3 3 3 2 2 3 4 4 4 4 3 3 3 3 4 6 6 4 4 5 6 6 5
13 13 12 13 13 11 10 9 9 7 5 4 5 6 7 7 6 6 6 6 5 4 4 4 4 4 5 5 5 5 5 6 5 4 6 7 6 6 6 6 6 5
14 12 11 11 11 12 11 9 9 9 8 5 3 3 3 4 5 6 7 6 5 4 5 5 5 6 6 6 7 7 7 7 6 5 6 7 7 7 8 9 8 7
16 16 16 14 13 13 12 10 10 10 9 7 5 4 3 2 1 1 0 1 1 1 2 3 4 6 7 8 9 9 8 8 8 7 7 7 8 7 8 9 10 10
18 18 18 17 14 12 12 10 10 9 8 7 6 6 6 5 5 6 5 4 3 2 2 3 4 4 6 8 10 11 11 10 9 9 9 9 10 10 10 11 12 12
22 21 21 20 16 14 12 11 10 9 8 6 6 6 6 6 6 7 6 6 5 5 5 5 5 5 5 5 6 8 10 11 12 12 13 13 13 13 13 13 14 14
27 26 25 24 22 20 18 16 15 14 12 10 9 8 8 9 9 9 9 8 7 7 7 6 6 5 5 4 5 5 6 8 10 12 14 15 16 17 17 17 17 17
29 28 27 25 24 23 22 21 20 18 16 15 13 12 12 12 12 12 12 11 10 9 8 8 7 6 5 4 4 5 5 6 8 9 11 13 15 17 18 19 20 20
26 26 25 24 23 22 22 21 20 18 17 15 14 14 13 12 12 12 13 12 11 10 9 10 10 8 7 6 5 6 7 8 9 10 11 12 13 14 16 18 19 21
23 23 23 22 22 21 21 20 18 17 17 15 14 13 13 13 13 12 12 12 11 10 10 10 11 11 10 9 8 7 7 8 9 10 12 13 15 16 17 17 18 19
21 21 21 21 21 20 19 17 16 15 15 14 13 13 13 13 12 12 11 11 11 11 10 10 11 11 11 11 10 10 10 10 10 11 11 12 14 16 17 18 18 18
20 20 19 19 19 18 17 16 15 14 13 12 12 12 12 12 12 12 12 12 12 12 11 11 11 11 11 11 12 12 12 12 13 14 14 14 15 16 16 17 18 18
19 19 18 18 17 15 15 14 13 12 12 12 12 12 12 12 12 13 13 13 12 12 12 12 12 12 11 11 12 13 13 13 14 14 15 16 17 17 18 18 18 18

ECMWFNIL_925_spd_045.txt.gz
Wind_Speed
21 20 20 21 21 22 22 21 19 18 17 16 14 13 11 10 9 8 6 5 5 7 8 7 6 4 3 2 2 3 4 4 5 5 5 6 6 6 6 6 6 8
20 19 19 21 22 22 21 19 17 17 16 15 13 12 11 10 9 8 7 6 6 7 7 7 5 4 4 3 3 3 2 3 3 4 4 4 4 5 5 6 7 8
20 19 20 21 22 22 21 18 17 16 15 14 13 12 11 10 9 9 8 8 7 7 6 6 5 5 5 4 3 3 3 3 3 3 3 3 4 4 5 5 7 8
21 20 20 22 22 21 20 19 17 16 15 14 14 12 10 9 9 9 9 8 8 7 7 8 7 6 6 5 3 3 3 3 3 3 3 3 4 4 5 5 6 8
21 20 21 22 22 20 19 18 17 16 16 15 14 12 10 9 9 9 9 8 7 7 8 9 8 7 7 6 5 5 5 5 4 4 4 4 4 4 5 5 6 8
20 20 21 22 21 19 19 17 16 16 15 14 13 11 9 9 8 8 8 7 7 7 8 9 8 7 6 6 6 6 6 6 4 4 3 3 4 5 5 5 6 8
19 19 20 21 20 19 18 17 16 15 14 14 13 11 9 8 8 8 7 6 6 6 8 9 8 6 6 6 6 6 6 6 5 5 3 2 3 4 6 6 6 7
18 18 19 20 19 19 18 17 15 14 13 13 12 10 9 8 8 8 7 6 5 6 8 9 7 6 6 6 6 6 6 6 5 5 4 3 2 2 4 5 6 7
18 19 20 20 20 19 18 16 15 14 13 12 11 10 9 8 7 7 7 6 6 7 9 8 6 5 5 6 6 6 5 5 4 4 4 4 3 3 2 2 4 7
20 21 21 21 20 20 18 17 15 14 13 12 11 10 9 8 7 7 6 6 7 8 9 7 5 5 4 5 5 5 5 5 4 4 3 3 4 4 4 4 2 6
20 21 21 21 21 19 18 17 16 15 14 12 11 11 10 9 8 7 7 7 8 8 8 6 5 4 4 4 5 5 5 4 3 3 3 3 3 3 4 6 4 3
17 16 17 18 19 19 18 18 17 16 14 13 12 12 12 10 10 9 8 8 7 7 7 6 5 4 3 4 4 4 4 3 2 1 2 2 2 2 3 5 6 3
18 16 16 17 18 19 20 19 18 16 14 13 12 12 12 11 10 9 8 7 7 6 6 6 5 4 3 4 4 4 4 4 3 2 1 1 1 2 2 3 4 4
20 19 20 20 20 20 20 19 17 15 14 13 11 10 9 8 8 7 7 6 6 5 5 4 4 4 4 3 4 4 4 3 3 2 3 2 1 0 0 1 3 2
19 21 21 21 20 19 19 17 16 15 14 13 11 8 6 4 5 5 5 5 4 3 3 3 3 3 3 3 2 3 3 2 2 2 4 4 3 2 2 1 1 1
18 21 20 18 17 16 15 14 13 12 10 8 8 8 5 2 3 4 4 3 3 2 2 2 3 3 4 3 2 2 2 1 1 2 4 5 5 4 4 3 3 2
20 19 17 16 16 16 15 15 14 13 12 11 10 11 9 7 5 5 5 6 6 6 6 5 3 1 2 3 3 2 2 1 0 1 3 4 5 4 4 4 5 4
21 20 19 18 18 17 17 18 18 18 18 17 16 14 13 11 10 10 10 10 10 10 10 9 8 6 3 1 1 2 3 3 2 1 2 2 3 3 3 4 4 5
23 22 22 21 20 20 20 19 19 19 19 18 18 16 15 14 13 13 13 12 12 11 11 10 9 8 7 5 3 2 1 2 3 3 3 4 4 5 5 6 6 7
25 24 23 23 22 21 20 20 20 20 20 19 18 17 17 16 15 14 14 13 13 12 11 10 9 8 7 6 5 4 3 1 1 2 3 5 6 7 7 8 8 8
29 28 27 25 24 22 22 22 22 22 21 20 19 18 18 18 17 16 16 15 14 12 11 10 10 8 6 4 4 3 2 2 1 1 2 3 4 5 6 7 8 9
28 27 26 25 25 24 23 23 22 21 20 19 18 17 17 16 15 15 15 14 13 12 11 11 10 7 6 4 3 3 2 2 2 2 3 3 4 5 6 7 7 8
24 24 24 23 23 23 22 21 20 19 18 17 16 16 15 14 13 13 12 12 11 10 10 9 9 7 6 5 4 4 3 3 3 3 4 4 5 6 6 7 8 9
22 22 22 22 21 21 20 19 18 17 16 15 15 15 14 13 12 11 10 10 9 9 8 8 7 7 6 6 6 6 5 6 6 6 6 7 7 7 7 7 8 9
20 20 20 20 20 19 18 17 16 15 14 13 13 13 12 11 10 10 9 9 8 8 7 6 6 6 6 6 6 6 7 7 7 8 9 9 10 11 11 10 10 10
19 19 19 19 18 16 16 15 14 13 13 12 12 12 11 10 10 9 9 8 8 7 6 6 5 5 5 5 6 6 6 7 7 8 9 10 11 12 13 13 13 13

ECMWFNIL_925_spd_048.txt.gz
Wind_Speed
22 21 19 17 16 15 15 13 13 13 12 11 11 11 10 10 9 9 7 7 8 9 10 9 8 6 5 5 6 7 8 9 8 8 8 8 8 7 8 8 7 8
26 24 21 19 17 16 15 14 13 13 12 11 10 10 10 10 9 8 7 8 8 10 10 9 8 6 5 5 6 7 8 9 9 8 9 9 8 8 8 8 8 8
27 26 21 18 17 17 16 14 14 13 12 11 10 10 10 10 9 8 8 8 8 9 10 8 7 5 5 5 6 7 8 9 9 9 9 9 8 8 8 7 8 8
25 24 20 17 17 17 16 15 14 13 12 12 11 10 10 10 10 9 9 9 8 8 9 8 7 5 5 5 7 8 8 8 9 9 9 9 8 8 8 7 8 8
24 23 20 18 18 18 17 16 15 14 13 13 12 11 10 10 11 10 10 9 8 8 9 8 7 5 5 6 7 8 8 7 7 8 8 8 8 8 7 8 8 9
23 21 17 17 19 19 17 16 15 15 14 14 13 11 11 11 11 10 10 9 9 9 9 8 6 6 5 6 7 7 7 6 6 7 7 8 8 7 7 7 8 10
24 21 17 18 20 19 17 16 15 15 14 14 13 11 11 11 10 10 10 9 9 9 10 8 6 6 6 6 7 7 7 7 6 6 6 7 7 6 6 6 7 8
25 23 20 20 20 18 16 15 15 15 14 13 12 11 11 10 10 11 10 9 9 10 10 8 7 6 6 6 7 8 7 7 6 6 6 6 6 6 6 6 5 7
23 23 21 20 19 17 16 15 15 15 14 13 12 11 10 10 10 10 10 9 10 10 10 8 7 6 6 6 7 8 8 7 6 6 6 6 6 6 6 6 6 6
19 19 18 17 16 15 16 16 15 14 14 13 13 11 10 10 10 10 9 9 10 11 10 8 7 7 6 6 7 7 7 7 7 7 7 6 7 6 5 5 6 7
17 17 18 20 19 15 15 16 15 14 14 13 12 12 11 11 10 10 9 10 10 10 10 8 7 7 7 7 7 6 6 7 7 7 7 7 6 6 5 5 6 8
20 21 24 26 22 16 15 16 15 14 13 12 12 12 11 11 10 9 9 9 10 9 9 8 7 6 6 7 7 7 6 6 6 6 6 6 6 6 5 5 5 7
17 20 26 28 23 18 16 15 15 14 13 12 12 12 12 11 11 10 9 9 9 8 8 7 7 6 6 6 7 6 6 5 6 6 6 5 5 5 5 5 5 6
14 17 23 26 23 18 16 16 15 14 13 12 13 12 12 11 11 10 9 9 8 8 7 6 6 5 5 5 5 6 5 5 5 6 6 6 5 4 4 4 5 6
16 17 18 20 19 16 16 16 16 14 14 13 13 12 11 10 10 10 9 8 8 7 6 5 5 5 5 5 4 5 5 4 4 5 6 6 6 5 4 4 5 5
16 17 17 18 18 17 16 17 16 15 13 13 12 11 10 9 9 8 8 8 8 7 6 5 5 6 7 6 5 4 4 3 3 4 5 6 6 6 5 5 5 5
15 18 19 18 17 18 20 19 18 17 15 13 11 10 9 8 8 8 8 9 9 8 7 8 7 7 7 7 6 5 4 3 3 4 4 5 6 5 6 6 5 5
17 18 20 19 17 20 22 19 16 14 11 9 8 8 8 8 8 9 10 11 11 11 10 9 8 7 7 6 6 5 5 4 3 4 4 4 5 4 4 5 5 4
22 22 22 21 20 19 18 16 13 10 9 8 9 10 11 10 11 11 12 13 14 13 13 12 10 8 7 6 5 5 6 5 3 3 4 4 3 3 3 3 3 3
24 23 20 18 18 18 17 16 16 15 14 12 11 12 12 12 12 13 13 13 13 14 14 12 11 10 8 6 5 4 5 5 3 2 3 3 2 2 2 2 3 3
21 22 21 19 19 21 21 20 20 19 16 14 13 15 16 14 14 15 14 13 12 12 13 12 11 9 7 6 5 4 4 4 2 1 2 2 2 2 3 3 3 4
19 21 21 20 21 22 22 21 20 19 17 16 17 17 18 17 16 15 14 12 11 10 11 11 10 8 7 6 5 4 4 3 1 1 1 2 2 2 3 3 4 4
20 21 20 19 19 20 20 19 18 17 16 16 15 16 16 16 15 14 12 12 11 9 8 8 7 7 5 4 4 4 3 2 0 1 1 2 2 3 3 3 4 5
21 22 22 21 20 19 18 17 17 16 16 13 12 13 13 12 12 12 11 11 10 9 7 5 4 4 3 2 2 3 3 1 1 2 2 2 3 4 4 5 6 8
19 18 18 19 19 18 16 14 13 13 12 10 8 9 9 8 9 9 9 8 7 7 6 4 2 0 1 1 2 3 2 1 2 3 3 3 4 4 4 5 6 8
17 16 15 14 15 14 12 11 11 10 9 8 7 7 7 7 7 7 7 6 5 4 4 3 2 2 4 4 4 5 4 2 2 3 3 3 4 5 5 6 6 6

ECMWFNIL_925_spd_054.txt.gz
Wind_Speed
20 23 23 21 21 18 13 14 16 16 14 13 13 12 12 12 11 10 9 9 8 7 7 7 7 7 6 6 7 7 6 7 7 7 7 8 8 8 8 7 7 8
25 25 23 22 21 19 15 14 16 15 13 13 13 13 13 12 12 11 10 9 8 7 7 7 7 6 6 5 6 6 5 6 7 7 7 7 7 8 9 8 7 7
30 27 24 23 22 21 17 15 15 14 13 13 13 13 14 13 12 11 10 9 9 8 7 7 6 5 5 6 6 5 5 6 7 7 7 7 7 7 8 9 8 8
33 28 24 23 23 21 17 16 16 15 13 14 14 14 14 13 12 11 10 9 9 8 8 7 6 5 5 5 6 5 4 6 7 7 7 7 7 7 7 8 9 9
34 29 26 22 22 21 20 20 18 15 15 15 14 14 13 12 11 10 10 9 8 8 7 6 6 5 4 4 5 5 4 5 5 6 7 6 7 7 6 7 8 9
35 32 27 22 21 22 22 21 18 16 16 15 14 13 13 12 11 11 11 9 8 8 7 6 5 4 4 4 5 4 3 4 4 4 6 6 6 6 5 6 7 8
36 34 28 22 22 23 22 20 18 17 16 15 14 13 13 13 11 11 10 9 9 9 7 7 5 4 4 3 4 5 4 4 4 4 5 6 6 5 5 5 6 8
34 34 30 25 23 22 21 20 19 18 17 15 14 14 13 12 11 11 10 9 9 9 8 7 5 4 4 4 5 5 4 5 5 4 6 7 6 5 5 5 4 6
32 32 31 31 27 24 22 20 19 18 17 16 14 13 13 11 10 10 9 9 9 9 8 7 5 5 4 4 5 6 5 5 4 4 5 6 6 5 6 7 4 4
30 29 32 33 30 27 24 21 20 18 17 16 14 13 13 11 11 10 8 8 8 9 9 7 5 5 4 4 5 6 5 5 3 3 4 5 5 4 5 7 5 3
28 28 31 32 30 28 26 22 20 19 17 15 14 13 12 11 12 10 7 8 8 8 9 8 6 6 4 4 5 5 5 5 4 4 5 5 4 2 3 5 4 3
26 26 28 29 28 27 25 22 20 19 17 15 13 13 12 11 11 9 8 8 8 7 9 7 6 6 5 4 5 4 4 4 4 5 5 3 4 3 3 5 4 3
23 24 26 26 26 27 24 22 19 18 17 16 13 13 13 12 10 9 8 8 8 7 8 8 7 6 6 5 4 4 4 3 3 4 3 3 3 3 3 5 4 3
22 23 25 25 25 25 24 22 19 18 16 14 13 13 13 12 10 9 8 8 8 8 9 9 8 7 7 5 4 5 5 4 4 2 2 3 2 1 5 5 3 2
23 23 25 24 24 24 22 21 20 17 14 13 13 13 12 11 11 10 9 8 9 10 10 9 7 6 7 5 5 7 6 3 4 4 2 4 3 0 4 4 4 4
24 24 26 24 23 23 21 20 18 15 13 14 14 13 12 12 11 10 9 9 11 11 10 9 8 7 7 5 5 7 6 4 3 3 2 3 5 4 3 4 6 5
21 21 24 24 22 23 21 19 17 12 11 14 14 13 12 12 12 11 11 12 11 10 9 8 7 7 6 5 5 6 7 6 4 1 1 1 1 2 3 6 8 6
17 17 21 21 21 21 20 19 15 10 11 15 15 14 14 14 14 14 14 13 11 9 8 7 7 6 5 5 4 4 6 6 5 3 0 1 1 1 1 5 8 7
17 19 22 22 21 20 19 18 16 13 14 17 16 16 17 16 16 16 15 13 11 9 8 7 7 6 5 5 5 4 5 3 3 4 0 2 2 1 3 2 6 9
20 22 25 25 24 23 22 21 20 20 19 19 18 18 18 17 16 15 14 12 10 10 9 8 7 6 5 6 5 5 6 4 2 5 3 2 3 3 4 6 5 5
24 26 27 27 27 27 26 24 23 23 22 20 20 19 17 16 15 13 12 11 10 10 9 9 9 7 6 6 6 5 5 3 2 5 4 5 5 4 3 4 3 2
25 27 27 26 26 26 25 23 22 23 22 19 19 18 16 14 12 10 9 7 6 6 7 8 8 7 6 5 5 6 4 3 2 2 2 4 4 2 2 3 2 1
25 26 25 24 23 23 21 20 20 20 19 17 16 15 14 14 13 11 10 9 8 6 6 7 7 7 5 4 4 5 4 5 5 3 2 1 1 1 1 2 1 1
27 27 25 24 23 21 20 19 18 16 15 13 12 12 12 14 15 14 13 12 11 9 7 7 6 6 6 4 4 3 2 3 5 6 5 3 3 3 1 1 3 3
28 28 27 25 23 21 21 21 19 17 16 15 13 13 13 13 13 13 12 10 10 9 7 6 6 6 6 5 5 4 3 3 3 5 7 7 6 7 6 2 1 2
27 27 26 25 23 21 20 20 19 18 17 18 17 15 14 12 10 10 10 9 9 8 6 6 8 8 8 7 7 6 4 2 2 3 5 6 5 8 9 6 2 1

ECMWFNIL_925_spd_057.txt.gz
Wind_Speed
32 33 30 27 26 24 22 22 23 23 23 23 23 21 19 19 19 19 18 17 16 14 15 15 14 15 14 14 14 12 14 14 14 15 14 13 13 12 12 12 12 14
30 32 33 29 26 24 22 22 23 23 24 24 23 21 20 19 19 19 18 18 17 14 15 16 14 14 14 15 15 14 15 15 14 14 14 13 13 13 13 12 12 13
26 29 33 32 29 27 23 23 23 23 24 24 22 21 21 19 18 17 18 18 17 16 16 15 14 13 13 14 14 14 14 14 13 12 12 13 12 13 14 12 12 13
25 25 29 31 31 29 26 25 23 22 23 23 21 22 21 19 18 18 18 17 17 17 16 14 14 13 13 13 12 12 12 13 13 12 11 12 11 11 14 13 12 13
26 24 26 28 29 28 26 27 25 22 24 23 23 23 22 20 19 18 17 17 17 17 16 15 13 11 13 14 11 10 11 11 13 12 11 11 11 10 12 13 13 13
26 24 24 26 27 26 26 26 25 24 25 25 25 24 22 20 19 18 17 17 17 16 16 15 12 11 13 13 10 10 10 10 12 12 11 12 11 10 10 12 14 14
25 25 23 24 26 27 26 25 25 27 27 26 25 24 22 20 19 18 16 15 16 16 15 14 12 11 12 12 11 10 10 10 10 11 11 11 11 10 10 12 13 13
23 24 23 24 26 28 27 25 26 28 27 26 25 22 21 19 18 19 16 15 16 15 15 14 11 10 11 12 11 9 10 11 10 11 11 11 11 11 11 11 11 11
22 24 23 24 27 28 27 26 28 27 25 24 22 20 20 18 18 18 16 16 16 14 14 13 11 10 10 11 10 8 10 11 9 10 11 11 13 12 12 12 10 10
22 25 25 24 27 28 28 28 28 25 23 21 19 19 20 19 18 18 16 16 15 13 14 14 12 11 9 10 10 9 10 9 7 9 11 11 12 11 12 13 11 11
21 26 26 26 26 26 29 31 27 25 23 20 20 20 20 19 18 16 16 15 14 14 15 14 12 10 9 9 10 8 8 7 7 9 10 9 8 8 12 13 11 11
24 25 24 25 24 20 26 31 28 26 23 22 22 21 20 20 18 16 15 14 14 16 17 14 11 9 8 10 10 8 8 8 7 8 9 9 8 9 12 12 9 8
29 24 18 22 24 18 24 32 29 26 25 22 21 20 21 21 18 16 15 13 15 19 17 14 12 9 8 11 11 9 8 9 9 8 9 8 8 10 12 10 7 5
29 23 15 20 24 20 23 31 28 26 25 22 20 20 21 21 17 16 16 15 17 19 18 16 13 10 10 12 11 9 9 10 9 8 8 9 9 9 10 9 6 4
23 22 17 19 24 22 24 29 28 26 24 21 20 20 19 18 17 16 17 18 20 20 19 17 15 13 12 11 10 11 10 9 8 6 6 7 8 8 8 7 7 6
20 22 17 16 22 24 22 25 26 24 22 22 21 20 18 17 17 17 19 21 22 21 20 18 16 14 14 12 12 12 11 8 7 6 4 3 5 8 10 9 8 8
21 23 19 17 23 24 22 24 25 23 23 22 20 20 18 17 19 21 22 22 22 20 19 18 16 14 13 13 12 12 11 9 6 6 6 3 2 7 10 11 10 9
24 24 22 21 24 25 24 26 25 23 22 20 19 22 21 19 21 23 23 21 20 19 18 16 15 13 12 12 12 12 12 9 7 5 5 4 5 7 11 12 12 12
27 25 23 22 21 20 23 26 26 24 24 22 23 25 24 23 23 22 21 20 18 17 16 15 13 12 11 11 10 11 12 10 8 6 4 5 9 11 11 12 13 15
25 25 24 23 21 20 22 26 27 26 27 26 26 25 24 23 22 21 21 19 17 16 16 15 13 11 10 10 9 9 9 9 9 10 9 11 14 15 13 11 12 14
22 26 27 26 26 25 25 27 28 27 27 27 27 26 24 23 21 21 21 19 17 16 15 14 13 11 9 9 8 8 8 8 8 10 11 12 13 13 14 14 12 13
22 25 29 28 27 27 27 28 28 28 27 28 29 28 25 23 22 21 20 20 18 15 15 15 13 11 10 9 9 9 9 8 8 8 9 10 11 12 13 15 14 12
25 26 29 29 27 28 27 26 28 28 27 28 29 27 23 22 21 20 19 19 17 15 15 16 14 12 11 10 10 10 10 10 10 11 13 13 13 13 13 14 13 11
30 29 30 30 28 26 25 24 26 27 25 25 27 26 23 22 21 21 20 19 18 17 15 15 15 14 11 10 10 9 10 12 14 16 17 16 14 14 13 13 12 10
33 31 31 30 28 25 23 23 24 25 24 24 25 25 23 22 20 21 21 19 18 18 16 15 15 14 12 10 10 8 8 11 14 18 20 18 15 13 13 12 12 11
33 32 31 30 28 25 23 22 22 24 24 25 25 24 22 21 19 20 21 20 18 17 17 16 16 15 14 12 10 9 8 7 9 14 18 18 15 13 11 11 11 11

ECMWFNIL_925_spd_060.txt.gz
Wind_Speed
28 26 24 23 23 25 28 30 29 28 26 24 25 26 25 24 24 21 19 19 18 18 18 17 17 19 19 19 17 17 17 18 18 17 16 16 17 17 18 18 17 18
26 24 25 26 25 25 27 30 29 28 26 25 25 26 25 25 23 21 20 21 20 20 20 17 17 19 20 19 17 16 17 19 18 17 16 16 16 16 17 17 16 16
22 22 25 28 27 26 28 29 29 28 27 26 26 26 26 24 22 21 22 22 21 21 21 18 18 19 18 18 17 16 18 19 18 17 16 16 16 16 15 15 15 16
21 21 23 26 27 28 28 28 29 29 29 28 28 27 25 24 23 22 23 22 21 21 20 19 18 18 18 18 17 16 17 18 17 17 17 16 17 16 15 15 14 16
24 23 23 25 26 28 29 29 31 32 32 31 30 27 25 24 24 24 24 23 21 21 21 20 18 17 17 18 17 17 17 17 16 16 17 18 17 16 16 16 14 15
26 25 25 25 26 29 30 30 30 32 33 33 31 28 27 26 25 25 25 23 23 22 21 19 18 17 17 17 17 17 17 17 17 17 17 18 18 16 16 17 16 15
26 27 28 28 31 32 25 19 21 27 31 34 32 30 28 27 26 25 24 23 24 22 20 18 17 17 17 16 16 16 17 17 18 18 18 17 17 16 15 17 16 16
24 27 29 30 32 30 20 15 20 25 29 34 33 31 29 27 27 25 23 24 24 21 20 18 16 17 18 16 15 15 17 18 19 19 17 16 16 16 15 15 16 16
22 25 28 30 31 26 21 21 23 24 29 34 33 31 30 28 26 25 24 23 22 21 21 18 16 18 18 16 15 15 15 17 18 18 18 17 17 16 14 14 15 15
19 23 27 29 26 20 20 22 21 21 27 32 33 31 30 28 25 24 24 23 23 23 21 18 17 19 19 17 15 15 15 16 17 17 17 17 16 15 14 14 14 14
18 22 25 26 21 15 19 23 22 22 24 29 32 31 28 27 25 23 23 23 24 24 22 19 18 19 19 18 15 15 16 16 16 16 16 15 15 15 14 13 13 13
19 20 23 23 18 14 20 24 25 26 25 26 30 29 27 26 25 24 24 24 24 23 22 21 19 18 18 17 15 15 16 15 14 16 15 15 15 15 14 13 12 12
19 20 23 23 17 15 22 25 27 29 27 25 26 27 27 26 25 24 24 24 24 23 23 22 19 17 17 18 16 14 14 13 13 15 15 15 15 15 14 13 11 11
17 19 21 23 19 19 25 28 28 29 28 26 26 26 26 26 25 24 24 24 25 25 23 22 19 16 17 18 15 14 13 13 13 15 16 16 16 15 15 13 10 9
17 19 19 21 23 24 27 28 25 27 29 27 27 27 26 26 24 22 23 25 26 25 22 20 18 17 18 17 15 14 15 14 14 15 16 17 18 17 15 12 9 6
20 20 19 20 25 27 28 26 24 28 29 26 28 29 27 26 24 22 25 27 26 24 22 19 18 18 18 17 15 15 15 14 14 14 15 17 18 17 15 12 9 7
21 21 19 19 25 29 28 27 26 29 29 24 27 31 28 27 27 26 27 27 25 23 22 20 19 18 18 17 16 16 14 13 13 12 13 16 16 16 16 14 12 10
18 22 21 19 25 29 28 26 26 28 28 26 30 32 29 29 29 29 28 26 25 24 22 21 20 18 18 17 17 17 15 13 12 11 12 14 16 16 17 16 14 13
10 23 25 22 25 29 26 24 26 28 28 29 32 32 31 32 32 31 30 27 24 23 22 21 20 18 18 16 15 15 15 14 12 10 11 14 17 18 18 17 15 14
4 16 25 25 26 28 26 26 27 29 29 31 34 34 33 34 32 31 30 26 23 22 20 20 19 17 16 16 15 15 15 14 12 13 15 16 18 18 18 17 16 15
15 9 15 24 28 28 27 28 29 30 30 31 34 35 34 34 32 30 29 25 22 20 19 18 16 14 14 14 15 16 17 16 16 18 20 19 19 19 18 18 17 15
23 17 12 17 28 30 28 28 29 30 32 34 34 34 33 32 31 29 28 26 22 19 19 18 15 13 13 13 14 16 18 19 20 21 22 21 21 20 19 18 16 14
29 23 17 14 26 31 28 28 28 27 30 34 36 34 33 31 30 29 28 27 24 21 20 20 18 15 13 14 15 15 17 20 21 22 24 24 23 22 20 19 16 14
33 30 23 17 23 30 28 28 28 25 26 32 36 35 34 31 30 30 29 27 26 24 22 21 20 17 15 16 17 17 19 21 22 24 25 25 23 21 19 18 16 14
34 33 28 23 23 28 29 29 28 27 27 30 33 34 33 32 31 31 31 29 27 25 23 22 21 19 17 18 18 19 21 22 23 24 25 24 22 20 18 17 15 14
34 34 31 29 28 28 29 30 29 28 28 29 30 32 32 31 31 33 33 30 28 27 25 23 22 20 18 18 19 19 20 22 23 24 24 23 21 19 18 16 14 13

ECMWFNIL_925_spd_063.txt.gz
Wind_Speed
25 23 23 24 25 24 24 24 23 23 25 26 26 27 28 26 24 24 23 21 23 24 23 22 21 21 22 21 20 20 19 20 21 21 21 20 18 18 18 19 19 19
25 24 23 24 24 23 24 24 23 24 25 27 28 28 27 26 24 23 23 22 23 25 23 22 21 21 22 22 20 20 19 19 20 21 21 19 18 17 17 18 17 17
24 24 24 25 25 24 24 23 21 22 24 25 28 29 27 26 25 24 25 24 24 24 22 22 22 21 21 21 20 20 19 19 20 21 20 19 18 17 17 17 17 16
21 23 24 26 26 24 24 22 19 19 21 21 21 23 26 27 26 25 25 25 23 22 22 22 21 21 21 21 21 20 19 19 19 20 19 18 17 16 15 15 16 16
22 25 26 28 27 23 20 19 19 19 21 20 17 17 19 23 26 27 26 25 24 23 22 22 21 21 21 21 21 21 19 19 19 19 19 18 16 15 15 14 14 14
22 25 28 29 26 21 19 20 20 21 23 24 21 19 19 20 24 28 27 25 25 24 24 23 21 21 21 21 21 20 19 19 20 19 18 18 17 15 15 14 14 13
20 23 27 28 20 18 23 23 19 19 21 22 21 22 23 23 24 27 27 26 25 25 24 23 22 22 22 21 21 20 19 19 20 19 18 18 17 16 16 15 14 13
16 19 25 25 17 17 22 20 16 16 18 20 20 22 25 25 26 27 26 26 25 24 24 23 22 22 21 21 21 20 20 20 20 19 19 18 17 17 17 16 15 14
14 16 20 22 19 19 20 17 18 19 19 21 23 24 27 27 27 28 27 26 25 24 23 23 22 21 21 20 20 20 21 21 20 20 20 19 18 17 18 17 15 16
15 15 17 20 21 21 21 20 20 22 22 24 25 26 27 27 26 27 27 26 25 25 24 23 22 21 21 20 19 19 20 20 20 20 20 19 18 17 17 16 15 16
16 15 16 19 21 22 22 23 23 23 23 25 26 26 27 26 25 26 27 26 26 26 25 23 21 21 22 21 19 18 18 19 19 20 20 19 18 17 16 16 16 16
16 15 14 18 21 22 21 22 25 25 24 25 27 28 27 26 24 25 26 26 26 27 26 23 20 21 21 21 20 18 17 18 19 19 19 18 17 16 15 15 15 14
16 15 14 16 20 20 20 21 25 27 26 26 29 29 28 27 26 26 27 28 27 27 25 23 21 21 21 20 19 18 17 17 17 17 17 17 16 15 15 15 14 13
17 15 14 15 17 19 19 20 23 26 27 27 29 30 30 29 27 27 28 28 27 26 24 22 22 22 21 20 19 18 18 18 17 17 16 16 15 14 15 14 13 12
20 15 14 14 15 18 19 20 22 25 26 27 28 28 29 29 27 27 28 27 26 26 24 23 22 22 21 21 19 17 17 17 16 16 16 16 16 15 15 15 14 12
23 17 13 13 14 19 22 22 25 26 25 26 28 28 28 29 29 27 27 27 26 25 24 23 22 21 20 20 18 17 16 15 14 14 16 16 16 16 16 16 14 12
26 19 12 14 15 20 24 25 27 29 28 29 31 30 29 31 31 29 28 27 27 26 25 24 23 21 20 19 17 15 15 14 14 15 16 16 16 17 16 15 13 11
26 20 12 14 17 20 26 28 29 31 33 33 32 31 30 31 32 31 30 29 29 28 25 23 22 20 20 19 17 16 15 15 16 16 17 18 18 17 17 15 12 10
27 22 14 10 18 22 26 29 31 34 35 33 30 30 31 32 32 31 31 31 30 29 25 22 21 21 20 20 19 18 17 16 17 17 18 19 18 17 16 14 12 11
29 25 19 9 12 21 27 30 30 32 33 30 30 32 32 33 33 32 32 31 30 29 26 23 22 21 21 21 20 19 18 17 17 18 19 18 17 16 15 14 13 12
30 27 25 18 5 8 19 27 29 28 29 29 30 32 32 33 35 33 31 30 28 27 27 25 23 21 21 21 21 20 19 18 18 19 19 18 16 16 15 14 13 12
29 29 29 24 15 7 2 16 28 29 28 28 28 29 30 32 33 32 30 28 26 25 26 25 22 20 20 20 21 21 20 20 19 20 20 19 18 18 17 16 15 14
29 29 30 29 23 17 13 7 21 29 26 27 27 26 28 31 32 29 27 26 25 23 24 24 22 20 19 18 19 21 20 20 20 21 21 22 21 20 19 18 17 16
29 28 29 31 29 24 19 13 16 25 27 28 28 25 26 30 31 29 27 25 23 22 21 22 22 20 20 20 19 20 21 20 21 23 24 24 23 22 20 19 18 17
28 28 30 30 31 28 23 17 17 23 27 29 28 26 27 29 30 30 28 26 24 22 20 21 21 21 21 22 21 21 21 22 23 25 26 25 23 22 20 18 17 16
28 27 29 30 30 30 27 21 20 24 28 30 29 27 29 30 30 30 30 28 26 25 23 22 21 20 20 21 23 23 24 24 25 26 26 25 23 21 20 18 17 15

ECMWFNIL_925_spd_066.txt.gz
Wind_Speed
15 15 13 11 12 16 19 20 21 21 22 23 22 22 24 23 22 23 25 25 25 26 26 25 26 27 25 24 26 24 22 23 22 21 22 22 22 21 19 18 16 16
17 16 15 14 14 17 19 20 21 21 21 20 19 19 20 18 19 21 23 24 25 26 26 24 25 25 23 23 25 23 22 22 21 21 22 21 20 20 19 17 16 16
18 18 18 18 17 17 17 17 18 18 18 15 14 17 18 16 16 19 21 23 24 25 25 24 25 24 21 22 24 22 21 22 21 21 21 20 19 19 18 16 15 15
16 17 18 18 17 16 16 17 18 17 16 16 15 15 16 15 16 18 20 22 23 24 24 23 23 23 22 22 23 21 21 22 21 21 21 20 19 18 17 15 15 16
16 16 16 18 18 19 20 21 20 17 16 18 18 17 16 16 16 18 20 21 21 23 24 23 21 22 22 21 21 22 22 21 20 20 19 19 19 18 17 15 15 16
18 18 17 17 19 20 21 23 23 22 21 20 19 19 19 17 17 18 19 21 21 21 24 23 22 21 20 20 21 22 22 20 19 18 18 18 18 17 16 15 15 15
17 17 16 16 18 20 20 22 25 25 23 20 19 20 20 18 17 17 18 20 22 22 22 22 22 22 20 20 22 22 21 19 19 18 17 18 18 18 17 16 15 15
16 15 15 17 19 20 19 21 23 24 23 22 20 20 20 19 18 16 18 20 22 22 22 19 20 20 20 21 22 21 21 20 19 18 18 19 19 19 18 17 16 16
16 14 14 17 19 20 20 22 23 23 24 23 21 21 22 20 19 18 20 22 22 22 22 19 19 20 20 20 21 21 21 21 20 19 19 20 21 20 19 18 17 16
16 14 14 16 18 18 20 22 23 24 23 22 21 21 22 21 20 20 21 22 23 23 22 20 21 22 21 21 21 21 21 21 20 19 20 21 21 20 19 18 17 16
18 15 14 14 15 18 20 21 23 25 24 22 21 21 22 22 21 22 23 24 24 23 22 21 21 23 23 22 22 22 21 21 20 20 20 20 20 19 18 17 17 16
21 19 17 15 13 14 19 22 23 24 24 23 22 22 23 23 24 23 24 25 25 23 22 21 22 24 24 23 23 22 21 21 20 20 20 20 19 19 17 16 15 15
22 22 21 17 13 12 16 21 25 25 24 23 23 23 23 24 25 24 24 25 25 24 23 22 23 25 24 23 22 21 21 20 18 19 19 19 19 18 16 15 15 14
23 21 21 19 14 13 15 20 24 26 24 23 24 25 25 25 25 25 25 25 24 23 22 22 24 25 23 22 22 22 21 19 18 18 18 18 18 17 16 16 14 14
25 24 22 20 16 14 16 20 24 25 23 24 26 27 26 26 26 27 26 25 25 24 22 23 25 26 23 22 23 23 21 19 18 18 17 17 17 16 16 16 15 14
28 26 24 22 18 15 17 20 24 25 24 26 27 28 29 28 28 28 28 27 27 25 24 25 27 26 24 23 23 23 22 20 19 17 17 16 17 17 16 15 14 13
31 29 27 24 20 17 17 21 23 25 26 28 28 29 30 30 30 30 30 29 29 27 26 27 28 26 25 24 23 22 21 20 19 18 17 17 17 17 16 14 13 12
32 31 29 26 22 18 17 20 23 25 26 27 28 29 31 32 33 33 31 30 29 28 27 28 27 27 26 26 24 22 20 19 19 18 18 18 18 17 16 15 14 12
32 31 30 27 23 19 16 17 20 25 27 27 28 30 31 31 32 33 32 30 29 28 28 27 27 27 26 25 24 22 20 19 19 18 18 18 18 17 17 17 15 14
33 31 29 28 25 20 17 14 13 17 22 25 27 28 28 28 30 32 31 30 28 28 28 28 27 26 25 24 23 21 21 20 19 19 18 18 18 18 18 17 16 14
34 32 29 27 25 22 18 15 12 8 7 12 17 22 24 25 26 27 28 28 28 28 28 28 27 25 25 24 23 22 21 21 20 20 19 19 19 19 18 17 15 14
32 31 29 27 25 24 22 20 16 11 7 2 6 15 20 20 19 20 21 23 24 26 26 25 24 25 24 24 24 24 22 21 21 21 21 20 20 19 18 16 15 15
31 30 28 27 26 25 24 22 19 16 12 9 7 10 15 15 14 15 15 16 18 21 24 24 22 22 23 24 25 26 24 23 23 22 21 21 20 19 18 17 16 15
30 29 28 27 26 26 25 24 22 20 17 16 14 14 17 19 18 18 16 14 14 14 16 21 21 20 22 23 24 25 26 25 25 23 23 23 22 21 20 19 17 16
30 28 27 26 25 25 26 26 25 23 21 21 19 19 23 26 25 24 24 20 18 18 16 17 19 19 19 20 21 23 24 25 26 26 25 25 24 24 22 21 20 19
30 28 26 25 23 24 25 26 27 26 26 26 22 20 26 32 31 29 29 27 24 22 21 20 19 17 14 15 18 21 23 24 26 27 28 28 26 25 25 23 22 21

ECMWFNIL_925_spd_069.txt.gz
Wind_Speed
10 11 11 10 9 10 11 12 12 11 13 13 12 15 18 17 16 18 21 21 21 22 21 22 23 24 25 25 25 23 21 20 18 17 22 25 22 19 18 18 19 20
9 9 10 10 9 9 10 11 11 12 13 13 11 12 16 19 18 17 19 21 22 24 24 23 23 23 24 24 24 22 21 20 19 17 20 23 22 21 20 20 20 18
9 8 8 8 9 9 10 12 12 12 12 12 10 10 13 17 18 16 18 20 22 23 23 23 23 21 20 20 22 24 21 18 18 18 19 21 21 20 19 20 21 18
9 7 7 8 8 8 9 10 11 11 11 11 11 11 12 15 16 17 18 20 22 23 23 23 23 22 21 19 19 22 22 19 18 17 18 20 20 18 17 19 21 19
11 9 8 7 8 8 9 10 10 10 11 12 13 13 13 13 14 17 19 19 21 23 24 24 25 25 25 23 21 21 19 18 17 16 19 19 17 18 18 18 20 20
13 12 10 8 8 8 9 9 9 10 11 12 12 13 12 13 14 16 18 18 19 23 25 25 24 24 25 25 23 21 18 16 17 18 19 17 15 17 17 16 19 20
15 14 12 10 9 9 9 9 9 10 11 12 12 13 13 13 14 14 16 17 18 21 25 25 24 24 25 23 20 20 19 16 17 19 19 15 14 17 17 17 20 19
18 16 14 13 10 8 9 9 9 9 10 12 12 13 12 12 13 13 14 15 17 20 23 25 25 25 24 23 22 21 19 16 17 21 20 16 15 18 19 20 20 17
20 19 17 16 13 10 10 10 10 10 10 12 13 13 12 13 14 14 14 15 16 21 25 26 26 25 23 24 24 23 20 18 18 19 20 19 17 18 19 20 20 17
22 21 20 18 16 14 13 12 12 11 12 12 12 12 12 12 15 16 15 15 17 21 26 27 27 26 24 23 23 22 21 21 20 19 20 21 20 19 19 20 20 17
22 22 21 21 20 18 16 15 14 13 13 12 12 12 12 11 14 16 15 16 18 21 26 28 27 26 24 23 22 21 22 22 21 21 22 21 19 19 20 21 20 18
21 20 20 20 21 21 19 17 17 15 14 13 13 13 12 12 14 16 16 17 19 21 25 28 28 26 24 24 23 21 21 22 22 22 21 20 19 19 19 21 21 18
21 21 21 21 21 22 20 19 18 17 15 15 14 14 14 13 14 16 17 18 18 19 23 28 29 27 25 25 24 22 22 22 22 21 21 20 20 19 19 19 20 19
21 21 22 23 22 22 21 20 18 17 16 16 15 14 14 14 14 16 17 18 18 18 21 28 30 27 27 26 24 23 22 22 22 21 21 20 19 18 18 19 19 19
21 20 21 22 23 24 25 23 20 18 17 16 16 16 16 15 15 18 18 19 19 18 21 28 29 28 28 27 25 24 23 23 22 21 20 19 17 16 17 18 18 16
21 20 21 23 23 24 26 26 22 20 18 17 17 18 18 16 16 18 19 20 20 18 21 28 29 28 28 27 25 24 23 23 22 21 19 18 19 18 15 14 15 13
21 21 23 24 23 23 24 26 25 21 18 18 17 19 20 18 17 19 20 21 20 18 23 29 29 27 28 26 24 23 22 22 22 20 19 19 19 19 16 14 14 14
22 22 24 24 24 24 23 25 26 23 19 17 17 19 21 20 20 22 22 22 21 21 26 30 28 27 28 26 24 23 21 21 21 20 20 20 19 20 19 17 16 16
22 22 24 25 25 24 23 23 24 24 22 20 18 17 17 19 22 24 23 21 23 25 28 28 27 27 28 27 25 22 20 20 20 20 20 20 20 20 20 19 18 17
22 23 23 25 25 24 23 22 21 21 21 21 19 16 13 11 14 20 22 21 21 24 25 26 26 26 27 27 25 22 20 20 20 20 20 20 20 21 20 19 19 19
22 23 24 25 25 24 23 23 21 20 20 20 19 16 12 8 5 9 15 17 18 20 21 21 22 24 25 26 24 22 21 20 20 19 20 20 21 22 21 21 20 20
21 22 23 24 25 25 24 23 22 21 20 18 17 16 13 9 6 2 4 9 12 16 17 16 15 17 21 22 22 22 22 21 20 19 19 20 21 22 22 22 21 20
20 21 22 23 24 25 25 24 22 21 19 18 17 17 16 14 11 8 5 3 7 9 10 10 10 12 15 17 20 22 22 22 21 20 20 20 21 22 23 22 21 20
19 20 20 22 23 23 23 23 22 20 19 17 17 18 17 17 16 15 13 11 10 9 9 9 8 9 12 16 18 20 22 23 23 23 22 22 22 22 23 23 22 20
19 20 20 21 23 23 22 22 22 21 20 19 20 20 20 20 20 20 20 20 18 17 16 15 14 12 12 15 17 19 21 23 24 25 25 24 23 23 22 22 22 21
21 24 24 21 22 23 23 23 22 22 23 25 26 26 26 24 24 24 25 25 23 24 24 21 19 16 13 12 14 17 21 24 26 27 28 26 24 23 22 21 21 21

ECMWFNIL_925_spd_072.txt.gz
Wind_Speed
7 7 8 10 10 10 11 11 10 10 9 10 10 10 12 13 12 11 12 14 16 18 18 19 21 22 22 22 21 21 21 20 19 19 20 20 19 19 18 19 19 16
8 9 10 11 10 10 11 11 11 10 10 11 11 11 11 12 12 12 12 12 15 18 17 16 20 23 23 23 22 21 21 20 19 20 20 19 19 19 18 19 19 16
10 11 12 12 12 12 12 12 11 10 11 12 12 11 11 11 12 13 14 13 14 18 20 19 20 21 20 21 20 20 20 18 17 19 20 20 20 19 19 19 19 18
12 12 12 12 11 12 12 12 12 11 11 12 12 11 11 11 11 13 15 15 15 17 20 21 21 20 18 18 19 20 20 18 16 17 20 21 20 19 18 17 17 18
14 13 13 12 11 10 11 11 12 12 12 13 12 12 12 12 12 14 15 15 15 16 19 21 22 21 19 17 19 20 21 21 19 18 20 20 18 18 17 16 17 17
15 14 13 12 12 11 11 11 11 11 12 13 13 13 13 13 13 14 15 15 15 16 17 20 21 22 20 18 18 19 19 20 21 20 20 20 20 18 17 17 17 17
16 15 14 13 13 12 12 11 11 11 11 12 14 14 14 14 13 13 14 14 15 15 16 19 21 22 20 18 18 19 18 18 19 19 19 20 21 21 20 18 17 18
17 16 15 15 15 13 12 12 11 11 11 11 13 14 15 15 15 14 14 14 15 16 17 18 20 20 19 18 20 20 19 18 19 20 20 21 22 23 24 21 18 18
18 17 16 16 16 15 14 13 13 12 12 12 12 13 14 16 16 15 14 14 15 16 17 18 19 19 18 19 20 21 21 21 21 21 20 21 23 23 23 21 18 18
19 18 17 17 17 16 16 15 14 13 13 13 13 13 14 15 15 15 15 15 16 16 17 18 19 19 19 19 21 21 22 22 21 22 21 23 26 24 20 22 22 20
20 20 19 19 18 17 17 16 15 15 14 14 14 14 15 15 15 15 15 16 17 17 19 20 20 19 20 21 22 21 21 21 21 21 21 24 28 25 22 24 24 22
21 21 21 21 20 19 18 17 16 15 14 14 14 15 16 16 15 15 16 17 17 18 20 21 21 20 20 21 22 22 21 22 22 21 20 23 26 23 22 22 20 21
21 21 21 22 21 20 19 18 17 16 15 14 14 14 15 15 14 15 16 17 17 19 20 19 19 20 20 21 22 22 21 22 24 23 21 23 25 23 21 21 18 19
21 21 21 22 22 21 20 19 18 17 17 16 14 14 15 15 14 15 16 18 18 19 19 18 18 18 19 21 22 22 22 23 24 23 22 22 23 22 20 19 17 18
21 21 21 22 22 22 22 20 19 19 18 17 16 15 14 14 15 16 16 19 19 18 18 20 19 19 19 21 22 22 23 23 23 22 22 22 22 20 19 17 16 18
21 21 22 22 23 23 23 22 21 20 19 19 19 17 15 13 15 16 16 18 18 17 18 19 20 20 20 21 23 23 23 24 23 22 23 23 21 19 17 15 16 17
22 22 22 23 23 24 24 23 23 21 20 20 20 19 19 16 14 15 16 17 18 17 17 18 20 20 20 23 25 26 26 25 24 24 23 21 19 17 16 15 16 16
22 23 23 23 24 24 24 24 24 23 22 22 20 21 21 19 17 16 15 17 18 18 17 18 20 21 20 23 27 30 30 27 25 23 21 19 18 18 17 15 14 15
23 23 23 24 24 24 24 24 24 24 24 23 21 21 21 20 19 18 16 15 16 17 17 18 20 20 20 22 25 30 32 29 25 22 20 19 18 17 17 15 14 15
23 23 24 24 24 24 24 24 24 24 24 22 21 21 21 20 20 20 18 15 13 13 14 16 18 20 22 24 25 28 31 31 27 20 17 18 17 16 16 15 15 16
22 23 24 24 24 23 23 24 24 24 23 22 21 20 20 19 18 19 19 17 14 12 11 11 15 20 23 26 26 27 28 29 26 20 17 18 18 17 16 15 15 16
22 22 23 23 23 23 24 24 24 24 23 21 20 19 18 18 17 17 18 17 15 12 10 9 12 17 21 24 24 25 26 25 22 20 20 21 19 18 17 16 15 14
21 21 22 23 23 24 24 23 23 23 22 21 20 20 19 18 17 16 17 17 16 13 10 9 10 13 16 20 22 24 25 24 21 20 22 23 21 19 17 17 16 13
21 21 22 22 23 23 23 23 22 22 22 21 20 20 20 19 18 17 17 16 17 16 13 9 8 9 11 15 20 22 23 23 21 21 23 23 21 20 18 19 20 18
21 21 22 22 22 22 21 21 21 21 21 20 20 20 20 19 19 19 18 17 17 17 15 13 10 7 6 9 15 20 22 22 21 21 23 23 21 19 18 18 18 18
20 21 22 22 22 21 20 19 19 19 19 19 19 20 20 19 19 20 20 20 19 19 18 18 16 12 7 4 9 16 19 20 21 19 19 20 20 18 17 16 15 14

ECMWFNIL_925_spd_075.txt.gz
Wind_Speed
13 14 14 16 17 17 16 15 14 14 15 17 16 15 13 12 11 11 12 13 13 14 14 15 20 24 27 28 26 23 23 25 24 22 22 22 23 22 20 22 21 17
15 15 15 16 18 19 17 16 15 14 14 17 17 16 16 15 13 12 12 12 13 15 15 15 18 23 25 24 22 22 21 24 25 22 19 20 21 22 21 22 24 22
16 16 16 16 18 19 19 17 15 14 13 15 17 17 16 17 16 14 12 12 13 14 15 16 18 21 23 21 21 22 23 25 25 21 20 20 20 21 22 22 21 22
16 15 16 16 17 19 20 18 16 16 14 14 16 18 17 16 17 16 13 12 14 15 15 17 18 20 21 22 23 23 23 24 24 22 21 18 18 20 22 21 21 22
16 16 15 16 17 18 20 19 19 19 18 16 16 18 19 18 18 17 14 13 15 15 16 17 18 19 21 23 24 23 23 22 21 21 20 18 20 21 21 23 23 24
17 16 16 16 16 18 19 19 20 21 20 17 16 17 18 20 20 18 16 15 16 16 16 17 18 19 21 24 24 23 23 23 20 20 20 19 21 21 21 23 23 24
17 17 17 17 17 18 18 18 19 21 21 20 18 17 17 20 20 18 16 16 17 17 17 17 17 18 20 23 24 24 24 23 21 20 20 18 18 20 22 24 24 25
18 18 17 18 19 18 18 19 20 20 20 21 20 20 19 20 20 18 17 17 18 19 19 18 18 19 19 22 24 26 25 23 21 21 22 20 18 20 24 24 25 25
18 18 18 19 20 18 18 20 20 20 20 20 21 21 21 22 21 19 18 18 20 21 20 20 20 20 20 20 22 25 26 24 22 22 24 25 23 23 24 23 22 24
19 19 19 20 20 19 20 20 21 20 20 20 21 21 21 22 23 21 19 20 23 22 19 20 21 21 22 22 22 24 25 24 24 24 25 26 26 25 25 24 23 23
20 20 20 21 21 21 21 21 21 20 21 21 21 22 22 22 23 22 20 20 22 22 20 19 20 22 23 23 25 26 25 24 24 24 24 24 25 26 26 25 24 24
21 21 21 21 21 21 21 21 21 21 21 22 21 22 23 23 23 22 22 22 22 22 20 20 20 22 22 22 24 25 24 22 21 21 22 23 24 26 26 24 22 23
21 21 21 21 22 22 22 21 21 21 21 22 22 22 23 24 24 24 23 23 23 23 21 20 20 21 21 21 22 23 22 20 18 19 22 23 23 24 24 22 21 22
21 21 21 21 22 22 22 22 22 22 22 22 22 23 23 24 25 26 25 24 23 23 22 21 21 22 22 21 22 24 24 21 20 20 23 24 23 23 22 21 24 25
20 20 21 21 22 22 22 23 23 23 23 23 23 23 23 24 25 25 26 26 25 23 21 21 22 24 22 21 22 23 23 24 24 22 21 22 22 22 21 20 24 26
20 20 21 21 22 22 23 23 24 23 23 24 24 24 24 24 25 25 26 27 26 24 22 22 22 22 22 21 22 23 23 24 23 19 18 20 20 20 19 19 22 24
21 21 21 21 22 23 23 23 24 24 24 24 24 25 25 24 24 25 25 26 26 25 24 24 22 21 23 25 24 23 22 23 21 18 21 23 23 22 19 18 21 22
20 21 21 22 22 23 23 23 24 25 25 25 25 25 26 25 25 25 25 25 25 26 25 24 24 22 20 22 23 24 23 23 22 21 23 24 23 22 20 18 19 19
21 21 21 22 22 23 23 23 23 25 25 25 25 25 25 25 25 25 25 25 26 27 27 25 24 23 22 19 18 21 22 23 24 24 23 22 22 22 21 20 19 17
20 21 21 22 23 23 23 23 24 25 25 25 25 25 25 25 25 25 25 25 26 27 27 27 26 25 26 24 20 18 18 20 23 25 23 22 23 24 23 24 23 20
20 21 21 22 22 23 23 24 25 25 25 25 25 25 25 24 24 25 25 25 26 27 27 29 28 28 28 27 24 23 20 19 20 22 22 22 23 24 25 25 24 21
20 21 21 22 22 22 23 23 24 25 25 25 24 25 25 24 24 25 25 25 26 27 28 30 30 30 30 29 27 25 23 23 21 21 22 24 23 22 22 23 22 20
20 21 21 21 22 23 23 23 23 23 24 24 25 25 25 25 24 25 25 25 25 27 28 30 31 30 30 30 28 25 23 23 21 20 22 24 23 19 15 15 16 18
20 21 21 21 22 22 23 23 23 23 23 24 24 24 25 25 25 25 25 24 24 26 27 29 31 31 30 30 27 24 21 19 18 19 21 21 18 13 9 12 13 14
20 21 21 21 22 22 22 22 22 23 24 23 22 22 23 25 25 25 25 25 24 25 27 29 31 31 31 30 26 22 18 16 14 14 14 13 13 12 10 12 13 13
20 21 21 21 22 22 22 22 21 22 23 24 23 22 22 23 24 24 26 26 25 25 26 29 31 32 33 31 25 20 16 12 9 6 7 9 10 11 12 11 12 12

ECMWFNIL_925_spd_078.txt.gz
Wind_Speed
17 18 17 17 17 18 19 21 22 21 20 20 20 20 17 17 19 18 17 17 16 16 16 15 16 18 20 21 20 22 25 24 23 24 25 26 28 28 29 29 28 26
16 17 16 17 17 18 20 21 21 22 23 23 21 21 19 18 18 18 18 19 18 18 18 17 17 18 20 21 19 20 23 23 23 23 23 25 28 29 29 29 29 28
17 18 17 17 18 19 20 20 20 21 23 24 23 22 21 19 19 20 20 19 19 18 19 19 18 18 19 20 21 22 24 23 24 24 23 25 28 29 29 29 28 28
19 19 18 18 19 20 21 20 20 20 22 23 24 23 23 21 21 21 20 20 22 21 20 20 19 19 20 20 21 24 25 25 25 24 23 26 27 27 28 28 28 28
22 21 19 20 20 21 21 20 20 21 22 22 24 24 24 23 23 23 22 22 24 24 22 22 21 19 19 20 20 22 24 24 23 23 24 27 28 27 27 27 27 27
22 21 20 21 21 21 20 20 21 21 22 22 23 23 23 23 24 25 26 25 24 25 25 25 24 22 21 21 20 20 21 21 21 22 23 25 27 28 27 26 26 27
20 21 21 22 22 21 21 21 21 21 21 21 22 23 23 23 23 24 26 27 26 27 25 24 24 26 24 21 20 19 19 20 22 24 24 24 25 27 26 25 25 26
20 20 21 22 23 22 22 23 22 22 22 22 22 22 22 23 23 24 25 26 27 27 26 23 23 25 24 21 20 20 20 22 23 23 23 23 24 25 25 25 25 26
21 22 22 23 23 22 23 24 23 23 22 22 22 22 22 22 22 24 24 25 27 26 25 25 23 23 23 22 21 21 21 23 23 24 24 23 24 25 26 26 26 24
23 23 23 24 24 23 24 24 24 23 23 23 23 23 23 23 22 22 24 25 27 26 26 25 24 25 25 23 22 21 22 23 23 25 25 24 24 25 27 26 26 26
23 23 24 24 24 24 25 25 24 24 24 23 23 24 24 23 23 23 23 24 27 29 29 28 25 26 27 25 24 23 23 24 24 24 25 24 24 25 26 26 25 26
23 23 24 24 25 25 25 25 25 25 25 24 24 24 24 24 24 24 23 24 26 29 29 29 28 26 25 26 26 25 24 23 23 23 24 25 25 23 25 27 27 27
22 23 23 24 25 25 25 26 26 26 26 25 24 24 25 25 25 25 25 25 26 28 28 28 28 25 24 27 29 28 26 23 22 22 22 23 24 24 24 26 27 28
22 22 23 24 24 25 25 26 26 27 26 26 25 25 25 26 26 27 26 26 27 29 30 29 26 23 27 33 34 32 30 26 22 22 22 22 23 23 24 26 26 27
22 22 23 24 24 25 26 26 27 27 27 26 26 26 25 26 26 27 27 27 28 29 30 30 27 25 32 38 37 35 32 29 25 21 21 23 23 21 22 24 24 25
21 22 23 24 25 25 26 26 26 27 28 27 26 27 26 26 27 27 28 28 29 29 30 29 26 28 35 39 37 35 33 30 26 23 21 22 22 22 23 25 25 24
21 22 23 23 24 25 25 26 26 27 27 27 27 27 28 27 27 28 28 28 28 29 30 29 27 31 40 42 38 34 32 30 27 24 21 20 21 22 22 24 24 24
21 21 22 23 24 24 25 25 25 26 27 27 27 27 28 28 28 29 28 28 29 29 30 30 28 33 43 45 40 35 31 28 26 24 22 20 21 21 21 21 21 21
21 21 22 23 23 24 24 25 25 26 27 27 27 27 28 28 29 29 28 29 30 30 31 30 29 37 47 47 41 36 32 27 25 24 23 22 20 19 21 24 23 20
21 22 22 23 23 24 24 25 25 26 26 27 26 27 28 28 29 29 29 30 30 30 32 31 30 40 51 48 42 38 33 28 24 22 22 23 21 18 19 23 23 20
22 22 22 23 23 24 24 25 25 25 25 26 25 26 27 27 28 27 27 30 32 31 32 31 31 41 52 50 44 41 34 29 25 21 20 21 21 20 19 21 20 19
22 22 22 23 24 24 24 24 25 25 25 25 24 24 26 26 27 27 26 29 32 33 34 33 33 42 51 51 47 43 36 31 27 24 21 20 20 19 19 21 20 19
22 22 23 23 24 25 24 24 25 25 26 26 24 23 25 26 27 27 26 28 30 33 35 34 35 43 50 51 50 45 38 33 29 25 22 21 19 19 19 20 20 21
21 21 22 22 23 25 24 24 24 25 26 26 24 23 24 26 26 25 25 27 29 30 33 33 35 42 48 51 51 48 41 36 31 26 24 22 15 11 10 13 16 19
20 21 21 22 23 24 24 24 24 24 25 26 25 24 23 24 25 25 24 27 28 29 32 33 34 40 46 49 51 51 46 40 35 31 28 26 21 16 11 5 5 10
19 20 21 22 23 24 24 24 24 24 25 25 24 24 24 24 25 25 24 25 26 28 31 34 34 38 44 47 48 50 49 44 40 36 30 28 26 24 23 19 14 7

ECMWFNIL_925_spd_081.txt.gz
Wind_Speed
18 18 21 20 18 18 18 18 19 20 21 22 21 23 24 23 23 23 23 22 21 21 20 20 19 18 18 19 20 20 20 20 20 20 19 20 21 23 25 27 28 29
21 21 22 21 19 20 19 18 19 19 21 22 22 23 23 23 23 24 24 24 24 23 22 22 21 19 18 18 20 21 21 21 20 20 21 22 21 22 23 26 28 28
24 24 24 22 21 22 22 21 20 21 22 23 23 24 24 23 23 23 23 24 24 24 23 24 23 21 19 19 20 20 20 20 19 20 22 23 23 23 24 26 27 28
24 25 26 24 23 24 25 23 22 23 23 24 25 25 25 25 24 24 24 23 24 25 25 25 24 23 22 21 21 21 21 21 21 20 20 21 22 23 24 25 26 27
25 26 26 25 25 26 25 25 25 24 25 26 25 25 25 25 25 25 25 25 25 26 26 26 25 25 24 24 23 22 22 23 23 20 19 21 23 24 25 25 26 27
26 26 26 25 26 27 26 26 27 26 27 27 26 26 26 25 25 25 26 27 27 27 27 27 27 27 26 25 24 23 22 22 23 20 19 22 24 26 26 26 27 27
26 26 26 26 27 29 28 28 29 29 28 27 27 28 27 26 26 25 26 27 27 28 27 27 28 29 27 26 25 25 23 22 23 23 22 22 25 26 26 25 26 27
27 28 28 28 29 30 30 29 30 30 28 28 28 29 28 27 27 26 27 27 27 29 28 27 28 28 26 26 26 26 25 22 23 24 23 23 24 25 24 23 25 28
27 28 29 29 30 31 31 30 30 30 29 29 29 29 29 28 28 27 28 28 28 30 29 28 27 25 25 29 30 30 29 26 23 22 22 24 24 23 21 22 24 26
28 29 30 29 30 31 31 30 30 29 29 29 30 29 29 29 29 28 28 29 29 30 30 30 27 25 29 33 35 35 34 31 27 23 21 22 24 24 22 21 24 26
29 30 31 30 30 31 31 30 30 30 29 29 30 30 30 30 31 30 29 29 29 28 30 29 27 28 34 39 39 38 36 33 30 27 23 20 21 23 23 22 24 27
29 30 31 31 30 30 30 30 30 30 29 29 29 30 30 31 32 32 30 29 29 28 28 27 26 30 38 43 43 40 37 34 32 29 26 22 19 20 22 24 25 27
29 29 29 30 29 29 30 30 30 29 29 28 28 30 31 31 31 31 31 30 29 28 28 26 25 30 39 43 44 43 38 35 32 30 28 25 21 19 21 23 24 25
28 28 28 27 27 28 29 29 30 30 29 28 27 29 31 31 30 30 31 32 30 28 28 26 24 30 39 42 43 43 40 36 32 30 28 26 24 20 19 21 23 24
27 27 27 27 27 28 28 29 30 31 30 29 28 29 29 30 28 28 31 33 32 30 29 27 26 31 40 43 42 41 40 37 32 29 28 26 24 22 20 19 21 23
26 25 26 27 28 28 27 27 28 29 30 30 29 29 29 29 27 27 30 32 32 32 31 28 28 35 42 45 44 42 39 36 33 29 26 25 24 22 20 19 20 22
26 26 25 25 28 28 27 26 26 27 28 28 29 30 30 29 27 27 29 30 30 31 31 28 31 39 46 47 48 46 40 35 31 27 24 24 23 22 20 20 20 21
27 27 26 25 26 29 29 27 26 25 25 26 28 30 30 29 28 27 28 30 29 30 30 30 34 42 47 48 50 48 40 34 31 29 27 26 24 22 21 21 21 21
27 28 28 25 25 27 29 29 28 27 25 24 27 30 30 29 29 28 28 29 29 30 30 30 34 42 47 48 51 50 43 37 34 32 30 29 27 25 23 22 22 21
27 28 28 26 24 26 29 29 30 30 26 23 26 30 31 28 27 28 29 29 29 30 30 29 34 42 46 47 50 51 47 42 37 33 31 30 28 25 23 23 23 22
27 27 28 27 25 26 28 28 29 31 29 25 25 29 30 27 26 27 28 30 30 30 30 30 33 41 45 46 48 49 48 45 41 37 34 33 31 29 27 24 21 19
27 27 27 26 26 27 27 27 27 28 29 26 25 27 28 26 26 26 27 29 30 31 32 32 34 40 44 45 46 47 47 46 44 40 37 37 36 33 31 29 25 21
24 24 24 24 24 25 26 26 25 25 26 26 25 25 27 26 26 26 26 27 29 31 33 34 35 39 43 44 45 45 44 43 44 42 37 37 37 34 32 32 29 25
21 22 23 22 22 23 24 25 25 24 23 24 24 24 25 26 26 27 27 28 29 31 32 34 36 39 42 43 44 44 42 39 41 43 38 36 37 36 35 35 32 28
20 20 21 20 20 20 22 24 25 25 22 22 22 23 24 25 25 26 29 29 29 31 32 33 35 38 41 42 42 43 43 39 39 42 40 36 37 37 37 37 36 33
18 18 19 19 19 18 20 23 24 24 23 22 20 21 23 23 24 26 28 29 29 30 32 33 34 37 39 41 40 40 42 41 39 40 39 35 35 36 37 38 38 37

ECMWFNIL_925_spd_084.txt.gz
Wind_Speed
19 19 20 20 19 18 16 17 18 18 18 18 18 18 18 18 19 19 19 18 18 19 19 19 20 20 21 21 20 19 20 21 21 21 20 21 21 23 25 25 25 26
22 21 21 21 20 19 18 18 19 19 18 18 17 17 17 18 19 19 20 19 18 19 19 20 21 21 22 22 22 21 23 23 23 22 20 20 21 21 22 23 24 26
23 22 22 22 21 21 20 19 20 20 19 19 18 18 18 18 19 19 20 20 20 19 18 21 22 21 22 23 21 21 22 23 24 23 21 21 20 20 21 21 22 25
24 23 22 22 22 21 21 21 21 21 21 21 20 20 20 19 19 20 20 21 21 20 19 20 22 21 23 25 24 23 22 22 23 23 22 21 20 20 20 20 21 24
24 23 23 23 22 22 22 23 23 22 22 22 22 22 22 22 21 21 21 22 22 23 21 20 21 23 26 27 27 26 25 24 24 23 22 22 21 21 21 20 20 22
24 23 23 23 23 23 23 23 23 22 23 23 23 24 24 24 24 23 23 23 23 25 25 22 23 27 28 29 29 29 29 28 26 25 24 23 22 22 22 20 20 21
24 24 23 23 23 23 22 22 22 22 23 23 23 24 25 25 25 24 24 23 23 25 26 23 26 31 32 33 34 33 32 30 29 28 27 25 23 22 22 21 20 21
22 23 23 23 23 23 23 22 21 22 23 23 23 24 24 25 25 24 24 23 23 24 24 24 29 33 33 35 36 35 34 33 31 30 29 27 26 24 23 22 22 21
23 23 23 23 23 23 23 22 21 21 23 24 24 23 24 26 25 25 25 23 23 24 23 24 30 33 33 36 37 35 34 33 31 31 30 28 27 26 25 23 22 22
24 24 24 25 24 23 22 22 21 21 22 24 24 24 25 26 27 26 25 23 22 24 22 23 28 32 35 39 40 37 33 33 32 31 30 29 27 26 25 24 23 23
23 24 25 25 25 25 24 24 23 21 22 23 24 24 24 26 27 26 26 24 22 22 22 24 28 31 35 38 40 39 36 34 33 31 30 29 28 26 25 25 24 23
23 23 24 24 25 26 26 26 26 24 23 23 24 23 23 25 27 26 25 24 22 22 23 26 29 31 33 37 39 41 41 37 33 32 31 30 28 27 26 26 25 24
25 23 23 23 23 25 25 26 27 26 25 24 24 23 22 23 26 25 25 24 24 24 25 26 30 32 35 39 40 41 42 39 34 31 31 30 29 29 28 27 26 25
26 25 24 23 22 22 23 25 26 27 27 26 25 24 23 23 25 25 24 25 25 25 25 26 31 34 36 39 41 41 40 38 34 31 30 31 31 31 30 28 27 26
27 28 27 25 23 22 21 23 25 26 26 26 26 25 24 24 24 25 25 26 26 26 26 27 31 35 36 38 40 40 39 37 35 33 30 30 32 33 32 31 29 28
28 29 28 28 26 24 21 21 24 26 26 26 25 25 25 26 26 26 27 27 27 27 27 28 31 36 38 39 39 38 38 37 36 34 31 29 31 31 31 30 29 29
26 27 28 28 28 26 23 21 23 26 26 26 25 25 25 26 28 28 29 29 28 28 28 28 31 37 40 40 39 38 36 35 35 34 32 30 31 30 29 29 29 28
24 24 25 26 27 27 25 22 23 25 27 26 25 25 25 26 27 28 29 29 29 29 30 29 31 37 40 40 40 38 36 33 33 34 33 30 30 31 30 31 31 30
23 23 23 23 24 25 25 24 24 25 26 26 26 26 27 27 28 28 29 30 30 31 31 30 32 37 40 40 41 40 37 34 32 34 33 29 28 30 31 32 32 30
22 23 23 22 22 23 24 24 25 25 25 25 25 26 27 28 28 28 29 29 30 31 31 31 33 37 39 40 41 41 39 35 32 33 33 31 29 30 31 32 32 29
22 23 23 23 22 21 21 22 23 23 24 24 25 26 27 27 27 28 28 29 30 30 31 32 33 36 40 41 41 42 41 38 34 33 33 33 32 31 31 33 33 30
20 21 22 23 23 21 20 20 20 21 22 24 24 25 26 28 28 27 28 29 30 31 32 33 34 36 39 41 42 43 42 39 36 34 35 34 32 31 34 35 34 32
18 20 22 23 23 22 21 20 19 19 20 22 23 24 25 27 28 28 28 29 31 31 31 33 35 37 39 41 42 43 42 40 37 34 35 35 32 31 34 35 34 32
16 17 21 23 23 22 22 21 20 19 18 19 21 22 23 25 27 28 28 29 30 31 31 32 34 37 39 40 42 43 41 40 37 34 35 37 35 32 33 34 35 34
16 17 19 23 24 23 22 22 21 21 19 19 20 20 20 21 25 28 29 29 29 30 31 32 33 36 38 39 41 42 41 40 38 35 35 37 36 33 32 35 37 37
16 17 18 21 23 23 23 23 22 22 21 21 21 20 20 20 23 26 28 29 29 30 31 32 33 34 37 38 39 40 41 41 39 36 35 36 35 31 31 35 37 38

ECMWFNIL_925_spd_087.txt.gz
Wind_Speed
13 14 14 15 15 15 15 15 16 16 17 17 17 16 15 15 15 14 14 14 13 12 13 15 16 17 17 17 17 16 16 17 17 18 19 19 20 21 22 23 23 24
13 13 13 14 14 15 15 16 16 17 17 17 17 16 15 14 15 15 15 14 14 13 13 16 18 19 20 20 20 20 19 19 19 20 20 20 21 21 21 23 24 24
14 14 14 14 15 16 16 17 17 18 19 19 19 18 17 16 16 15 15 16 16 16 17 20 21 21 22 23 22 23 22 22 22 22 21 21 21 21 21 22 24 25
15 15 15 16 17 18 18 19 20 20 21 22 22 21 20 19 19 18 17 18 18 19 21 23 23 23 24 24 24 24 24 24 24 24 24 22 21 21 22 22 23 24
15 15 16 17 18 19 20 21 21 21 22 23 23 22 22 21 21 20 19 19 20 21 23 25 26 27 27 27 27 26 26 25 24 25 25 25 23 22 22 23 23 24
16 16 16 17 18 20 22 23 22 22 22 23 23 24 23 22 22 21 20 20 19 20 24 28 29 30 31 31 31 30 30 29 26 24 24 25 25 23 22 23 25 25
16 16 17 17 18 19 21 22 22 22 22 23 24 24 24 24 23 22 21 21 21 21 25 28 29 31 32 32 32 32 31 31 30 27 25 26 26 25 24 24 25 26
15 16 17 17 17 17 18 19 20 21 21 22 23 23 23 25 25 24 23 23 23 24 26 29 30 31 33 33 33 33 32 32 32 29 28 27 26 28 27 25 26 26
18 18 18 18 17 17 17 18 18 19 19 20 22 23 23 24 24 24 24 24 24 26 28 31 32 32 34 34 34 33 33 33 32 30 28 27 26 28 29 27 25 25
21 21 21 20 20 19 18 18 18 18 19 19 21 23 23 23 23 23 24 25 25 27 29 31 33 33 35 36 35 34 32 32 32 30 29 26 24 26 27 27 26 26
20 21 21 22 21 21 20 19 19 18 19 19 21 22 23 23 24 23 24 25 25 26 27 30 33 33 35 37 37 36 34 31 31 31 30 27 25 24 24 26 28 28
17 18 19 20 21 21 21 21 21 20 20 21 22 23 24 25 26 25 25 25 25 25 26 29 32 34 36 38 38 38 36 34 31 31 31 29 26 23 23 27 29 28
15 15 17 19 20 21 21 21 22 22 23 23 24 25 26 27 27 27 27 27 27 27 27 29 32 34 37 39 39 39 37 35 32 31 31 30 25 22 23 26 27 26
16 15 16 18 20 21 21 22 22 23 24 24 25 26 27 27 28 28 28 28 29 28 28 28 31 34 37 39 39 39 37 35 32 31 32 31 26 23 24 25 25 25
19 18 17 18 21 22 22 22 23 23 24 24 25 26 27 27 27 28 29 29 29 29 29 29 31 34 37 38 38 38 36 34 32 31 31 31 27 24 24 24 25 27
21 19 19 20 22 23 23 23 24 24 24 25 25 26 26 27 28 29 30 30 30 30 30 31 32 35 37 38 38 37 35 34 32 31 31 30 27 25 25 26 27 29
22 21 21 21 22 23 23 23 24 24 25 25 25 25 26 27 28 29 30 30 30 30 30 31 32 35 37 39 39 39 36 34 33 32 31 30 26 24 25 27 29 30
21 22 22 22 22 22 22 22 23 24 24 24 24 24 25 26 27 28 28 29 29 30 30 30 32 34 37 39 40 40 37 34 33 32 32 30 27 25 24 26 28 30
19 20 21 20 20 20 20 21 21 21 22 23 23 23 23 25 26 27 28 29 29 30 30 30 31 34 37 38 40 40 38 35 33 32 32 31 31 27 24 24 28 30
17 17 17 17 17 17 18 18 19 19 19 20 22 23 23 24 25 26 27 28 29 30 30 31 32 34 36 37 39 40 39 35 34 33 32 32 33 31 26 24 27 29
17 16 15 14 14 14 15 15 16 16 17 18 20 22 22 23 24 25 26 27 29 30 31 32 33 34 36 37 38 40 40 37 35 34 34 34 34 33 29 24 26 28
17 16 15 14 14 13 14 14 15 15 16 17 18 20 21 22 22 23 24 25 28 30 31 33 34 34 35 36 37 39 40 38 36 35 35 35 35 34 31 28 28 28
17 18 17 16 16 16 16 16 16 17 17 17 18 19 21 22 22 21 22 23 26 28 30 31 33 34 34 35 35 37 39 38 36 35 35 35 35 34 31 30 30 29
18 19 19 18 18 18 19 19 18 18 18 18 18 19 21 22 22 22 22 22 24 26 28 30 32 34 34 34 34 35 37 37 35 35 35 36 36 34 32 32 32 31
18 19 19 19 20 19 19 20 19 19 18 18 19 20 21 23 24 25 24 23 23 25 28 30 32 34 34 33 33 34 37 36 35 35 36 36 36 33 33 34 34 35
17 17 18 18 19 19 19 19 19 18 19 19 21 22 23 25 26 27 27 26 25 27 29 31 32 34 34 33 33 34 36 36 36 35 35 36 34 31 31 35 37 38

ECMWFNIL_925_spd_090.txt.gz
Wind_Speed
17 17 17 18 18 18 17 16 16 16 16 16 16 16 16 15 14 14 15 15 16 18 18 18 18 19 18 18 19 20 20 21 22 22 22 21 20 20 19 20 20 21
17 17 17 18 18 18 17 17 18 18 18 17 16 16 16 16 15 16 17 18 20 21 21 21 22 22 22 22 21 21 21 21 21 20 21 21 21 21 21 21 20 20
17 18 18 19 19 19 18 18 20 21 21 20 19 18 19 19 18 18 19 21 23 24 24 25 25 25 26 26 25 26 25 25 24 22 21 21 21 21 22 22 22 21
18 19 19 20 20 19 19 20 22 23 23 23 23 22 22 22 22 22 23 24 26 27 27 27 28 28 28 28 28 28 27 26 25 24 24 24 24 23 23 22 22 22
18 18 19 21 21 20 21 22 23 23 23 24 24 24 24 24 24 24 25 26 27 28 29 29 30 31 31 30 30 30 29 27 24 24 24 25 25 24 23 21 21 22
17 17 18 19 20 20 21 22 23 23 23 23 23 24 24 25 25 25 25 26 28 30 31 31 32 33 33 33 32 31 30 27 24 23 23 23 23 24 24 23 22 21
16 16 17 17 17 18 19 21 22 23 23 23 23 24 25 26 26 26 26 26 28 30 31 32 33 34 34 34 34 33 31 28 26 26 23 21 21 22 22 22 23 22
16 16 16 16 16 17 19 20 21 22 23 24 25 25 26 27 27 27 27 27 28 29 31 32 34 34 35 35 35 34 32 30 30 29 26 23 22 22 21 19 20 23
18 17 17 16 17 18 18 19 20 22 23 25 26 26 27 27 27 28 28 28 28 29 31 32 34 35 35 36 35 34 31 30 30 31 28 25 23 23 22 21 21 22
20 19 18 18 18 18 19 20 22 24 25 26 27 27 28 28 28 29 29 29 29 29 31 32 33 35 36 36 35 34 31 30 31 31 29 25 23 23 22 22 23 23
21 20 20 20 19 20 20 22 23 25 26 26 27 28 28 28 29 29 29 30 30 29 30 32 33 35 37 37 37 35 33 31 32 32 30 27 23 22 22 22 22 23
20 19 19 19 20 21 22 22 24 25 26 27 27 28 28 28 29 29 29 30 29 29 30 31 33 35 37 38 38 36 34 33 33 32 32 30 26 22 21 21 21 22
19 18 18 19 20 20 21 22 23 24 25 26 27 28 29 29 29 30 30 30 30 30 30 31 33 35 37 38 38 37 34 32 32 32 32 32 29 25 22 21 21 22
18 18 18 19 20 20 21 22 23 24 25 26 27 28 29 29 30 30 30 30 30 30 30 31 32 35 37 38 38 38 35 32 31 30 30 31 31 30 26 22 21 22
18 19 19 19 20 21 22 23 23 23 24 25 27 28 28 28 29 29 30 30 30 31 31 31 31 33 35 37 38 38 35 32 30 29 28 29 30 32 30 24 21 22
18 19 19 20 21 22 22 22 22 22 23 24 25 26 26 27 28 29 30 30 30 31 31 31 31 32 33 34 36 37 35 33 31 30 29 29 29 31 30 25 22 23
18 18 19 19 20 21 21 21 21 21 22 23 23 24 24 25 27 29 30 30 30 31 31 31 31 32 33 34 36 37 35 33 32 31 30 29 29 29 28 24 23 23
18 18 18 18 19 19 19 19 19 20 21 21 22 22 22 24 25 27 28 29 30 30 30 30 31 31 32 33 35 37 36 33 32 32 31 31 31 30 28 25 24 24
16 16 17 17 17 17 16 17 17 18 20 20 21 21 21 22 23 24 25 27 28 30 30 30 30 31 31 33 36 37 36 34 33 33 32 32 32 32 30 27 25 24
14 14 14 14 14 14 14 14 15 16 18 19 20 21 21 21 22 23 24 25 27 29 30 30 30 30 32 34 36 38 37 36 35 34 34 34 33 33 31 29 26 26
12 12 12 12 11 11 12 13 14 16 18 19 20 20 20 20 21 22 24 25 27 28 30 30 29 30 32 34 35 37 37 37 36 35 35 36 35 34 33 31 28 26
12 12 12 12 12 11 12 14 15 16 17 18 20 21 22 22 22 23 24 26 28 29 30 30 29 29 32 34 34 35 37 38 36 36 37 37 36 34 32 30 28 27
14 15 15 14 13 14 15 15 16 16 17 19 21 22 23 23 24 24 26 28 29 30 30 30 29 30 32 33 34 34 36 37 36 36 36 35 36 34 30 29 29 28
16 16 15 15 14 15 15 15 16 16 17 18 20 21 23 23 24 26 27 29 30 30 29 29 30 31 32 33 34 34 35 35 34 33 32 30 32 32 31 31 30 30
16 15 15 15 15 15 14 14 15 15 16 17 19 20 22 23 25 27 28 30 30 30 29 29 30 31 32 33 34 35 35 34 33 31 30 28 28 29 29 30 31 34
15 14 13 13 13 13 13 13 13 14 15 17 19 20 22 23 25 27 28 29 30 30 30 29 30 31 32 32 33 35 36 35 34 32 29 28 26 26 27 29 31 36

ECMWFNIL_925_spd_093.txt.gz
Wind_Speed
17 17 17 17 17 16 16 14 14 14 14 13 13 13 13 14 15 18 21 23 23 23 24 24 23 23 22 21 21 20 19 16 13 11 12 13 12 12 13 14 14 14
18 18 18 17 16 16 15 15 16 16 15 14 13 13 13 16 19 22 23 24 24 25 25 26 26 25 24 24 23 21 19 18 16 13 13 14 13 13 14 15 15 15
19 19 19 17 16 16 16 16 17 17 17 16 14 13 14 17 21 23 24 25 26 27 28 28 28 28 27 26 24 21 19 18 17 15 14 14 14 14 15 15 15 16
19 18 17 17 16 17 17 17 17 17 17 16 16 15 16 18 20 22 24 26 27 28 29 29 29 29 29 27 25 21 18 16 16 16 16 15 14 14 15 15 16 17
17 17 16 16 17 18 18 18 18 17 17 17 18 18 19 19 20 21 22 24 26 28 29 30 30 29 29 28 25 21 17 16 17 17 16 15 15 15 15 15 17 18
17 17 17 17 18 19 20 20 20 19 19 19 20 20 21 21 20 20 21 22 23 25 27 29 29 30 28 26 23 20 17 16 17 18 17 16 16 16 16 16 17 18
18 17 18 20 21 22 22 22 23 23 22 22 22 22 22 21 20 21 21 21 22 23 24 25 27 29 27 23 21 19 17 16 18 18 18 17 17 17 17 17 17 18
18 18 20 22 24 24 24 25 26 26 24 24 23 21 22 21 21 22 22 21 21 22 22 23 25 27 27 23 21 19 17 17 18 18 18 18 18 18 18 18 18 19
19 20 21 24 26 26 26 26 27 26 25 25 23 22 22 22 22 23 22 21 20 20 21 21 23 25 26 23 21 20 18 17 17 17 18 18 18 18 18 18 19 19
20 21 23 25 25 26 27 27 26 25 25 24 23 23 23 21 21 21 21 20 20 19 20 20 22 24 25 24 23 21 19 18 18 18 18 18 18 19 19 19 19 19
20 21 23 24 25 26 26 26 26 24 24 23 23 23 22 21 20 20 20 20 20 20 20 20 22 24 24 23 23 22 20 18 18 18 18 18 18 19 19 19 19 19
20 21 22 23 24 24 25 26 25 24 23 23 22 22 22 21 21 21 21 21 20 20 20 20 21 24 24 23 23 21 19 19 19 18 18 18 19 20 19 19 19 19
20 21 22 22 23 23 24 25 25 24 23 22 22 22 23 22 22 21 21 21 20 21 20 20 21 24 25 24 23 22 19 18 18 19 19 18 19 20 19 19 19 19
20 20 21 22 22 23 23 24 24 24 23 23 23 24 23 22 22 21 21 20 20 20 20 20 22 26 28 27 24 22 20 19 19 19 19 19 19 19 20 20 20 20
20 21 21 21 22 23 23 23 23 22 22 22 22 22 21 22 22 22 21 21 20 20 21 20 22 27 31 30 27 24 20 18 18 17 17 18 18 19 20 21 20 20
19 20 19 20 22 22 22 22 22 21 21 21 21 20 21 21 22 22 22 21 20 20 20 20 22 27 30 31 31 27 21 17 17 18 17 17 18 20 21 21 21 21
17 17 18 20 21 21 21 21 20 21 20 20 20 20 21 21 22 22 21 21 20 19 20 20 22 28 30 31 32 30 26 21 19 20 20 19 21 22 22 22 22 21
15 16 18 19 20 20 20 20 20 20 20 19 21 22 21 21 22 21 21 21 20 19 20 19 23 28 31 32 32 31 28 22 18 20 20 20 21 22 21 21 21 22
15 16 17 18 19 20 20 19 19 19 20 20 21 23 23 22 22 21 21 21 20 20 19 19 24 29 31 33 33 32 29 21 17 18 19 19 21 21 20 21 21 22
15 15 16 17 18 18 18 18 18 19 20 21 22 24 24 23 22 22 22 21 21 20 19 20 25 29 31 33 33 32 29 23 19 19 19 19 21 20 20 20 21 22
13 14 15 16 17 17 17 18 19 19 20 21 21 22 23 22 21 21 22 22 21 20 19 20 24 28 31 33 34 32 27 22 20 20 20 20 20 20 20 19 20 22
14 15 16 16 16 16 16 16 18 19 20 20 20 21 22 21 21 21 21 21 21 21 19 19 23 28 30 32 34 31 25 21 21 20 21 21 20 21 21 20 21 23
15 16 17 16 15 15 15 16 17 18 19 20 20 20 21 21 20 19 19 20 21 21 21 19 21 27 30 30 32 30 24 22 23 22 22 22 22 22 22 22 23 24
16 16 17 16 14 15 15 15 15 16 17 19 19 19 20 21 20 17 17 20 21 21 23 22 21 25 29 30 30 30 25 22 23 24 23 23 23 23 23 23 24 25
17 17 17 15 15 15 14 14 14 15 16 18 19 19 19 20 20 18 17 18 21 22 24 24 23 24 28 29 29 30 27 23 23 24 24 23 23 23 23 24 25 26
17 16 16 15 14 14 13 13 13 14 15 16 17 17 17 19 20 20 18 18 21 22 23 24 24 24 27 29 29 29 28 25 23 23 24 23 23 23 24 24 26 26

ECMWFNIL_925_spd_096.txt.gz
Wind_Speed
10 10 10 10 10 10 10 10 10 10 10 10 10 11 11 11 12 12 12 13 14 14 14 14 15 15 14 13 13 11 11 13 12 11 12 12 12 12 13 14 14 14
11 10 10 10 11 11 11 11 11 11 10 10 11 11 11 12 12 13 13 13 14 15 15 15 15 16 15 14 13 12 12 13 13 13 12 12 12 12 13 14 14 15
12 11 11 11 11 12 11 11 10 11 11 11 11 11 11 11 11 12 13 12 13 14 15 15 15 15 15 14 13 12 12 13 15 14 13 12 13 13 13 13 14 15
12 12 12 12 12 12 11 11 11 11 11 11 11 11 11 11 11 12 12 12 13 13 14 15 16 15 15 15 14 13 12 13 14 15 13 13 13 13 13 13 13 14
11 12 12 12 12 12 12 12 12 12 12 12 12 12 12 12 12 12 12 12 13 13 14 15 16 15 14 14 14 13 13 13 14 15 14 13 13 13 13 13 13 14
13 13 13 13 13 13 13 13 12 12 12 12 12 13 13 13 12 12 12 13 13 14 14 15 15 15 14 14 14 14 13 13 14 15 14 14 14 14 13 13 14 14
14 14 14 14 14 14 14 13 13 13 12 13 13 13 13 13 12 12 12 13 13 14 15 15 15 15 15 14 14 14 14 13 14 15 15 14 14 15 15 14 14 15
14 14 14 14 14 14 14 14 13 13 13 13 13 13 13 13 13 12 13 13 13 14 14 15 15 15 15 14 14 14 14 14 14 15 15 15 15 16 16 15 15 15
15 15 15 15 15 15 14 14 14 13 13 13 12 12 12 12 12 13 12 12 13 13 14 15 15 15 15 15 14 14 14 14 14 14 14 15 15 16 16 16 16 16
15 15 15 15 15 15 14 14 13 13 13 13 12 12 12 12 12 12 12 13 13 13 14 16 16 16 16 15 15 14 14 14 14 14 14 15 15 16 16 16 16 16
16 15 15 15 15 14 14 13 13 13 12 12 13 13 12 12 12 12 13 13 13 14 15 16 17 17 17 16 15 14 13 13 14 14 14 14 15 15 15 16 16 16
15 15 15 14 14 14 13 13 13 13 12 13 13 13 13 13 12 12 13 13 14 14 15 16 17 18 18 18 16 14 13 13 13 14 14 14 14 15 15 16 16 16
15 14 13 13 13 13 13 13 13 13 13 12 13 13 13 13 13 13 13 13 14 14 15 16 18 19 19 19 17 16 14 13 13 14 14 13 14 15 16 17 17 17
14 13 13 13 13 13 13 13 13 13 12 12 13 13 13 13 13 13 13 13 13 14 15 16 18 20 22 22 19 17 14 12 12 13 13 14 14 15 16 17 18 18
13 13 12 12 13 13 13 12 12 12 13 13 13 12 13 13 13 13 13 13 13 13 14 17 19 22 25 24 21 18 14 12 12 13 14 15 15 16 17 17 19 19
13 12 12 12 13 13 12 12 12 12 13 13 13 12 13 13 13 13 13 13 13 13 14 17 20 24 26 23 20 17 13 12 12 13 14 15 16 17 17 19 20 20
13 13 13 12 12 12 12 13 13 13 13 13 13 13 13 13 13 14 13 13 13 14 14 16 21 26 27 23 19 18 15 12 12 13 14 15 17 18 18 20 21 21
13 13 12 12 12 13 13 13 13 13 13 13 13 13 13 13 14 13 13 13 12 13 15 17 21 27 28 24 19 19 18 14 13 13 14 16 17 18 19 20 21 22
14 13 12 12 12 13 13 13 12 12 12 12 12 12 13 14 14 13 13 13 12 13 15 17 22 27 29 24 19 19 19 16 14 14 14 16 18 18 19 20 21 23
14 14 13 12 12 13 12 12 12 12 11 12 12 12 12 13 14 14 14 13 12 12 13 17 23 28 29 24 19 18 19 16 14 14 14 16 18 18 19 20 21 22
14 14 13 13 13 13 12 12 11 11 11 11 11 11 11 12 13 13 13 14 13 12 12 16 22 27 29 26 20 18 18 16 13 14 15 15 17 19 19 19 20 22
14 14 13 13 13 12 12 11 11 10 10 10 11 11 11 11 12 13 13 14 14 13 12 14 20 26 28 28 23 19 18 17 15 14 16 16 17 19 19 20 21 21
14 14 13 13 12 12 11 11 10 10 10 10 10 11 10 10 11 12 12 13 14 15 13 13 17 24 27 28 27 22 18 17 17 15 16 17 17 18 19 20 20 19
14 13 13 13 12 11 11 10 10 9 9 9 9 10 10 10 10 11 11 12 13 15 14 12 14 21 25 26 28 26 21 18 17 17 16 17 18 18 18 19 19 18
14 13 13 12 11 11 10 10 9 9 8 8 8 9 9 9 9 10 11 11 11 13 14 14 13 17 23 24 25 26 24 19 17 17 17 17 18 19 19 18 17 17
14 13 12 12 11 10 9 9 8 8 8 8 8 9 9 9 9 9 10 10 10 11 12 14 14 15 20 22 23 24 24 20 18 18 17 16 17 20 20 18 18 17

ECMWFNIL_925_spd_099.txt.gz
Wind_Speed
10 9 10 11 11 11 10 10 11 10 10 9 9 9 9 9 9 9 9 10 10 10 10 10 11 11 10 11 11 10 11 12 11 10 11 11 11 11 11 11 12 12
11 11 11 12 12 11 12 12 12 11 10 10 9 9 9 9 9 9 9 9 10 10 11 10 11 12 11 11 11 10 11 12 12 11 11 12 12 12 12 12 12 13
11 12 12 12 13 13 12 12 12 11 11 10 9 9 8 8 8 9 9 9 9 10 11 11 11 11 12 12 11 11 11 12 13 12 12 12 12 13 13 13 13 13
12 12 12 13 13 13 12 12 12 11 10 10 9 8 8 8 8 9 9 9 9 10 10 11 11 11 11 12 11 11 11 11 13 13 12 12 12 13 13 13 13 14
12 13 13 13 13 12 13 13 12 12 11 10 9 8 8 8 8 9 9 9 9 10 10 11 12 12 11 12 11 11 11 11 13 13 12 12 12 13 13 13 14 14
13 13 13 13 13 13 13 13 12 11 11 10 9 9 9 8 8 9 8 9 9 10 11 12 12 12 12 12 11 12 11 11 12 13 13 12 13 13 13 13 14 14
14 13 13 14 13 13 13 12 12 11 10 10 9 9 9 9 9 9 9 9 10 12 12 12 13 12 12 12 11 12 11 11 12 13 13 12 13 14 14 13 14 14
13 13 14 14 13 13 13 12 11 11 10 9 9 9 9 9 9 9 9 10 11 13 13 13 13 13 12 12 12 12 12 11 12 12 13 13 13 14 14 14 14 14
14 14 14 14 13 13 12 12 11 10 9 9 9 9 9 9 9 10 10 11 12 13 14 14 14 13 13 13 12 12 12 12 12 12 12 13 13 13 13 14 14 14
14 14 14 13 13 13 12 12 11 10 10 9 9 9 9 9 9 10 11 12 13 14 15 15 15 14 14 13 13 12 12 12 12 12 12 12 13 13 14 14 14 14
15 14 14 14 13 13 12 11 11 10 10 10 9 9 9 9 10 10 12 13 14 14 15 15 15 15 15 14 13 12 11 11 12 12 12 12 13 13 14 14 14 15
15 14 14 13 13 12 12 11 11 10 10 10 9 9 9 10 10 11 12 13 14 14 14 15 15 16 16 15 14 13 11 10 11 12 11 12 13 13 13 14 14 15
15 14 13 13 12 12 11 11 10 10 10 9 9 10 10 10 11 11 12 12 13 14 14 15 16 17 17 16 14 13 11 10 10 11 11 11 12 13 13 14 15 15
14 14 13 13 12 12 11 11 10 10 10 9 10 10 10 10 11 11 11 12 12 13 14 15 16 17 18 17 15 12 11 10 10 10 11 11 12 13 13 14 15 16
15 14 14 13 13 12 11 11 10 10 10 10 10 10 10 11 11 11 11 11 11 12 14 16 17 17 16 15 15 13 11 9 10 10 10 11 12 12 13 14 16 16
15 14 14 13 13 12 12 11 10 10 10 10 11 11 11 11 10 10 11 11 11 12 13 16 19 17 13 12 13 13 11 9 9 10 10 11 12 12 13 14 16 16
15 15 14 14 13 12 12 11 10 10 10 10 10 11 11 10 10 10 10 10 12 13 14 16 19 17 13 12 12 12 11 9 8 10 10 10 12 12 12 14 15 16
15 15 15 14 13 13 12 11 11 10 10 10 10 11 10 10 10 9 9 9 11 13 15 17 20 18 13 12 12 11 11 10 9 9 10 10 12 12 12 14 15 16
15 15 14 14 13 12 12 12 11 9 9 9 10 10 10 10 9 9 9 8 9 12 15 17 21 20 14 11 11 11 10 10 9 9 10 11 12 12 13 14 15 16
15 15 14 14 13 12 12 12 10 9 8 8 9 9 9 9 9 9 9 9 8 10 13 16 20 21 16 12 10 10 11 11 9 9 9 11 11 13 14 15 16 17
16 15 14 14 13 12 12 11 9 8 8 8 8 8 8 8 9 10 9 9 8 9 11 14 18 20 19 15 12 10 12 12 10 9 10 10 11 12 13 14 15 15
16 15 14 13 13 12 11 10 9 8 8 7 7 7 8 8 9 10 10 10 9 8 9 12 16 19 20 20 15 11 13 14 12 11 11 11 11 13 13 13 15 15
16 15 14 13 13 12 11 9 8 7 7 7 7 7 7 8 8 9 10 11 10 8 8 10 15 19 20 22 20 15 13 14 13 12 12 11 12 14 14 13 15 15
16 15 14 13 12 12 10 9 8 7 7 6 7 7 7 7 8 8 8 9 11 11 9 8 12 18 20 21 21 19 16 15 15 14 13 12 12 14 14 14 15 16
16 15 14 13 12 11 10 8 7 7 6 6 6 6 6 6 7 7 7 7 8 10 10 9 9 14 19 19 20 21 20 16 15 15 14 13 14 15 15 14 16 16
15 15 14 13 12 11 9 8 7 7 6 6 6 6 6 6 6 6 6 6 5 6 8 9 8 11 16 19 19 21 22 19 15 16 16 15 15 15 15 15 16 16

ECMWFNIL_925_spd_102.txt.gz
Wind_Speed
11 11 11 11 11 10 9 10 10 10 10 10 10 11 11 11 11 11 12 13 13 13 13 14 14 14 14 14 14 14 15 15 14 14 15 15 15 15 15 16 16 17
11 12 12 12 11 11 11 11 11 11 11 11 11 11 11 11 11 12 12 12 13 13 13 14 14 14 14 14 14 14 15 15 15 14 14 15 15 15 16 15 16 17
12 12 13 13 13 13 12 12 11 11 12 12 11 11 11 11 11 12 12 12 13 13 14 14 14 14 14 14 13 13 14 15 15 14 13 14 15 15 15 16 15 17
14 13 14 14 14 14 13 12 12 12 12 12 11 11 11 11 11 12 12 12 12 13 13 14 14 14 14 13 13 13 14 14 14 14 13 14 15 14 15 15 15 16
15 15 14 14 14 14 14 14 14 13 13 12 12 11 11 11 11 11 12 12 12 12 13 13 13 13 13 13 14 13 13 14 14 14 14 14 15 14 15 15 15 16
16 15 14 14 14 15 15 15 14 13 13 13 12 12 12 12 11 11 12 12 12 13 13 13 13 13 13 13 13 13 13 14 14 14 14 14 14 14 14 15 15 16
16 15 15 15 15 15 16 15 14 14 13 13 13 13 12 12 12 12 12 12 13 13 13 13 13 13 13 13 13 13 13 13 13 13 14 13 14 14 14 15 15 15
16 15 15 16 16 16 15 15 14 14 13 13 13 13 12 12 12 12 12 13 13 14 14 14 13 13 13 13 13 13 12 13 13 13 13 13 13 14 15 15 15 15
16 16 16 16 16 16 15 15 14 14 13 13 13 13 13 13 13 12 13 13 14 14 14 14 14 13 13 13 13 12 12 12 13 12 13 13 14 14 14 15 14 15
17 16 16 16 16 16 15 15 15 14 14 13 13 13 13 13 13 13 13 14 14 14 15 15 14 13 13 13 13 12 12 12 12 12 12 13 13 14 14 14 15 16
17 17 16 16 16 16 15 15 15 14 14 14 13 13 13 13 13 13 14 14 14 14 15 15 15 13 13 13 12 11 11 11 11 11 11 12 13 13 14 14 15 15
17 17 17 16 16 16 15 15 15 14 14 14 13 13 13 13 13 13 14 14 14 14 14 15 15 14 13 12 10 10 10 10 11 11 11 12 12 12 13 14 14 14
17 16 16 16 16 16 15 15 14 14 14 14 13 13 13 13 13 13 13 14 14 15 15 15 16 16 15 13 11 10 10 11 10 10 11 11 11 12 12 12 13 12
17 16 16 16 16 16 15 15 15 14 14 14 14 14 13 13 13 13 13 13 14 15 16 16 16 16 16 15 12 10 10 11 10 10 11 11 10 10 10 11 12 13
17 17 17 16 16 15 15 15 15 15 15 14 14 14 13 13 13 13 13 13 14 15 16 17 16 15 15 14 13 11 11 10 10 9 9 10 10 9 9 10 11 13
17 17 17 16 16 15 15 15 15 15 15 14 14 14 13 12 12 13 13 14 15 15 16 18 16 14 12 11 11 11 11 10 10 10 9 9 11 9 9 10 10 12
18 17 17 16 16 15 15 15 14 15 15 14 14 14 13 12 11 12 13 14 16 16 16 17 16 12 10 10 9 9 9 9 10 10 9 9 11 11 10 11 12 14
18 18 17 16 16 15 15 15 14 14 14 14 14 13 12 12 11 11 12 12 15 17 17 17 16 12 9 9 9 8 9 9 9 9 8 8 11 11 10 10 12 15
18 18 17 16 16 16 15 15 14 14 14 14 14 13 13 12 11 11 11 10 12 16 17 18 17 13 8 7 8 8 9 9 8 8 7 8 9 11 10 8 10 14
18 18 18 17 17 16 15 14 14 14 13 13 13 13 13 12 11 10 10 10 10 13 17 18 18 16 11 7 7 9 10 10 10 8 8 8 8 12 12 8 10 14
19 19 18 17 16 16 15 14 13 13 13 13 12 13 13 12 11 10 9 9 9 10 15 18 19 18 14 9 8 9 11 12 12 9 9 8 8 12 13 9 11 15
20 19 18 17 16 16 15 14 13 13 13 13 13 12 12 12 11 10 9 8 8 8 12 17 19 19 17 13 10 9 12 14 13 11 10 11 10 13 13 10 12 15
20 19 19 17 17 16 15 14 14 13 12 12 12 12 11 11 11 11 10 9 7 6 8 15 19 19 18 17 14 11 12 14 14 13 13 13 13 14 13 12 13 14
20 19 19 18 17 16 15 14 13 12 11 11 11 11 10 10 10 10 10 10 9 7 5 8 15 18 18 18 17 14 13 13 14 15 15 15 15 15 13 12 14 14
21 20 19 18 17 16 15 14 13 12 12 11 11 10 10 10 9 9 8 7 8 8 6 4 8 13 16 18 17 15 14 14 13 15 16 16 16 17 15 13 14 15
21 20 19 18 17 16 15 14 12 11 10 10 10 10 10 9 8 8 7 6 5 5 5 4 4 8 12 16 17 16 15 15 13 14 16 17 16 17 17 15 15 16

ECMWFNIL_925_spd_105.txt.gz
Wind_Speed
17 18 19 20 20 19 19 18 17 16 15 14 14 14 14 15 15 15 16 17 18 19 19 19 18 17 17 17 17 17 16 16 16 16 17 17 18 18 19 20 20 21
17 18 18 18 19 18 17 17 16 15 15 15 15 15 15 15 16 17 18 17 18 19 19 18 17 16 15 15 16 16 16 16 16 16 16 17 17 18 18 20 20 19
16 16 17 17 17 17 16 15 15 15 16 16 15 15 15 16 17 17 18 18 17 18 18 17 16 16 15 14 15 16 15 16 15 15 16 17 17 17 18 20 20 20
16 15 16 16 15 15 15 16 17 16 16 16 15 15 15 16 17 17 17 17 16 16 16 16 16 16 15 14 14 15 15 15 15 15 16 17 17 17 18 19 20 21
17 16 16 16 15 16 17 17 18 17 16 16 15 15 15 16 16 16 16 16 16 15 14 15 15 15 15 14 14 15 15 15 14 14 16 17 16 16 17 18 19 20
18 18 17 17 17 18 18 18 17 17 17 17 16 16 15 15 15 15 14 14 14 14 14 14 13 13 14 14 14 14 14 14 14 14 15 15 16 16 16 16 18 20
19 19 18 19 19 19 19 19 18 18 17 17 17 16 15 15 14 13 12 12 12 12 12 12 12 12 13 14 14 13 13 13 13 13 15 15 15 16 17 16 18 20
20 19 19 20 20 20 19 19 18 18 17 17 17 16 16 16 15 13 12 11 10 10 10 11 11 11 12 14 14 13 12 12 12 13 15 15 15 16 16 16 17 19
20 20 20 20 20 20 19 19 18 18 17 18 17 16 15 16 15 14 12 10 10 10 9 10 10 12 13 13 13 13 12 11 12 13 14 15 15 15 15 15 17 19
21 21 21 21 21 20 19 19 18 17 17 18 17 16 15 14 12 11 10 10 11 11 10 10 11 12 13 12 11 12 11 11 11 12 13 13 13 14 14 15 15 18
22 22 22 21 21 20 20 19 18 18 17 17 17 18 16 13 11 10 10 11 11 11 11 11 11 12 13 11 10 11 12 12 11 11 12 12 13 13 14 15 16 17
23 23 23 22 21 21 20 19 19 18 17 16 16 17 15 13 12 11 12 12 12 12 13 12 12 11 11 10 10 11 11 12 13 11 10 11 12 12 12 14 16 15
24 24 23 22 21 21 21 20 19 18 18 17 15 15 13 12 12 13 13 13 13 13 13 13 12 12 11 10 10 11 11 12 13 12 10 9 10 9 10 13 16 15
25 24 23 23 22 21 21 20 20 20 20 19 17 16 15 14 12 12 13 14 14 13 13 13 13 12 11 11 11 11 11 12 12 12 10 10 9 8 9 12 14 16
26 24 23 23 22 21 20 20 20 20 21 20 19 19 17 14 12 12 13 14 15 13 12 12 12 13 12 11 11 11 11 11 11 12 10 10 10 9 10 10 12 16
26 25 24 23 23 22 22 21 20 20 20 20 20 19 16 13 13 14 14 14 14 13 12 11 12 11 10 10 10 11 11 11 11 12 11 10 11 10 7 7 11 15
27 26 25 24 24 24 23 22 22 21 21 19 18 16 13 12 13 15 16 14 14 13 12 11 11 10 10 9 9 10 10 10 10 10 10 9 11 10 6 7 12 15
27 26 25 25 24 23 22 22 21 21 21 20 18 17 14 12 12 14 16 15 15 15 13 12 11 11 10 10 10 9 9 8 8 9 8 8 11 12 7 7 13 15
28 27 26 25 24 23 22 22 22 22 21 20 19 18 15 13 11 12 15 17 17 17 16 14 11 10 10 10 10 9 8 8 9 9 8 8 11 13 8 8 13 15
29 28 28 27 25 24 23 23 22 21 20 19 19 18 16 14 12 11 14 17 18 18 19 18 15 11 8 8 9 9 8 8 9 8 8 9 11 14 11 9 13 16
30 29 29 28 26 25 24 23 22 21 20 19 18 17 17 15 13 11 12 15 18 19 20 21 19 15 10 7 8 9 9 9 8 6 7 8 10 13 12 9 13 16
30 30 29 28 26 25 24 23 22 21 20 19 18 17 17 16 14 11 10 12 17 20 21 21 19 17 14 10 8 8 10 13 10 6 6 8 9 12 12 9 12 15
31 31 29 28 26 25 25 23 22 21 20 19 18 17 17 16 16 13 10 10 14 16 18 19 18 17 16 14 11 10 11 15 15 10 8 8 8 11 13 11 11 14
31 30 30 28 27 26 25 23 22 21 20 18 18 17 17 17 17 15 12 11 12 12 13 14 15 16 17 15 13 12 12 15 16 14 11 9 8 8 11 13 13 15
31 30 29 28 27 26 24 23 22 21 19 18 17 16 16 15 14 14 12 10 10 9 8 10 12 14 16 16 14 13 13 14 15 16 15 13 11 10 10 12 14 16
31 30 29 28 27 26 24 23 22 21 20 19 18 17 15 13 10 10 9 8 7 6 5 6 9 12 15 16 15 14 14 14 14 15 15 14 14 13 11 13 15 16

ECMWFNIL_925_spd_108.txt.gz
Wind_Speed
21 23 23 23 23 22 21 20 19 19 19 19 19 18 17 16 15 16 18 17 18 18 18 18 18 18 19 19 19 20 21 21 21 21 21 23 23 23 22 21 21 21
23 24 25 24 24 22 20 19 18 19 20 19 19 18 17 17 16 17 17 18 18 18 17 17 18 17 18 19 19 20 21 21 21 20 21 22 22 22 22 22 23 23
23 24 24 24 23 22 20 19 19 19 20 20 19 18 18 18 17 17 17 18 18 18 17 17 18 18 18 18 19 20 21 21 21 20 20 21 21 21 22 22 23 24
23 23 23 22 22 21 20 19 20 20 20 20 19 19 18 18 17 18 17 18 18 18 18 18 18 18 18 18 18 20 20 20 20 19 19 20 20 20 21 21 23 24
21 21 21 21 20 19 19 20 21 21 21 21 20 19 18 18 17 17 17 17 18 18 18 19 19 19 18 18 19 19 18 18 18 17 18 19 19 19 20 21 22 23
20 20 19 19 19 19 20 21 22 21 20 20 19 18 18 17 16 15 16 16 17 18 18 19 19 19 19 19 19 18 17 17 17 16 17 18 18 19 20 20 21 21
20 19 19 19 19 20 22 22 21 21 20 19 19 18 16 15 14 14 14 14 16 17 18 18 18 18 18 18 18 17 16 17 16 15 16 16 17 18 19 20 20 19
20 19 19 19 21 22 23 22 21 20 20 19 19 17 15 13 13 12 12 13 15 16 17 17 17 17 17 17 17 17 16 16 15 14 14 14 16 17 17 17 17 16
21 20 20 21 22 23 23 22 21 20 19 19 19 17 14 12 11 11 11 12 14 15 16 16 16 16 16 16 16 16 16 15 13 13 13 13 14 16 15 15 15 14
22 22 23 23 23 23 23 22 21 20 20 19 18 16 13 11 10 10 11 12 13 15 15 15 15 15 15 15 14 15 15 14 12 12 12 12 12 14 14 13 12 13
23 23 23 24 24 23 23 22 22 21 20 18 16 14 11 9 9 10 12 13 14 14 15 16 15 14 14 14 13 14 14 14 12 10 11 10 10 12 13 12 12 13
24 24 23 24 24 24 23 22 22 21 19 17 14 12 11 10 11 12 13 14 14 15 15 16 15 14 14 13 12 13 13 12 10 9 8 8 8 10 10 11 13 14
25 24 24 24 24 24 24 22 21 20 18 16 13 11 12 12 13 14 14 14 14 15 15 15 14 13 13 12 12 12 12 11 9 8 6 6 7 7 7 9 13 14
26 25 25 25 25 24 23 22 21 20 18 16 13 11 12 13 14 15 14 14 14 14 15 15 14 13 12 11 11 11 11 9 8 8 8 6 6 5 6 9 12 13
26 26 25 25 25 25 24 22 21 20 19 16 14 13 13 13 14 14 14 15 15 15 15 14 14 13 12 11 10 9 8 8 7 8 9 7 5 3 4 9 11 11
27 26 26 26 25 25 25 24 23 22 20 17 15 14 14 14 14 14 14 15 15 15 15 15 14 13 12 10 9 8 8 7 7 7 7 6 3 2 3 8 9 8
27 27 27 26 26 26 26 26 25 23 21 19 17 15 14 14 14 14 14 14 15 15 15 15 14 13 11 10 9 8 7 6 5 4 4 4 3 2 3 7 7 7
28 28 28 27 27 27 26 26 25 24 22 20 18 16 15 15 15 14 14 14 14 15 15 15 13 11 9 8 7 6 5 4 4 4 4 6 4 4 3 6 6 8
29 29 28 28 27 27 26 26 25 24 22 20 18 15 15 16 16 16 15 14 14 15 15 14 13 10 8 6 5 4 4 4 4 4 5 7 5 5 4 5 6 10
30 30 29 28 28 28 27 26 24 23 22 20 18 17 16 17 18 18 18 17 16 15 14 13 11 9 7 5 5 4 3 4 4 4 5 7 6 5 4 4 7 11
31 30 30 29 28 28 27 26 25 23 22 21 19 17 16 17 18 19 20 19 18 16 15 13 10 8 6 4 3 3 4 5 4 4 4 6 7 6 4 4 7 12
32 31 30 29 29 28 28 27 26 24 23 22 20 18 17 17 19 20 20 20 19 17 16 15 12 9 6 4 2 2 3 5 6 5 4 5 6 7 6 5 7 11
33 32 31 30 30 29 29 28 27 25 24 23 22 20 19 18 19 21 21 20 19 17 16 16 13 10 8 6 4 4 5 6 6 6 5 4 5 6 6 5 7 10
33 33 32 31 31 30 30 28 27 26 25 23 22 22 20 19 19 19 19 17 17 16 16 15 14 12 9 7 6 5 6 7 6 5 5 4 4 4 4 5 7 9
34 33 33 32 32 31 30 29 27 26 25 24 23 22 21 20 19 18 17 15 13 13 13 13 13 12 10 8 6 6 6 6 6 6 6 6 6 5 5 7 9 10
34 34 34 33 33 32 30 29 26 24 24 24 24 22 21 21 20 18 16 14 12 11 10 11 11 11 9 8 6 6 6 6 6 8 9 9 9 8 7 8 10 12

ECMWFNIL_925_spd_111.txt.gz
Wind_Speed
23 22 21 20 19 19 18 17 18 18 18 19 19 20 21 21 20 20 20 21 20 20 20 20 20 20 20 19 19 21 22 23 23 22 21 22 22 22 23 23 24 24
23 22 22 22 21 20 18 17 18 18 19 19 20 21 21 21 20 20 21 21 21 21 20 20 19 19 19 19 19 21 22 22 22 21 21 23 22 23 23 23 23 22
22 22 23 22 22 21 19 19 18 18 19 20 20 21 21 21 21 20 20 20 21 21 20 20 20 19 19 19 19 20 20 21 21 21 22 22 21 22 22 22 22 21
22 23 23 22 21 21 20 20 20 19 20 21 21 21 21 21 21 20 20 20 20 21 20 20 20 19 19 19 19 20 20 20 20 20 21 22 20 21 21 21 21 21
23 23 24 23 21 21 21 21 21 21 21 21 21 21 21 20 20 20 20 20 20 21 20 20 19 19 19 18 18 19 19 19 18 18 20 21 20 20 20 19 20 20
24 24 24 22 21 21 21 22 23 22 21 21 21 20 20 19 19 19 20 20 20 20 20 20 19 19 18 18 18 18 18 18 17 17 19 20 20 19 18 18 19 20
25 25 23 22 22 22 23 24 23 22 22 21 21 19 18 19 19 19 19 19 20 20 20 20 19 19 18 18 18 18 17 17 17 18 19 19 19 18 17 17 17 19
25 24 23 23 23 24 24 24 23 22 22 21 20 19 17 17 18 18 18 18 19 20 20 20 19 19 19 18 18 18 17 16 16 17 19 18 18 17 17 16 17 18
24 24 24 24 24 25 24 23 23 23 22 20 20 18 16 15 16 17 18 18 19 20 20 20 19 19 19 18 17 17 16 15 14 16 17 17 16 16 16 17 17 18
24 24 25 25 25 25 24 24 23 23 21 19 18 17 15 15 15 16 17 18 19 20 19 19 19 18 18 17 17 16 15 15 14 14 14 14 14 14 15 16 17 18
25 25 25 26 25 25 24 24 24 22 20 18 17 15 14 14 15 16 17 19 19 19 19 19 18 17 17 17 16 15 14 14 13 13 12 11 11 12 13 15 16 17
26 25 26 26 25 25 24 24 23 21 19 17 15 13 12 13 15 17 18 19 20 19 19 18 17 17 17 17 15 14 13 12 11 11 10 9 9 10 12 14 15 16
26 26 26 26 25 25 25 24 22 20 18 15 12 11 12 14 16 18 19 20 20 19 19 18 17 16 16 16 14 13 12 11 10 9 9 7 6 8 10 12 13 14
27 26 26 26 25 25 25 23 21 19 16 14 12 11 14 16 17 19 20 20 20 20 19 18 17 16 15 15 14 12 11 10 9 8 8 7 5 6 9 10 11 13
27 27 27 26 25 25 25 23 21 18 15 13 12 14 16 18 18 18 19 20 20 20 18 17 16 16 15 14 13 11 10 10 9 9 8 7 5 5 7 9 10 12
27 28 27 26 26 26 25 24 21 18 16 14 14 16 17 18 18 18 19 19 20 19 18 17 16 15 14 13 12 11 9 9 9 9 8 6 4 4 6 7 9 11
28 28 28 27 27 27 26 24 21 18 16 15 15 17 17 17 17 17 18 18 18 18 17 16 15 14 13 12 11 10 9 8 7 6 6 5 5 5 5 5 7 9
29 29 29 28 28 28 26 24 21 19 17 16 16 17 17 17 17 17 17 17 17 17 17 15 14 13 12 11 10 9 8 6 5 5 4 4 5 5 4 4 5 8
30 30 30 30 29 28 27 25 22 19 17 16 16 16 16 17 17 17 17 17 17 17 16 15 14 12 10 10 8 7 6 5 4 4 4 4 6 6 3 3 3 8
31 31 30 30 29 29 27 25 23 20 17 16 16 16 17 17 17 17 17 17 17 17 16 14 12 11 9 8 7 5 5 4 4 4 4 4 6 6 3 3 3 8
32 31 30 30 30 29 28 26 24 21 18 16 15 16 17 17 17 18 17 17 16 16 15 14 11 9 7 6 5 5 5 5 5 4 4 4 5 6 4 1 4 7
33 32 31 31 31 30 29 28 25 22 19 17 16 17 18 18 18 18 17 16 16 15 14 13 10 7 6 5 4 4 6 7 7 6 5 5 5 5 3 2 4 6
34 34 32 32 31 31 30 29 26 24 21 19 18 19 19 19 19 18 16 15 15 13 12 12 10 7 5 4 3 3 4 7 8 7 7 6 5 4 1 2 3 6
34 34 33 33 32 31 31 29 27 25 22 20 19 19 21 20 19 19 17 15 14 13 12 12 11 8 6 5 4 3 4 6 8 8 8 7 5 3 1 1 2 5
34 34 34 33 32 31 30 29 27 25 23 21 19 20 22 22 21 20 18 16 15 13 12 11 10 9 7 6 5 4 3 4 6 7 8 7 5 4 3 2 2 4
34 34 34 33 32 31 29 28 27 26 24 22 21 21 23 23 21 19 17 15 14 12 11 10 9 8 7 6 5 4 3 3 4 6 8 8 7 6 4 2 2 4

ECMWFNIL_925_spd_114.txt.gz
Wind_Speed
22 21 19 18 16 14 13 13 13 14 15 16 17 18 18 17 17 16 17 17 17 17 17 17 17 18 19 20 20 22 23 24 24 24 24 25 25 25 25 25 24 24
21 20 19 18 16 15 14 13 13 15 17 17 17 18 18 18 17 17 17 18 18 17 17 17 17 18 19 19 20 21 23 24 25 23 23 24 24 24 24 23 23 22
21 21 20 18 17 16 15 15 15 16 17 18 18 18 18 18 17 17 18 18 18 18 17 17 17 18 18 19 19 21 23 24 24 23 23 24 23 24 23 22 22 22
21 21 20 18 17 17 17 17 18 18 18 19 19 19 19 18 18 18 19 19 19 18 17 17 18 18 18 18 19 21 22 23 23 22 23 24 22 23 22 21 22 22
21 21 20 19 18 18 18 18 19 19 19 20 20 19 19 19 19 19 20 19 19 19 18 18 18 18 18 18 19 21 22 22 22 21 23 23 21 21 21 21 22 22
21 21 21 20 20 19 19 19 19 20 20 20 20 20 20 19 19 19 20 20 19 19 18 19 19 18 18 18 19 20 21 22 22 22 23 22 20 19 19 20 22 22
22 22 22 22 21 20 20 20 20 21 21 21 21 20 20 19 19 20 20 20 19 19 19 19 19 19 18 18 19 19 20 22 22 22 22 21 20 19 19 20 21 21
23 23 23 22 22 21 21 21 21 21 21 21 21 21 20 19 19 20 19 19 19 19 19 19 19 19 18 17 18 20 21 21 21 21 21 20 19 19 19 19 20 20
24 25 24 23 23 22 22 22 22 22 22 22 21 21 20 19 19 19 19 19 19 19 20 19 19 18 17 16 17 19 20 20 19 19 19 19 18 18 18 18 18 19
26 26 25 24 23 23 23 23 23 23 23 22 21 20 19 19 18 19 19 19 20 20 20 20 19 18 16 15 16 16 18 18 17 16 16 16 16 17 17 17 17 17
27 26 25 25 25 24 24 24 24 25 23 21 20 20 19 19 19 19 19 19 20 20 20 20 18 17 16 16 15 15 15 15 14 14 14 14 14 15 15 16 16 16
27 27 26 25 25 25 25 25 26 25 24 21 19 19 18 19 19 20 20 20 20 19 19 19 18 16 16 15 15 15 14 13 12 11 11 12 12 12 14 14 15 15
28 27 27 26 26 26 26 27 26 25 22 20 18 17 17 19 20 21 20 20 19 19 18 18 17 17 15 15 14 13 12 11 10 9 9 10 10 10 12 13 14 14
28 27 27 27 27 27 27 27 26 24 21 19 17 15 16 19 21 22 21 20 19 18 17 17 17 17 15 14 13 12 11 10 8 8 8 8 8 9 11 12 12 13
28 28 28 28 28 29 28 27 25 23 20 18 16 15 16 19 21 22 22 21 20 18 17 17 17 17 15 13 13 12 10 9 8 8 7 7 7 8 10 11 11 11
29 29 29 29 29 29 29 27 25 22 20 17 15 15 17 19 21 22 22 21 20 19 18 17 17 17 15 13 12 11 10 9 9 8 8 6 6 7 8 9 9 9
31 30 30 30 30 30 29 27 25 22 19 16 16 17 18 19 21 21 22 21 20 20 19 18 17 16 15 13 11 10 9 9 9 8 8 7 5 5 6 6 6 7
32 31 31 31 31 30 29 27 24 21 19 17 18 19 19 20 20 21 22 21 20 20 19 18 17 16 15 13 11 10 9 8 8 7 6 6 6 4 3 3 5 7
33 33 33 32 32 31 29 27 24 21 19 18 19 20 20 20 20 21 21 21 20 20 19 18 17 15 14 13 11 10 9 8 7 6 5 6 6 4 2 1 4 6
34 34 34 33 33 31 29 26 24 21 19 19 20 21 21 21 21 21 21 21 20 20 19 17 16 14 13 12 11 10 8 7 7 6 5 5 6 5 2 1 4 6
35 35 34 34 33 32 30 27 24 21 20 20 20 21 21 21 22 22 21 21 20 19 19 17 15 14 12 11 10 9 8 7 7 6 6 5 6 6 3 2 3 4
36 36 35 35 34 33 31 28 25 22 21 21 21 21 21 21 22 22 22 21 20 19 18 17 15 13 11 10 9 8 8 8 8 7 6 5 6 5 3 1 2 4
38 37 36 36 35 34 32 29 26 24 22 21 22 22 22 22 22 22 22 21 20 19 18 16 15 12 10 8 8 8 9 10 9 8 7 6 6 5 3 1 1 3
35 36 36 36 36 34 33 30 28 25 22 21 22 22 23 23 23 22 22 20 19 18 16 14 13 11 8 7 7 7 8 10 10 9 8 7 6 5 3 2 1 3
32 32 33 34 34 34 33 31 29 26 22 21 21 22 23 23 23 22 21 19 18 16 14 13 12 11 9 7 7 7 7 8 9 9 9 8 7 5 5 4 2 2
34 34 33 33 33 33 33 31 29 26 23 22 22 22 23 24 23 22 21 19 18 16 15 14 13 12 10 8 7 7 7 7 8 8 8 9 8 7 6 5 3 2

ECMWFNIL_925_spd_117.txt.gz
Wind_Speed
23 22 21 20 18 17 16 14 13 14 16 17 18 19 18 17 16 15 15 16 16 16 17 17 17 17 18 19 20 22 23 23 24 23 23 24 24 24 24 25 24 23
22 21 21 20 18 17 15 13 13 15 17 17 18 19 18 17 17 16 16 17 17 17 17 17 17 17 18 19 21 23 23 23 23 22 22 23 23 23 24 24 24 23
22 21 21 20 19 18 15 13 14 15 17 18 18 18 18 18 18 17 17 18 18 18 18 17 17 17 18 20 21 23 22 23 22 22 22 22 22 22 22 22 23 22
22 22 21 20 19 17 15 15 16 17 18 19 19 18 19 20 19 19 18 18 19 19 18 17 17 18 19 20 21 22 22 22 22 21 21 21 21 21 21 21 21 20
23 22 21 20 18 17 16 17 18 18 19 20 19 19 20 20 20 20 20 19 19 19 19 18 18 18 18 19 21 22 21 21 20 20 20 20 20 21 20 20 19 17
23 23 22 21 19 18 17 18 19 19 20 20 21 20 20 20 21 20 20 20 19 19 19 18 18 18 18 19 20 21 20 19 19 19 20 20 20 20 19 17 16 16
24 24 23 22 20 19 19 19 20 20 21 21 21 20 20 21 21 20 20 19 19 19 19 18 18 18 18 19 20 21 20 20 19 18 19 18 17 17 17 15 14 14
26 26 25 23 22 21 20 21 21 21 21 21 21 21 20 21 21 21 20 19 20 20 19 18 18 17 18 20 21 21 21 20 18 18 18 16 15 15 15 15 14 13
27 27 26 25 23 22 22 21 21 21 21 21 22 22 21 20 20 20 20 19 20 20 20 19 18 17 18 20 21 20 20 19 18 17 16 15 14 13 13 13 12 12
28 28 27 26 24 24 23 23 22 21 21 22 23 22 22 21 20 20 20 20 20 20 20 19 18 18 19 20 20 18 17 17 16 15 14 13 13 13 12 11 11 11
29 29 28 27 26 25 24 23 22 22 23 23 22 22 22 21 21 20 20 20 20 21 20 20 19 18 19 19 18 17 16 16 15 14 13 13 12 12 11 10 10 10
29 30 29 28 27 26 25 24 23 23 24 23 22 22 22 22 21 21 21 21 21 21 21 20 19 18 18 18 18 17 16 15 13 12 12 11 11 10 10 9 9 9
31 31 31 29 28 27 26 25 24 24 24 23 22 21 22 22 22 22 21 21 21 21 21 20 19 19 18 17 17 16 14 13 13 11 11 10 10 9 9 8 8 9
32 31 31 30 28 27 26 26 26 25 24 23 22 21 22 22 22 22 22 21 21 21 21 21 20 19 18 17 16 14 13 12 11 10 10 9 9 8 7 7 8 9
33 32 31 30 28 28 27 27 27 26 24 23 22 22 22 22 22 22 22 22 22 22 22 21 20 19 18 17 16 14 13 11 11 10 9 9 8 7 6 6 6 8
33 32 31 30 29 29 29 29 28 27 25 24 23 22 21 22 23 23 23 23 22 23 23 22 21 19 16 15 15 14 12 11 11 10 9 8 7 6 5 4 5 6
34 33 32 31 30 30 30 29 28 27 26 25 23 22 22 23 24 24 24 24 23 23 23 22 21 19 16 14 14 13 12 11 11 11 10 8 6 5 4 3 3 4
34 33 32 32 31 31 30 30 29 28 27 25 23 22 23 24 25 26 25 25 24 23 23 23 22 20 17 15 14 13 12 11 11 11 10 8 6 5 4 2 3 3
35 34 33 33 32 31 31 31 30 29 27 25 23 22 23 25 26 26 26 25 25 24 23 23 22 20 18 16 15 14 12 11 11 10 10 8 7 6 4 2 2 3
35 34 34 33 32 32 32 31 31 29 26 24 23 23 24 25 27 27 26 26 25 24 24 23 22 21 19 17 16 14 13 12 11 9 9 9 8 7 4 2 2 3
36 36 34 33 33 33 33 32 31 29 26 24 23 23 25 26 26 27 27 26 26 25 24 23 22 21 19 18 16 15 13 12 10 9 9 9 9 9 5 1 1 3
32 31 30 31 32 33 32 32 30 28 26 24 24 25 25 25 26 27 27 27 26 25 24 23 22 21 19 17 16 15 14 12 10 10 9 9 10 10 6 2 1 2
26 25 25 28 31 33 33 32 31 28 26 25 25 26 25 25 26 27 27 27 26 25 25 24 22 21 19 17 16 15 14 13 12 11 10 10 10 10 7 3 2 1
30 29 30 31 33 34 34 33 30 28 26 25 25 26 26 26 26 27 27 26 26 25 25 24 23 21 19 18 16 16 15 14 13 12 11 11 10 10 7 4 3 1
34 34 34 34 35 34 33 32 29 27 25 24 25 25 26 27 27 27 27 26 25 25 24 23 22 21 20 18 16 16 16 15 14 12 12 12 11 10 8 6 4 2
35 35 35 35 35 34 32 30 28 26 24 24 25 25 26 27 26 26 27 27 25 24 23 22 22 20 19 17 16 16 17 17 15 13 13 13 11 9 8 7 5 3

ECMWFNIL_925_spd_120.txt.gz
Wind_Speed
20 24 22 18 17 16 16 16 14 12 11 11 11 11 11 11 11 11 11 11 11 12 12 12 12 12 12 13 13 13 14 14 14 13 14 14 14 15 14 14 13 13
21 24 23 21 20 19 18 17 14 12 11 11 12 12 12 13 12 12 12 12 12 12 12 12 12 12 12 13 13 13 13 13 13 13 13 14 14 14 14 14 13 12
23 27 25 23 22 20 19 16 13 12 12 12 13 13 14 14 13 13 13 13 13 12 12 12 12 12 13 13 13 12 12 12 12 12 13 13 13 13 13 13 12 12
24 29 26 23 23 22 21 17 14 14 13 14 14 14 15 14 14 14 14 13 13 13 12 12 12 13 13 13 12 12 12 12 12 12 12 13 12 13 13 12 12 11
24 29 26 25 25 23 20 18 15 15 15 15 15 15 15 15 15 15 14 14 13 13 12 12 13 13 12 12 12 12 12 12 12 12 12 13 12 12 12 12 12 11
25 28 27 25 25 23 20 18 16 16 16 16 16 16 16 16 15 15 15 14 14 13 13 13 13 12 12 12 11 11 11 12 12 12 12 13 12 12 11 11 12 11
28 29 26 26 25 23 21 19 17 17 17 17 16 16 16 16 16 15 15 15 14 14 13 13 13 13 12 12 11 12 12 12 12 12 12 13 12 12 11 11 11 11
31 29 27 28 26 25 23 20 18 17 17 17 17 16 17 16 16 16 15 15 15 14 13 13 13 13 12 12 12 13 13 12 12 12 12 12 12 12 11 10 11 11
32 29 29 30 28 26 23 20 19 18 18 18 17 17 17 16 16 16 16 15 15 14 14 13 13 13 12 13 13 13 13 12 12 12 12 12 12 11 11 10 10 9
32 30 30 31 28 25 23 20 19 19 18 18 17 17 17 17 17 16 16 16 15 15 15 14 13 13 13 13 13 13 13 13 13 12 12 11 11 11 10 10 9 9
31 31 32 31 28 24 22 21 20 19 18 18 18 17 17 17 17 17 16 16 15 16 15 14 14 14 14 14 13 13 13 13 12 12 12 11 11 10 10 9 8 8
31 32 32 30 28 24 22 21 20 19 18 18 18 18 18 17 17 17 16 16 16 16 15 15 15 14 14 14 13 13 13 13 12 12 11 11 11 10 9 8 8 8
32 32 31 29 25 23 22 21 19 19 18 18 18 18 18 18 18 17 16 16 16 16 16 15 15 14 14 14 14 13 13 13 12 12 11 11 10 9 9 8 8 8
32 31 30 27 23 21 22 20 19 18 18 18 18 18 18 18 18 17 16 16 16 16 16 15 15 14 14 14 14 13 13 13 12 11 11 10 10 9 8 8 8 8
29 26 25 24 21 20 20 19 18 18 18 18 18 18 18 17 17 17 17 16 16 16 16 16 15 14 14 15 14 14 13 13 12 11 11 10 9 9 8 7 7 7
24 22 22 21 20 20 20 19 18 18 18 18 18 17 17 17 17 17 17 17 17 17 16 16 14 13 15 17 15 14 13 12 12 11 10 10 9 8 8 7 7 6
21 21 21 20 20 20 20 19 19 18 18 18 17 17 16 17 17 17 17 17 17 17 16 15 14 14 18 20 18 15 13 12 12 11 10 9 9 8 7 7 6 6
21 22 21 21 21 21 21 21 19 18 18 18 17 17 16 16 16 17 17 17 17 17 16 15 14 15 19 20 19 18 15 12 11 11 10 9 8 8 7 7 6 6
23 23 20 20 20 19 19 19 18 19 18 17 17 16 16 16 17 17 17 17 17 17 17 16 15 17 19 18 18 18 16 12 10 10 10 9 8 7 6 6 6 5
22 20 17 17 17 15 14 14 13 15 16 16 16 16 15 16 16 17 16 16 16 16 16 15 15 19 20 18 17 18 16 12 10 10 10 9 8 8 6 6 5 5
22 21 19 20 19 18 18 18 15 14 14 14 13 14 14 14 15 16 15 16 16 16 16 15 15 20 22 20 18 18 16 12 9 9 10 9 9 8 7 6 5 5
28 28 27 26 24 24 26 24 18 15 14 13 12 12 12 12 13 14 15 16 16 16 16 14 16 21 23 21 18 18 17 13 10 10 10 9 9 9 8 6 6 5
33 34 31 30 29 30 30 27 21 17 15 14 13 11 11 11 12 13 14 15 16 16 16 14 15 22 25 22 20 19 17 13 10 10 10 10 10 10 8 7 6 6
34 35 34 33 32 33 32 29 26 24 22 20 17 13 11 11 11 11 13 14 15 16 16 13 15 22 26 23 21 21 18 13 11 11 11 10 10 10 9 8 8 8
34 35 35 34 34 34 31 28 27 27 25 23 19 14 11 11 10 11 12 13 14 15 16 14 15 21 26 24 21 22 19 14 11 11 11 11 11 11 9 8 8 8
36 36 35 35 33 32 31 30 30 29 26 23 19 13 11 10 10 10 11 12 13 14 16 14 14 20 26 24 22 22 21 16 11 11 12 12 11 11 10 9 9 8

ECMWFNIL_925_spd_123.txt.gz
Wind_Speed
22 21 21 20 18 18 17 15 15 15 15 14 13 12 12 12 12 11 11 11 11 11 11 11 11 11 11 10 10 10 10 10 10 10 10 10 10 10 10 10 9 9
23 22 23 22 19 18 17 16 16 16 15 13 13 13 13 13 13 12 12 12 12 11 11 11 11 11 11 10 10 10 10 10 10 10 10 10 10 10 10 10 9 9
23 22 23 22 19 18 18 18 17 15 15 14 13 14 15 14 13 13 13 13 13 12 12 11 11 11 11 11 10 10 10 10 10 10 9 9 9 9 9 9 9 9
23 22 23 22 20 20 20 19 17 15 15 15 16 15 15 15 14 14 14 13 13 13 12 12 12 11 11 11 10 10 10 10 10 9 9 9 9 9 9 9 9 9
24 23 23 22 21 22 20 18 18 17 16 16 16 16 16 16 15 15 14 14 13 13 13 12 12 12 11 11 10 10 10 9 9 9 9 10 9 9 9 9 9 8
25 24 23 22 22 21 19 17 17 17 16 16 16 16 16 16 15 15 15 14 14 14 13 13 13 12 11 11 11 10 10 9 9 9 10 10 9 9 9 9 8 7
26 26 24 21 22 21 18 17 17 17 17 16 16 16 16 16 15 15 15 15 14 14 14 13 13 12 12 11 10 10 10 10 10 10 10 10 10 10 9 9 8 8
27 27 23 21 21 20 18 18 18 17 16 16 16 16 16 16 16 16 15 15 15 14 14 14 13 13 12 11 11 11 11 10 10 10 10 10 10 10 9 9 8 8
27 25 22 22 23 21 19 18 18 17 17 16 16 16 16 16 16 16 16 15 15 15 14 14 13 13 12 11 12 12 11 10 10 10 10 10 10 10 9 9 8 7
26 25 23 23 23 22 20 19 19 18 17 16 17 17 16 16 16 16 16 16 15 15 15 14 14 13 12 12 13 12 11 11 11 11 10 10 10 10 9 9 8 7
24 25 24 22 22 21 21 20 19 18 18 17 17 17 17 16 16 16 16 16 15 15 15 15 14 14 13 13 13 12 12 11 11 11 10 10 10 10 9 8 8 7
25 24 25 23 22 22 22 20 19 18 18 17 16 17 17 17 17 16 16 16 15 15 15 15 14 14 14 14 13 13 12 11 11 11 10 10 10 9 9 8 8 7
25 25 26 24 22 23 22 20 19 18 18 17 16 17 17 17 17 16 16 16 16 15 15 15 15 15 14 14 14 14 13 12 12 11 11 10 10 9 9 8 8 7
26 25 25 23 22 23 22 20 19 18 17 16 16 17 17 17 17 16 16 16 16 16 15 15 15 15 15 15 14 14 13 13 12 12 11 11 10 10 9 9 8 8
26 25 23 22 22 22 21 19 19 18 16 16 16 16 16 16 16 16 16 16 16 16 15 15 15 15 15 16 15 14 14 13 12 12 12 11 11 10 9 9 9 8
26 24 22 22 22 22 21 20 19 18 16 16 16 16 16 16 16 16 16 16 16 16 16 15 15 14 16 17 16 15 14 13 13 12 12 12 11 11 10 9 9 9
25 23 22 22 22 21 20 19 18 17 16 16 17 17 17 17 17 17 17 17 17 17 16 16 14 15 19 20 18 16 15 12 12 12 12 12 11 11 11 10 10 9
24 23 23 22 21 21 21 22 21 20 19 18 18 18 18 17 17 17 17 16 17 17 16 15 14 16 20 22 20 18 16 13 12 12 11 11 11 11 11 10 10 9
24 24 23 21 22 23 23 22 23 22 20 19 18 17 17 17 16 16 16 16 16 16 16 15 14 15 20 24 23 20 18 15 11 11 11 11 11 11 10 10 10 9
25 25 23 23 25 26 24 22 22 22 19 18 18 17 16 16 17 16 16 16 16 16 16 15 14 15 18 24 24 21 20 15 9 10 12 10 11 10 9 10 10 9
26 27 27 27 28 27 24 23 24 21 19 18 17 17 16 16 16 16 16 16 16 15 15 15 15 15 18 23 25 23 22 15 8 9 12 10 10 10 8 9 9 8
28 32 32 28 26 26 24 23 22 21 19 18 17 16 15 14 15 15 15 15 15 15 15 14 15 15 18 22 23 24 24 15 8 10 12 10 10 11 9 9 9 8
29 33 33 29 28 28 26 22 22 21 20 18 17 16 15 13 13 13 13 13 14 14 14 13 14 15 17 20 21 24 25 16 9 10 12 10 11 11 9 9 9 9
28 31 33 32 33 33 27 22 21 22 23 23 23 22 19 16 13 11 11 12 13 14 13 12 13 15 18 20 20 23 25 17 10 11 12 11 11 11 10 10 10 12
25 28 31 34 36 34 27 22 23 25 26 26 24 24 22 19 15 12 10 9 10 12 13 12 12 14 18 21 21 23 24 19 12 10 12 11 11 12 11 10 10 13
23 24 26 31 36 34 28 26 27 27 25 21 18 18 19 20 19 17 14 12 10 11 13 13 12 13 18 23 23 22 24 21 14 10 11 12 11 11 12 11 9 12